<?xml version="1.0" encoding="UTF-8" standalone="no" ?>
<gpx xmlns="http://www.topografix.com/GPX/1/1" xmlns:xsi="http://www.w3.org/2001/XMLSchema-instance" xsi:schemaLocation="http://www.topografix.com/GPX/1/1 http://www.topografix.com/GPX/1/1/gpx.xsd" version="1.1" creator="VisuGPX - https://www.visugpx.com">
  <metadata>
    <name>le Monthaut</name>
    <desc><![CDATA[départ de la source de la buège.]]></desc>
  </metadata>
  <trk>
    <name><![CDATA[29-MARS-15 16:30:09]]></name>
    <trkseg>
      <trkpt lat="43.81176" lon="3.59158">
        <ele>165.96</ele>
        <time>2015-03-29T10:31:19Z</time>
      </trkpt>
      <trkpt lat="43.81176" lon="3.59158">
        <ele>167.41</ele>
        <time>2015-03-29T10:31:21Z</time>
      </trkpt>
      <trkpt lat="43.81176" lon="3.59159">
        <ele>172.21</ele>
        <time>2015-03-29T10:31:38Z</time>
      </trkpt>
      <trkpt lat="43.81176" lon="3.59158">
        <ele>171.25</ele>
        <time>2015-03-29T10:31:39Z</time>
      </trkpt>
      <trkpt lat="43.81177" lon="3.59158">
        <ele>173.66</ele>
        <time>2015-03-29T10:31:54Z</time>
      </trkpt>
      <trkpt lat="43.81177" lon="3.59158">
        <ele>177.5</ele>
        <time>2015-03-29T10:32:03Z</time>
      </trkpt>
      <trkpt lat="43.81177" lon="3.59158">
        <ele>177.02</ele>
        <time>2015-03-29T10:32:04Z</time>
      </trkpt>
      <trkpt lat="43.81177" lon="3.59159">
        <ele>173.17</ele>
        <time>2015-03-29T10:32:15Z</time>
      </trkpt>
      <trkpt lat="43.81177" lon="3.59159">
        <ele>168.85</ele>
        <time>2015-03-29T10:32:21Z</time>
      </trkpt>
      <trkpt lat="43.81176" lon="3.59159">
        <ele>172.21</ele>
        <time>2015-03-29T10:32:26Z</time>
      </trkpt>
      <trkpt lat="43.81176" lon="3.59159">
        <ele>168.37</ele>
        <time>2015-03-29T10:32:27Z</time>
      </trkpt>
      <trkpt lat="43.81176" lon="3.59159">
        <ele>166.45</ele>
        <time>2015-03-29T10:32:30Z</time>
      </trkpt>
      <trkpt lat="43.81177" lon="3.59159">
        <ele>169.81</ele>
        <time>2015-03-29T10:32:36Z</time>
      </trkpt>
      <trkpt lat="43.81176" lon="3.59159">
        <ele>172.69</ele>
        <time>2015-03-29T10:32:46Z</time>
      </trkpt>
      <trkpt lat="43.81176" lon="3.5916">
        <ele>175.58</ele>
        <time>2015-03-29T10:32:55Z</time>
      </trkpt>
      <trkpt lat="43.81176" lon="3.5916">
        <ele>172.21</ele>
        <time>2015-03-29T10:32:57Z</time>
      </trkpt>
      <trkpt lat="43.81176" lon="3.5916">
        <ele>173.17</ele>
        <time>2015-03-29T10:32:58Z</time>
      </trkpt>
      <trkpt lat="43.81176" lon="3.5916">
        <ele>170.77</ele>
        <time>2015-03-29T10:33:10Z</time>
      </trkpt>
      <trkpt lat="43.81176" lon="3.5916">
        <ele>168.37</ele>
        <time>2015-03-29T10:33:15Z</time>
      </trkpt>
      <trkpt lat="43.81176" lon="3.59159">
        <ele>169.33</ele>
        <time>2015-03-29T10:33:38Z</time>
      </trkpt>
      <trkpt lat="43.81176" lon="3.59159">
        <ele>172.21</ele>
        <time>2015-03-29T10:34:00Z</time>
      </trkpt>
      <trkpt lat="43.81176" lon="3.59159">
        <ele>168.85</ele>
        <time>2015-03-29T10:34:07Z</time>
      </trkpt>
      <trkpt lat="43.81176" lon="3.59159">
        <ele>171.73</ele>
        <time>2015-03-29T10:34:30Z</time>
      </trkpt>
      <trkpt lat="43.81176" lon="3.59159">
        <ele>172.21</ele>
        <time>2015-03-29T10:34:56Z</time>
      </trkpt>
      <trkpt lat="43.81176" lon="3.59159">
        <ele>172.21</ele>
        <time>2015-03-29T10:35:26Z</time>
      </trkpt>
      <trkpt lat="43.81176" lon="3.59159">
        <ele>174.14</ele>
        <time>2015-03-29T10:35:57Z</time>
      </trkpt>
      <trkpt lat="43.81176" lon="3.5916">
        <ele>173.17</ele>
        <time>2015-03-29T10:36:27Z</time>
      </trkpt>
      <trkpt lat="43.81175" lon="3.59161">
        <ele>174.14</ele>
        <time>2015-03-29T10:37:03Z</time>
      </trkpt>
      <trkpt lat="43.81175" lon="3.5916">
        <ele>173.66</ele>
        <time>2015-03-29T10:37:37Z</time>
      </trkpt>
      <trkpt lat="43.81174" lon="3.59159">
        <ele>174.14</ele>
        <time>2015-03-29T10:38:01Z</time>
      </trkpt>
      <trkpt lat="43.81173" lon="3.59159">
        <ele>173.66</ele>
        <time>2015-03-29T10:38:18Z</time>
      </trkpt>
      <trkpt lat="43.81173" lon="3.59158">
        <ele>175.58</ele>
        <time>2015-03-29T10:38:36Z</time>
      </trkpt>
      <trkpt lat="43.8117" lon="3.5916">
        <ele>177.98</ele>
        <time>2015-03-29T10:38:47Z</time>
      </trkpt>
      <trkpt lat="43.81166" lon="3.59163">
        <ele>176.54</ele>
        <time>2015-03-29T10:38:52Z</time>
      </trkpt>
      <trkpt lat="43.8116" lon="3.59167">
        <ele>176.06</ele>
        <time>2015-03-29T10:38:57Z</time>
      </trkpt>
      <trkpt lat="43.81152" lon="3.5917">
        <ele>175.58</ele>
        <time>2015-03-29T10:39:05Z</time>
      </trkpt>
      <trkpt lat="43.81145" lon="3.59173">
        <ele>175.58</ele>
        <time>2015-03-29T10:39:11Z</time>
      </trkpt>
      <trkpt lat="43.8114" lon="3.59174">
        <ele>175.1</ele>
        <time>2015-03-29T10:39:15Z</time>
      </trkpt>
      <trkpt lat="43.81134" lon="3.59177">
        <ele>175.58</ele>
        <time>2015-03-29T10:39:20Z</time>
      </trkpt>
      <trkpt lat="43.81119" lon="3.5918">
        <ele>175.1</ele>
        <time>2015-03-29T10:39:33Z</time>
      </trkpt>
      <trkpt lat="43.81115" lon="3.59186">
        <ele>174.14</ele>
        <time>2015-03-29T10:39:41Z</time>
      </trkpt>
      <trkpt lat="43.81114" lon="3.59191">
        <ele>174.62</ele>
        <time>2015-03-29T10:39:45Z</time>
      </trkpt>
      <trkpt lat="43.81115" lon="3.59198">
        <ele>174.62</ele>
        <time>2015-03-29T10:39:50Z</time>
      </trkpt>
      <trkpt lat="43.81111" lon="3.59201">
        <ele>174.62</ele>
        <time>2015-03-29T10:39:53Z</time>
      </trkpt>
      <trkpt lat="43.81088" lon="3.59207">
        <ele>175.58</ele>
        <time>2015-03-29T10:40:09Z</time>
      </trkpt>
      <trkpt lat="43.8108" lon="3.59207">
        <ele>176.06</ele>
        <time>2015-03-29T10:40:15Z</time>
      </trkpt>
      <trkpt lat="43.8107" lon="3.59207">
        <ele>177.02</ele>
        <time>2015-03-29T10:40:22Z</time>
      </trkpt>
      <trkpt lat="43.81053" lon="3.59217">
        <ele>175.58</ele>
        <time>2015-03-29T10:40:37Z</time>
      </trkpt>
      <trkpt lat="43.81053" lon="3.59224">
        <ele>176.54</ele>
        <time>2015-03-29T10:40:44Z</time>
      </trkpt>
      <trkpt lat="43.81055" lon="3.5924">
        <ele>177.98</ele>
        <time>2015-03-29T10:40:57Z</time>
      </trkpt>
      <trkpt lat="43.81058" lon="3.59251">
        <ele>178.94</ele>
        <time>2015-03-29T10:41:09Z</time>
      </trkpt>
      <trkpt lat="43.81059" lon="3.59255">
        <ele>179.42</ele>
        <time>2015-03-29T10:41:12Z</time>
      </trkpt>
      <trkpt lat="43.81054" lon="3.59274">
        <ele>179.9</ele>
        <time>2015-03-29T10:41:25Z</time>
      </trkpt>
      <trkpt lat="43.81051" lon="3.59281">
        <ele>181.83</ele>
        <time>2015-03-29T10:41:30Z</time>
      </trkpt>
      <trkpt lat="43.81049" lon="3.59284">
        <ele>182.31</ele>
        <time>2015-03-29T10:41:32Z</time>
      </trkpt>
      <trkpt lat="43.81047" lon="3.59287">
        <ele>182.79</ele>
        <time>2015-03-29T10:41:35Z</time>
      </trkpt>
      <trkpt lat="43.81041" lon="3.5929">
        <ele>183.75</ele>
        <time>2015-03-29T10:41:39Z</time>
      </trkpt>
      <trkpt lat="43.8103" lon="3.59295">
        <ele>184.71</ele>
        <time>2015-03-29T10:41:48Z</time>
      </trkpt>
      <trkpt lat="43.81031" lon="3.59301">
        <ele>185.19</ele>
        <time>2015-03-29T10:41:53Z</time>
      </trkpt>
      <trkpt lat="43.81042" lon="3.59303">
        <ele>186.63</ele>
        <time>2015-03-29T10:42:03Z</time>
      </trkpt>
      <trkpt lat="43.81044" lon="3.59307">
        <ele>186.63</ele>
        <time>2015-03-29T10:42:06Z</time>
      </trkpt>
      <trkpt lat="43.81049" lon="3.59309">
        <ele>186.63</ele>
        <time>2015-03-29T10:42:11Z</time>
      </trkpt>
      <trkpt lat="43.8106" lon="3.59316">
        <ele>186.63</ele>
        <time>2015-03-29T10:42:24Z</time>
      </trkpt>
      <trkpt lat="43.81067" lon="3.59325">
        <ele>187.59</ele>
        <time>2015-03-29T10:42:36Z</time>
      </trkpt>
      <trkpt lat="43.81068" lon="3.59328">
        <ele>188.08</ele>
        <time>2015-03-29T10:42:56Z</time>
      </trkpt>
      <trkpt lat="43.81068" lon="3.59329">
        <ele>188.08</ele>
        <time>2015-03-29T10:43:18Z</time>
      </trkpt>
      <trkpt lat="43.81068" lon="3.59334">
        <ele>187.59</ele>
        <time>2015-03-29T10:43:23Z</time>
      </trkpt>
      <trkpt lat="43.81068" lon="3.59353">
        <ele>189.04</ele>
        <time>2015-03-29T10:43:38Z</time>
      </trkpt>
      <trkpt lat="43.81067" lon="3.59357">
        <ele>188.08</ele>
        <time>2015-03-29T10:43:40Z</time>
      </trkpt>
      <trkpt lat="43.81065" lon="3.5936">
        <ele>189.52</ele>
        <time>2015-03-29T10:43:43Z</time>
      </trkpt>
      <trkpt lat="43.81057" lon="3.59373">
        <ele>191.92</ele>
        <time>2015-03-29T10:43:55Z</time>
      </trkpt>
      <trkpt lat="43.81046" lon="3.59385">
        <ele>192.4</ele>
        <time>2015-03-29T10:44:11Z</time>
      </trkpt>
      <trkpt lat="43.81041" lon="3.59398">
        <ele>193.36</ele>
        <time>2015-03-29T10:44:23Z</time>
      </trkpt>
      <trkpt lat="43.81039" lon="3.594">
        <ele>193.84</ele>
        <time>2015-03-29T10:44:25Z</time>
      </trkpt>
      <trkpt lat="43.8103" lon="3.59414">
        <ele>193.84</ele>
        <time>2015-03-29T10:44:35Z</time>
      </trkpt>
      <trkpt lat="43.81029" lon="3.59418">
        <ele>193.36</ele>
        <time>2015-03-29T10:44:37Z</time>
      </trkpt>
      <trkpt lat="43.81027" lon="3.59425">
        <ele>196.25</ele>
        <time>2015-03-29T10:44:42Z</time>
      </trkpt>
      <trkpt lat="43.81027" lon="3.59427">
        <ele>196.25</ele>
        <time>2015-03-29T10:44:43Z</time>
      </trkpt>
      <trkpt lat="43.81025" lon="3.59431">
        <ele>197.69</ele>
        <time>2015-03-29T10:44:46Z</time>
      </trkpt>
      <trkpt lat="43.81021" lon="3.59456">
        <ele>199.61</ele>
        <time>2015-03-29T10:44:59Z</time>
      </trkpt>
      <trkpt lat="43.81009" lon="3.5948">
        <ele>200.57</ele>
        <time>2015-03-29T10:45:14Z</time>
      </trkpt>
      <trkpt lat="43.81005" lon="3.59489">
        <ele>200.09</ele>
        <time>2015-03-29T10:45:21Z</time>
      </trkpt>
      <trkpt lat="43.81003" lon="3.59498">
        <ele>200.09</ele>
        <time>2015-03-29T10:45:31Z</time>
      </trkpt>
      <trkpt lat="43.81003" lon="3.59501">
        <ele>200.09</ele>
        <time>2015-03-29T10:45:33Z</time>
      </trkpt>
      <trkpt lat="43.81001" lon="3.59512">
        <ele>200.57</ele>
        <time>2015-03-29T10:45:44Z</time>
      </trkpt>
      <trkpt lat="43.81001" lon="3.59512">
        <ele>200.57</ele>
        <time>2015-03-29T10:45:46Z</time>
      </trkpt>
      <trkpt lat="43.81002" lon="3.59503">
        <ele>199.61</ele>
        <time>2015-03-29T10:45:54Z</time>
      </trkpt>
      <trkpt lat="43.81002" lon="3.59501">
        <ele>199.61</ele>
        <time>2015-03-29T10:45:55Z</time>
      </trkpt>
      <trkpt lat="43.81001" lon="3.59497">
        <ele>198.65</ele>
        <time>2015-03-29T10:45:58Z</time>
      </trkpt>
      <trkpt lat="43.80996" lon="3.59493">
        <ele>200.09</ele>
        <time>2015-03-29T10:46:06Z</time>
      </trkpt>
      <trkpt lat="43.80991" lon="3.59483">
        <ele>201.05</ele>
        <time>2015-03-29T10:46:14Z</time>
      </trkpt>
      <trkpt lat="43.80991" lon="3.5948">
        <ele>201.53</ele>
        <time>2015-03-29T10:46:16Z</time>
      </trkpt>
      <trkpt lat="43.80987" lon="3.59473">
        <ele>202.98</ele>
        <time>2015-03-29T10:46:21Z</time>
      </trkpt>
      <trkpt lat="43.80978" lon="3.59474">
        <ele>203.94</ele>
        <time>2015-03-29T10:46:29Z</time>
      </trkpt>
      <trkpt lat="43.80964" lon="3.59485">
        <ele>203.94</ele>
        <time>2015-03-29T10:46:40Z</time>
      </trkpt>
      <trkpt lat="43.80961" lon="3.59489">
        <ele>203.46</ele>
        <time>2015-03-29T10:46:43Z</time>
      </trkpt>
      <trkpt lat="43.80953" lon="3.59494">
        <ele>203.46</ele>
        <time>2015-03-29T10:46:50Z</time>
      </trkpt>
      <trkpt lat="43.80947" lon="3.59495">
        <ele>203.46</ele>
        <time>2015-03-29T10:46:54Z</time>
      </trkpt>
      <trkpt lat="43.80942" lon="3.59499">
        <ele>203.46</ele>
        <time>2015-03-29T10:46:58Z</time>
      </trkpt>
      <trkpt lat="43.80936" lon="3.59508">
        <ele>204.42</ele>
        <time>2015-03-29T10:47:04Z</time>
      </trkpt>
      <trkpt lat="43.80925" lon="3.59513">
        <ele>205.86</ele>
        <time>2015-03-29T10:47:13Z</time>
      </trkpt>
      <trkpt lat="43.80915" lon="3.59513">
        <ele>206.34</ele>
        <time>2015-03-29T10:47:20Z</time>
      </trkpt>
      <trkpt lat="43.80909" lon="3.59514">
        <ele>206.34</ele>
        <time>2015-03-29T10:47:26Z</time>
      </trkpt>
      <trkpt lat="43.80899" lon="3.59512">
        <ele>206.34</ele>
        <time>2015-03-29T10:47:39Z</time>
      </trkpt>
      <trkpt lat="43.80899" lon="3.59511">
        <ele>206.34</ele>
        <time>2015-03-29T10:47:40Z</time>
      </trkpt>
      <trkpt lat="43.80898" lon="3.59517">
        <ele>206.34</ele>
        <time>2015-03-29T10:47:46Z</time>
      </trkpt>
      <trkpt lat="43.80895" lon="3.5952">
        <ele>206.34</ele>
        <time>2015-03-29T10:47:49Z</time>
      </trkpt>
      <trkpt lat="43.80886" lon="3.59526">
        <ele>208.26</ele>
        <time>2015-03-29T10:47:59Z</time>
      </trkpt>
      <trkpt lat="43.80887" lon="3.59529">
        <ele>208.74</ele>
        <time>2015-03-29T10:48:02Z</time>
      </trkpt>
      <trkpt lat="43.80889" lon="3.59539">
        <ele>208.74</ele>
        <time>2015-03-29T10:48:09Z</time>
      </trkpt>
      <trkpt lat="43.8089" lon="3.5954">
        <ele>209.22</ele>
        <time>2015-03-29T10:48:11Z</time>
      </trkpt>
      <trkpt lat="43.80893" lon="3.59547">
        <ele>209.7</ele>
        <time>2015-03-29T10:48:17Z</time>
      </trkpt>
      <trkpt lat="43.80893" lon="3.59551">
        <ele>209.7</ele>
        <time>2015-03-29T10:48:19Z</time>
      </trkpt>
      <trkpt lat="43.80889" lon="3.59551">
        <ele>211.15</ele>
        <time>2015-03-29T10:48:23Z</time>
      </trkpt>
      <trkpt lat="43.80877" lon="3.59543">
        <ele>214.03</ele>
        <time>2015-03-29T10:48:37Z</time>
      </trkpt>
      <trkpt lat="43.80877" lon="3.59542">
        <ele>214.51</ele>
        <time>2015-03-29T10:48:38Z</time>
      </trkpt>
      <trkpt lat="43.80873" lon="3.59541">
        <ele>215.47</ele>
        <time>2015-03-29T10:48:43Z</time>
      </trkpt>
      <trkpt lat="43.80877" lon="3.59558">
        <ele>219.32</ele>
        <time>2015-03-29T10:48:56Z</time>
      </trkpt>
      <trkpt lat="43.80878" lon="3.59572">
        <ele>220.28</ele>
        <time>2015-03-29T10:49:06Z</time>
      </trkpt>
      <trkpt lat="43.80873" lon="3.59571">
        <ele>223.16</ele>
        <time>2015-03-29T10:49:15Z</time>
      </trkpt>
      <trkpt lat="43.80872" lon="3.5957">
        <ele>223.64</ele>
        <time>2015-03-29T10:49:17Z</time>
      </trkpt>
      <trkpt lat="43.80858" lon="3.59559">
        <ele>226.05</ele>
        <time>2015-03-29T10:49:31Z</time>
      </trkpt>
      <trkpt lat="43.80848" lon="3.59556">
        <ele>226.53</ele>
        <time>2015-03-29T10:49:41Z</time>
      </trkpt>
      <trkpt lat="43.80843" lon="3.59557">
        <ele>227.49</ele>
        <time>2015-03-29T10:49:45Z</time>
      </trkpt>
      <trkpt lat="43.8084" lon="3.59554">
        <ele>228.45</ele>
        <time>2015-03-29T10:49:48Z</time>
      </trkpt>
      <trkpt lat="43.80837" lon="3.59554">
        <ele>229.41</ele>
        <time>2015-03-29T10:49:51Z</time>
      </trkpt>
      <trkpt lat="43.8084" lon="3.59565">
        <ele>230.37</ele>
        <time>2015-03-29T10:50:02Z</time>
      </trkpt>
      <trkpt lat="43.80846" lon="3.59583">
        <ele>234.22</ele>
        <time>2015-03-29T10:50:15Z</time>
      </trkpt>
      <trkpt lat="43.80848" lon="3.59591">
        <ele>235.18</ele>
        <time>2015-03-29T10:50:21Z</time>
      </trkpt>
      <trkpt lat="43.80846" lon="3.596">
        <ele>236.62</ele>
        <time>2015-03-29T10:50:28Z</time>
      </trkpt>
      <trkpt lat="43.80841" lon="3.59601">
        <ele>237.58</ele>
        <time>2015-03-29T10:50:32Z</time>
      </trkpt>
      <trkpt lat="43.80832" lon="3.59591">
        <ele>238.06</ele>
        <time>2015-03-29T10:50:45Z</time>
      </trkpt>
      <trkpt lat="43.80822" lon="3.59589">
        <ele>239.51</ele>
        <time>2015-03-29T10:50:56Z</time>
      </trkpt>
      <trkpt lat="43.8082" lon="3.59593">
        <ele>239.51</ele>
        <time>2015-03-29T10:51:00Z</time>
      </trkpt>
      <trkpt lat="43.80817" lon="3.596">
        <ele>240.95</ele>
        <time>2015-03-29T10:51:06Z</time>
      </trkpt>
      <trkpt lat="43.80807" lon="3.59598">
        <ele>242.39</ele>
        <time>2015-03-29T10:51:16Z</time>
      </trkpt>
      <trkpt lat="43.80794" lon="3.59595">
        <ele>245.75</ele>
        <time>2015-03-29T10:51:29Z</time>
      </trkpt>
      <trkpt lat="43.80788" lon="3.59595">
        <ele>248.64</ele>
        <time>2015-03-29T10:51:36Z</time>
      </trkpt>
      <trkpt lat="43.80775" lon="3.59594">
        <ele>252</ele>
        <time>2015-03-29T10:51:49Z</time>
      </trkpt>
      <trkpt lat="43.80771" lon="3.59594">
        <ele>253.44</ele>
        <time>2015-03-29T10:51:52Z</time>
      </trkpt>
      <trkpt lat="43.80757" lon="3.59603">
        <ele>253.93</ele>
        <time>2015-03-29T10:52:05Z</time>
      </trkpt>
      <trkpt lat="43.80751" lon="3.59604">
        <ele>253.44</ele>
        <time>2015-03-29T10:52:10Z</time>
      </trkpt>
      <trkpt lat="43.80743" lon="3.59607">
        <ele>251.04</ele>
        <time>2015-03-29T10:52:17Z</time>
      </trkpt>
      <trkpt lat="43.80736" lon="3.59614">
        <ele>254.41</ele>
        <time>2015-03-29T10:52:26Z</time>
      </trkpt>
      <trkpt lat="43.80728" lon="3.59626">
        <ele>255.85</ele>
        <time>2015-03-29T10:52:39Z</time>
      </trkpt>
      <trkpt lat="43.80726" lon="3.59636">
        <ele>255.37</ele>
        <time>2015-03-29T10:52:46Z</time>
      </trkpt>
      <trkpt lat="43.80724" lon="3.59644">
        <ele>255.85</ele>
        <time>2015-03-29T10:52:51Z</time>
      </trkpt>
      <trkpt lat="43.80723" lon="3.59649">
        <ele>255.85</ele>
        <time>2015-03-29T10:52:54Z</time>
      </trkpt>
      <trkpt lat="43.80721" lon="3.59667">
        <ele>256.33</ele>
        <time>2015-03-29T10:53:06Z</time>
      </trkpt>
      <trkpt lat="43.80722" lon="3.59674">
        <ele>257.29</ele>
        <time>2015-03-29T10:53:11Z</time>
      </trkpt>
      <trkpt lat="43.80724" lon="3.5968">
        <ele>256.33</ele>
        <time>2015-03-29T10:53:16Z</time>
      </trkpt>
      <trkpt lat="43.80726" lon="3.59694">
        <ele>258.25</ele>
        <time>2015-03-29T10:53:27Z</time>
      </trkpt>
      <trkpt lat="43.80723" lon="3.59709">
        <ele>262.1</ele>
        <time>2015-03-29T10:53:38Z</time>
      </trkpt>
      <trkpt lat="43.80723" lon="3.59712">
        <ele>262.58</ele>
        <time>2015-03-29T10:53:40Z</time>
      </trkpt>
      <trkpt lat="43.80724" lon="3.5972">
        <ele>264.02</ele>
        <time>2015-03-29T10:53:45Z</time>
      </trkpt>
      <trkpt lat="43.80722" lon="3.5973">
        <ele>264.98</ele>
        <time>2015-03-29T10:53:52Z</time>
      </trkpt>
      <trkpt lat="43.80716" lon="3.59744">
        <ele>267.86</ele>
        <time>2015-03-29T10:54:04Z</time>
      </trkpt>
      <trkpt lat="43.80713" lon="3.59747">
        <ele>267.86</ele>
        <time>2015-03-29T10:54:07Z</time>
      </trkpt>
      <trkpt lat="43.80708" lon="3.59754">
        <ele>267.86</ele>
        <time>2015-03-29T10:54:12Z</time>
      </trkpt>
      <trkpt lat="43.80704" lon="3.59757">
        <ele>267.86</ele>
        <time>2015-03-29T10:54:15Z</time>
      </trkpt>
      <trkpt lat="43.80697" lon="3.59765">
        <ele>267.86</ele>
        <time>2015-03-29T10:54:22Z</time>
      </trkpt>
      <trkpt lat="43.80684" lon="3.59769">
        <ele>269.31</ele>
        <time>2015-03-29T10:54:34Z</time>
      </trkpt>
      <trkpt lat="43.80676" lon="3.59773">
        <ele>270.75</ele>
        <time>2015-03-29T10:54:44Z</time>
      </trkpt>
      <trkpt lat="43.8068" lon="3.59762">
        <ele>272.19</ele>
        <time>2015-03-29T10:54:56Z</time>
      </trkpt>
      <trkpt lat="43.80679" lon="3.59759">
        <ele>273.63</ele>
        <time>2015-03-29T10:54:59Z</time>
      </trkpt>
      <trkpt lat="43.80672" lon="3.59759">
        <ele>274.11</ele>
        <time>2015-03-29T10:55:07Z</time>
      </trkpt>
      <trkpt lat="43.8067" lon="3.59759">
        <ele>273.15</ele>
        <time>2015-03-29T10:55:09Z</time>
      </trkpt>
      <trkpt lat="43.80662" lon="3.59761">
        <ele>276.52</ele>
        <time>2015-03-29T10:55:19Z</time>
      </trkpt>
      <trkpt lat="43.80654" lon="3.59767">
        <ele>277.96</ele>
        <time>2015-03-29T10:55:29Z</time>
      </trkpt>
      <trkpt lat="43.80652" lon="3.59769">
        <ele>277.96</ele>
        <time>2015-03-29T10:55:31Z</time>
      </trkpt>
      <trkpt lat="43.8064" lon="3.59772">
        <ele>277.48</ele>
        <time>2015-03-29T10:55:42Z</time>
      </trkpt>
      <trkpt lat="43.80636" lon="3.59776">
        <ele>276.04</ele>
        <time>2015-03-29T10:55:46Z</time>
      </trkpt>
      <trkpt lat="43.80622" lon="3.59778">
        <ele>276.04</ele>
        <time>2015-03-29T10:55:57Z</time>
      </trkpt>
      <trkpt lat="43.80607" lon="3.59784">
        <ele>279.88</ele>
        <time>2015-03-29T10:56:09Z</time>
      </trkpt>
      <trkpt lat="43.80596" lon="3.59792">
        <ele>280.84</ele>
        <time>2015-03-29T10:56:19Z</time>
      </trkpt>
      <trkpt lat="43.8058" lon="3.59802">
        <ele>281.8</ele>
        <time>2015-03-29T10:56:33Z</time>
      </trkpt>
      <trkpt lat="43.80567" lon="3.59806">
        <ele>278.44</ele>
        <time>2015-03-29T10:56:46Z</time>
      </trkpt>
      <trkpt lat="43.80564" lon="3.59806">
        <ele>277</ele>
        <time>2015-03-29T10:56:49Z</time>
      </trkpt>
      <trkpt lat="43.80562" lon="3.59807">
        <ele>276.52</ele>
        <time>2015-03-29T10:56:51Z</time>
      </trkpt>
      <trkpt lat="43.80547" lon="3.59804">
        <ele>277</ele>
        <time>2015-03-29T10:57:04Z</time>
      </trkpt>
      <trkpt lat="43.80542" lon="3.59802">
        <ele>277.48</ele>
        <time>2015-03-29T10:57:08Z</time>
      </trkpt>
      <trkpt lat="43.80522" lon="3.59795">
        <ele>279.4</ele>
        <time>2015-03-29T10:57:23Z</time>
      </trkpt>
      <trkpt lat="43.80509" lon="3.59795">
        <ele>281.32</ele>
        <time>2015-03-29T10:57:34Z</time>
      </trkpt>
      <trkpt lat="43.80507" lon="3.59794">
        <ele>281.8</ele>
        <time>2015-03-29T10:57:36Z</time>
      </trkpt>
      <trkpt lat="43.80496" lon="3.59791">
        <ele>284.69</ele>
        <time>2015-03-29T10:57:46Z</time>
      </trkpt>
      <trkpt lat="43.8049" lon="3.59791">
        <ele>288.05</ele>
        <time>2015-03-29T10:57:52Z</time>
      </trkpt>
      <trkpt lat="43.80486" lon="3.59791">
        <ele>291.42</ele>
        <time>2015-03-29T10:57:57Z</time>
      </trkpt>
      <trkpt lat="43.8048" lon="3.59789">
        <ele>290.94</ele>
        <time>2015-03-29T10:58:07Z</time>
      </trkpt>
      <trkpt lat="43.80474" lon="3.59795">
        <ele>289.97</ele>
        <time>2015-03-29T10:58:18Z</time>
      </trkpt>
      <trkpt lat="43.80473" lon="3.59802">
        <ele>289.49</ele>
        <time>2015-03-29T10:58:28Z</time>
      </trkpt>
      <trkpt lat="43.80473" lon="3.59808">
        <ele>291.42</ele>
        <time>2015-03-29T10:58:32Z</time>
      </trkpt>
      <trkpt lat="43.80472" lon="3.59815">
        <ele>295.26</ele>
        <time>2015-03-29T10:58:36Z</time>
      </trkpt>
      <trkpt lat="43.80471" lon="3.59821">
        <ele>293.34</ele>
        <time>2015-03-29T10:58:40Z</time>
      </trkpt>
      <trkpt lat="43.80466" lon="3.5984">
        <ele>295.26</ele>
        <time>2015-03-29T10:58:53Z</time>
      </trkpt>
      <trkpt lat="43.80465" lon="3.59851">
        <ele>295.26</ele>
        <time>2015-03-29T10:59:02Z</time>
      </trkpt>
      <trkpt lat="43.8046" lon="3.59869">
        <ele>294.78</ele>
        <time>2015-03-29T10:59:14Z</time>
      </trkpt>
      <trkpt lat="43.8046" lon="3.59891">
        <ele>296.7</ele>
        <time>2015-03-29T10:59:29Z</time>
      </trkpt>
      <trkpt lat="43.8046" lon="3.599">
        <ele>298.63</ele>
        <time>2015-03-29T10:59:35Z</time>
      </trkpt>
      <trkpt lat="43.80461" lon="3.59912">
        <ele>301.99</ele>
        <time>2015-03-29T10:59:47Z</time>
      </trkpt>
      <trkpt lat="43.80461" lon="3.59918">
        <ele>301.99</ele>
        <time>2015-03-29T10:59:52Z</time>
      </trkpt>
      <trkpt lat="43.80455" lon="3.59922">
        <ele>302.95</ele>
        <time>2015-03-29T11:00:05Z</time>
      </trkpt>
      <trkpt lat="43.80455" lon="3.59921">
        <ele>301.99</ele>
        <time>2015-03-29T11:00:06Z</time>
      </trkpt>
      <trkpt lat="43.80454" lon="3.59916">
        <ele>304.88</ele>
        <time>2015-03-29T11:00:09Z</time>
      </trkpt>
      <trkpt lat="43.80454" lon="3.59916">
        <ele>304.39</ele>
        <time>2015-03-29T11:00:10Z</time>
      </trkpt>
      <trkpt lat="43.80448" lon="3.59923">
        <ele>304.88</ele>
        <time>2015-03-29T11:00:24Z</time>
      </trkpt>
      <trkpt lat="43.80447" lon="3.5993">
        <ele>308.24</ele>
        <time>2015-03-29T11:00:30Z</time>
      </trkpt>
      <trkpt lat="43.80448" lon="3.59935">
        <ele>309.2</ele>
        <time>2015-03-29T11:00:33Z</time>
      </trkpt>
      <trkpt lat="43.80447" lon="3.59936">
        <ele>308.72</ele>
        <time>2015-03-29T11:00:34Z</time>
      </trkpt>
      <trkpt lat="43.80448" lon="3.5994">
        <ele>310.16</ele>
        <time>2015-03-29T11:00:37Z</time>
      </trkpt>
      <trkpt lat="43.80449" lon="3.59949">
        <ele>311.12</ele>
        <time>2015-03-29T11:00:44Z</time>
      </trkpt>
      <trkpt lat="43.80449" lon="3.59952">
        <ele>312.57</ele>
        <time>2015-03-29T11:00:46Z</time>
      </trkpt>
      <trkpt lat="43.80456" lon="3.59973">
        <ele>313.05</ele>
        <time>2015-03-29T11:01:01Z</time>
      </trkpt>
      <trkpt lat="43.80459" lon="3.59982">
        <ele>311.6</ele>
        <time>2015-03-29T11:01:07Z</time>
      </trkpt>
      <trkpt lat="43.80463" lon="3.59997">
        <ele>313.05</ele>
        <time>2015-03-29T11:01:16Z</time>
      </trkpt>
      <trkpt lat="43.80459" lon="3.59999">
        <ele>314.49</ele>
        <time>2015-03-29T11:01:20Z</time>
      </trkpt>
      <trkpt lat="43.80453" lon="3.59992">
        <ele>312.57</ele>
        <time>2015-03-29T11:01:28Z</time>
      </trkpt>
      <trkpt lat="43.80451" lon="3.59987">
        <ele>314.97</ele>
        <time>2015-03-29T11:01:33Z</time>
      </trkpt>
      <trkpt lat="43.80443" lon="3.59982">
        <ele>316.89</ele>
        <time>2015-03-29T11:01:42Z</time>
      </trkpt>
      <trkpt lat="43.80438" lon="3.59976">
        <ele>318.33</ele>
        <time>2015-03-29T11:01:49Z</time>
      </trkpt>
      <trkpt lat="43.80431" lon="3.59975">
        <ele>321.7</ele>
        <time>2015-03-29T11:02:04Z</time>
      </trkpt>
      <trkpt lat="43.80433" lon="3.59982">
        <ele>322.66</ele>
        <time>2015-03-29T11:02:12Z</time>
      </trkpt>
      <trkpt lat="43.80437" lon="3.59995">
        <ele>325.54</ele>
        <time>2015-03-29T11:02:22Z</time>
      </trkpt>
      <trkpt lat="43.80442" lon="3.60013">
        <ele>328.43</ele>
        <time>2015-03-29T11:02:35Z</time>
      </trkpt>
      <trkpt lat="43.80443" lon="3.60019">
        <ele>330.83</ele>
        <time>2015-03-29T11:02:39Z</time>
      </trkpt>
      <trkpt lat="43.80443" lon="3.60026">
        <ele>328.91</ele>
        <time>2015-03-29T11:02:43Z</time>
      </trkpt>
      <trkpt lat="43.80444" lon="3.60029">
        <ele>330.83</ele>
        <time>2015-03-29T11:02:46Z</time>
      </trkpt>
      <trkpt lat="43.80448" lon="3.60047">
        <ele>329.87</ele>
        <time>2015-03-29T11:02:59Z</time>
      </trkpt>
      <trkpt lat="43.80452" lon="3.60054">
        <ele>333.71</ele>
        <time>2015-03-29T11:03:07Z</time>
      </trkpt>
      <trkpt lat="43.80453" lon="3.60058">
        <ele>335.16</ele>
        <time>2015-03-29T11:03:10Z</time>
      </trkpt>
      <trkpt lat="43.80453" lon="3.60059">
        <ele>334.68</ele>
        <time>2015-03-29T11:03:11Z</time>
      </trkpt>
      <trkpt lat="43.80457" lon="3.60074">
        <ele>334.68</ele>
        <time>2015-03-29T11:03:22Z</time>
      </trkpt>
      <trkpt lat="43.80462" lon="3.60093">
        <ele>336.12</ele>
        <time>2015-03-29T11:03:34Z</time>
      </trkpt>
      <trkpt lat="43.80464" lon="3.60099">
        <ele>337.08</ele>
        <time>2015-03-29T11:03:38Z</time>
      </trkpt>
      <trkpt lat="43.80461" lon="3.60106">
        <ele>340.44</ele>
        <time>2015-03-29T11:03:44Z</time>
      </trkpt>
      <trkpt lat="43.80458" lon="3.60107">
        <ele>339.48</ele>
        <time>2015-03-29T11:03:47Z</time>
      </trkpt>
      <trkpt lat="43.80449" lon="3.6011">
        <ele>342.85</ele>
        <time>2015-03-29T11:03:56Z</time>
      </trkpt>
      <trkpt lat="43.80437" lon="3.60112">
        <ele>342.37</ele>
        <time>2015-03-29T11:04:07Z</time>
      </trkpt>
      <trkpt lat="43.80426" lon="3.60111">
        <ele>344.29</ele>
        <time>2015-03-29T11:04:19Z</time>
      </trkpt>
      <trkpt lat="43.80422" lon="3.60113">
        <ele>348.62</ele>
        <time>2015-03-29T11:04:24Z</time>
      </trkpt>
      <trkpt lat="43.80421" lon="3.60114">
        <ele>348.13</ele>
        <time>2015-03-29T11:04:25Z</time>
      </trkpt>
      <trkpt lat="43.80416" lon="3.60114">
        <ele>350.54</ele>
        <time>2015-03-29T11:04:31Z</time>
      </trkpt>
      <trkpt lat="43.80401" lon="3.60112">
        <ele>350.54</ele>
        <time>2015-03-29T11:04:43Z</time>
      </trkpt>
      <trkpt lat="43.80385" lon="3.60113">
        <ele>352.46</ele>
        <time>2015-03-29T11:04:57Z</time>
      </trkpt>
      <trkpt lat="43.80383" lon="3.60112">
        <ele>354.38</ele>
        <time>2015-03-29T11:05:00Z</time>
      </trkpt>
      <trkpt lat="43.80381" lon="3.60107">
        <ele>357.27</ele>
        <time>2015-03-29T11:05:08Z</time>
      </trkpt>
      <trkpt lat="43.80388" lon="3.60097">
        <ele>360.15</ele>
        <time>2015-03-29T11:05:21Z</time>
      </trkpt>
      <trkpt lat="43.8039" lon="3.60092">
        <ele>360.15</ele>
        <time>2015-03-29T11:05:27Z</time>
      </trkpt>
      <trkpt lat="43.80378" lon="3.60091">
        <ele>363.04</ele>
        <time>2015-03-29T11:05:42Z</time>
      </trkpt>
      <trkpt lat="43.80377" lon="3.60091">
        <ele>363.52</ele>
        <time>2015-03-29T11:05:43Z</time>
      </trkpt>
      <trkpt lat="43.80368" lon="3.6009">
        <ele>366.4</ele>
        <time>2015-03-29T11:05:54Z</time>
      </trkpt>
      <trkpt lat="43.80366" lon="3.6009">
        <ele>367.36</ele>
        <time>2015-03-29T11:05:56Z</time>
      </trkpt>
      <trkpt lat="43.80357" lon="3.60094">
        <ele>364.96</ele>
        <time>2015-03-29T11:06:12Z</time>
      </trkpt>
      <trkpt lat="43.80356" lon="3.60094">
        <ele>365.92</ele>
        <time>2015-03-29T11:06:15Z</time>
      </trkpt>
      <trkpt lat="43.80356" lon="3.60092">
        <ele>369.28</ele>
        <time>2015-03-29T11:06:21Z</time>
      </trkpt>
      <trkpt lat="43.80357" lon="3.60093">
        <ele>365.92</ele>
        <time>2015-03-29T11:06:29Z</time>
      </trkpt>
      <trkpt lat="43.80357" lon="3.60092">
        <ele>368.32</ele>
        <time>2015-03-29T11:06:33Z</time>
      </trkpt>
      <trkpt lat="43.80357" lon="3.60092">
        <ele>364.96</ele>
        <time>2015-03-29T11:06:35Z</time>
      </trkpt>
      <trkpt lat="43.80357" lon="3.60092">
        <ele>364.48</ele>
        <time>2015-03-29T11:06:37Z</time>
      </trkpt>
      <trkpt lat="43.80357" lon="3.60093">
        <ele>366.88</ele>
        <time>2015-03-29T11:06:47Z</time>
      </trkpt>
      <trkpt lat="43.80355" lon="3.60094">
        <ele>365.92</ele>
        <time>2015-03-29T11:07:06Z</time>
      </trkpt>
      <trkpt lat="43.80349" lon="3.60097">
        <ele>369.76</ele>
        <time>2015-03-29T11:07:20Z</time>
      </trkpt>
      <trkpt lat="43.80347" lon="3.60097">
        <ele>371.21</ele>
        <time>2015-03-29T11:07:23Z</time>
      </trkpt>
      <trkpt lat="43.80341" lon="3.60095">
        <ele>371.69</ele>
        <time>2015-03-29T11:07:35Z</time>
      </trkpt>
      <trkpt lat="43.80337" lon="3.60092">
        <ele>375.05</ele>
        <time>2015-03-29T11:07:43Z</time>
      </trkpt>
      <trkpt lat="43.80332" lon="3.60087">
        <ele>376.01</ele>
        <time>2015-03-29T11:07:51Z</time>
      </trkpt>
      <trkpt lat="43.80328" lon="3.6008">
        <ele>379.38</ele>
        <time>2015-03-29T11:07:59Z</time>
      </trkpt>
      <trkpt lat="43.80325" lon="3.6007">
        <ele>381.78</ele>
        <time>2015-03-29T11:08:11Z</time>
      </trkpt>
      <trkpt lat="43.80325" lon="3.6007">
        <ele>381.78</ele>
        <time>2015-03-29T11:08:12Z</time>
      </trkpt>
      <trkpt lat="43.80324" lon="3.60068">
        <ele>385.15</ele>
        <time>2015-03-29T11:08:16Z</time>
      </trkpt>
      <trkpt lat="43.80318" lon="3.60071">
        <ele>384.18</ele>
        <time>2015-03-29T11:08:28Z</time>
      </trkpt>
      <trkpt lat="43.80315" lon="3.60068">
        <ele>387.55</ele>
        <time>2015-03-29T11:08:33Z</time>
      </trkpt>
      <trkpt lat="43.80313" lon="3.60064">
        <ele>388.99</ele>
        <time>2015-03-29T11:08:37Z</time>
      </trkpt>
      <trkpt lat="43.8031" lon="3.60057">
        <ele>389.47</ele>
        <time>2015-03-29T11:08:48Z</time>
      </trkpt>
      <trkpt lat="43.80309" lon="3.60057">
        <ele>392.84</ele>
        <time>2015-03-29T11:08:53Z</time>
      </trkpt>
      <trkpt lat="43.80309" lon="3.60057">
        <ele>391.87</ele>
        <time>2015-03-29T11:08:54Z</time>
      </trkpt>
      <trkpt lat="43.80309" lon="3.60056">
        <ele>386.11</ele>
        <time>2015-03-29T11:08:56Z</time>
      </trkpt>
      <trkpt lat="43.80309" lon="3.60056">
        <ele>386.11</ele>
        <time>2015-03-29T11:08:57Z</time>
      </trkpt>
      <trkpt lat="43.80309" lon="3.60055">
        <ele>389.47</ele>
        <time>2015-03-29T11:08:59Z</time>
      </trkpt>
      <trkpt lat="43.80309" lon="3.60055">
        <ele>390.43</ele>
        <time>2015-03-29T11:09:01Z</time>
      </trkpt>
      <trkpt lat="43.80309" lon="3.60055">
        <ele>388.51</ele>
        <time>2015-03-29T11:09:03Z</time>
      </trkpt>
      <trkpt lat="43.80309" lon="3.60054">
        <ele>391.87</ele>
        <time>2015-03-29T11:09:07Z</time>
      </trkpt>
      <trkpt lat="43.80309" lon="3.60054">
        <ele>388.99</ele>
        <time>2015-03-29T11:09:10Z</time>
      </trkpt>
      <trkpt lat="43.80309" lon="3.60054">
        <ele>388.99</ele>
        <time>2015-03-29T11:09:17Z</time>
      </trkpt>
      <trkpt lat="43.80308" lon="3.60052">
        <ele>391.87</ele>
        <time>2015-03-29T11:09:30Z</time>
      </trkpt>
      <trkpt lat="43.80308" lon="3.60052">
        <ele>391.87</ele>
        <time>2015-03-29T11:09:31Z</time>
      </trkpt>
      <trkpt lat="43.80308" lon="3.60052">
        <ele>389.95</ele>
        <time>2015-03-29T11:09:37Z</time>
      </trkpt>
      <trkpt lat="43.80307" lon="3.60051">
        <ele>393.32</ele>
        <time>2015-03-29T11:09:50Z</time>
      </trkpt>
      <trkpt lat="43.80307" lon="3.60051">
        <ele>389.95</ele>
        <time>2015-03-29T11:09:56Z</time>
      </trkpt>
      <trkpt lat="43.80307" lon="3.60051">
        <ele>388.51</ele>
        <time>2015-03-29T11:09:58Z</time>
      </trkpt>
      <trkpt lat="43.80307" lon="3.60051">
        <ele>387.07</ele>
        <time>2015-03-29T11:10:11Z</time>
      </trkpt>
      <trkpt lat="43.80307" lon="3.60051">
        <ele>387.07</ele>
        <time>2015-03-29T11:10:15Z</time>
      </trkpt>
      <trkpt lat="43.80307" lon="3.60055">
        <ele>390.43</ele>
        <time>2015-03-29T11:10:19Z</time>
      </trkpt>
      <trkpt lat="43.80307" lon="3.60059">
        <ele>387.55</ele>
        <time>2015-03-29T11:10:23Z</time>
      </trkpt>
      <trkpt lat="43.80307" lon="3.60061">
        <ele>390.91</ele>
        <time>2015-03-29T11:10:25Z</time>
      </trkpt>
      <trkpt lat="43.80307" lon="3.60063">
        <ele>394.28</ele>
        <time>2015-03-29T11:10:27Z</time>
      </trkpt>
      <trkpt lat="43.80307" lon="3.60067">
        <ele>390.91</ele>
        <time>2015-03-29T11:10:30Z</time>
      </trkpt>
      <trkpt lat="43.80307" lon="3.60068">
        <ele>389.95</ele>
        <time>2015-03-29T11:10:31Z</time>
      </trkpt>
      <trkpt lat="43.80307" lon="3.60072">
        <ele>394.76</ele>
        <time>2015-03-29T11:10:34Z</time>
      </trkpt>
      <trkpt lat="43.80307" lon="3.60073">
        <ele>391.87</ele>
        <time>2015-03-29T11:10:35Z</time>
      </trkpt>
      <trkpt lat="43.80308" lon="3.60077">
        <ele>390.91</ele>
        <time>2015-03-29T11:10:37Z</time>
      </trkpt>
      <trkpt lat="43.80308" lon="3.60081">
        <ele>392.36</ele>
        <time>2015-03-29T11:10:39Z</time>
      </trkpt>
      <trkpt lat="43.80304" lon="3.60084">
        <ele>391.39</ele>
        <time>2015-03-29T11:10:42Z</time>
      </trkpt>
      <trkpt lat="43.80299" lon="3.60088">
        <ele>391.39</ele>
        <time>2015-03-29T11:10:46Z</time>
      </trkpt>
      <trkpt lat="43.80299" lon="3.60095">
        <ele>393.8</ele>
        <time>2015-03-29T11:10:50Z</time>
      </trkpt>
      <trkpt lat="43.80297" lon="3.60107">
        <ele>396.68</ele>
        <time>2015-03-29T11:10:57Z</time>
      </trkpt>
      <trkpt lat="43.80297" lon="3.60118">
        <ele>396.2</ele>
        <time>2015-03-29T11:11:04Z</time>
      </trkpt>
      <trkpt lat="43.80298" lon="3.60123">
        <ele>397.64</ele>
        <time>2015-03-29T11:11:07Z</time>
      </trkpt>
      <trkpt lat="43.80297" lon="3.60125">
        <ele>396.2</ele>
        <time>2015-03-29T11:11:09Z</time>
      </trkpt>
      <trkpt lat="43.80296" lon="3.60128">
        <ele>400.05</ele>
        <time>2015-03-29T11:11:12Z</time>
      </trkpt>
      <trkpt lat="43.80293" lon="3.60134">
        <ele>399.08</ele>
        <time>2015-03-29T11:11:16Z</time>
      </trkpt>
      <trkpt lat="43.80288" lon="3.60141">
        <ele>397.16</ele>
        <time>2015-03-29T11:11:22Z</time>
      </trkpt>
      <trkpt lat="43.80286" lon="3.60142">
        <ele>396.68</ele>
        <time>2015-03-29T11:11:23Z</time>
      </trkpt>
      <trkpt lat="43.80283" lon="3.60143">
        <ele>399.57</ele>
        <time>2015-03-29T11:11:25Z</time>
      </trkpt>
      <trkpt lat="43.80282" lon="3.60144">
        <ele>400.05</ele>
        <time>2015-03-29T11:11:26Z</time>
      </trkpt>
      <trkpt lat="43.80281" lon="3.60145">
        <ele>397.64</ele>
        <time>2015-03-29T11:11:27Z</time>
      </trkpt>
      <trkpt lat="43.80274" lon="3.60147">
        <ele>397.16</ele>
        <time>2015-03-29T11:11:34Z</time>
      </trkpt>
      <trkpt lat="43.80273" lon="3.60149">
        <ele>401.01</ele>
        <time>2015-03-29T11:11:36Z</time>
      </trkpt>
      <trkpt lat="43.80273" lon="3.60149">
        <ele>401.49</ele>
        <time>2015-03-29T11:11:37Z</time>
      </trkpt>
      <trkpt lat="43.80272" lon="3.6015">
        <ele>397.16</ele>
        <time>2015-03-29T11:11:38Z</time>
      </trkpt>
      <trkpt lat="43.80271" lon="3.60151">
        <ele>397.16</ele>
        <time>2015-03-29T11:11:39Z</time>
      </trkpt>
      <trkpt lat="43.80271" lon="3.60152">
        <ele>401.01</ele>
        <time>2015-03-29T11:11:40Z</time>
      </trkpt>
      <trkpt lat="43.80267" lon="3.60159">
        <ele>404.37</ele>
        <time>2015-03-29T11:11:49Z</time>
      </trkpt>
      <trkpt lat="43.80266" lon="3.60163">
        <ele>403.41</ele>
        <time>2015-03-29T11:11:53Z</time>
      </trkpt>
      <trkpt lat="43.80267" lon="3.60167">
        <ele>405.81</ele>
        <time>2015-03-29T11:11:56Z</time>
      </trkpt>
      <trkpt lat="43.80262" lon="3.60169">
        <ele>404.37</ele>
        <time>2015-03-29T11:12:02Z</time>
      </trkpt>
      <trkpt lat="43.80261" lon="3.60169">
        <ele>403.89</ele>
        <time>2015-03-29T11:12:03Z</time>
      </trkpt>
      <trkpt lat="43.80258" lon="3.60168">
        <ele>407.74</ele>
        <time>2015-03-29T11:12:06Z</time>
      </trkpt>
      <trkpt lat="43.80253" lon="3.60165">
        <ele>410.14</ele>
        <time>2015-03-29T11:12:12Z</time>
      </trkpt>
      <trkpt lat="43.80252" lon="3.60164">
        <ele>410.14</ele>
        <time>2015-03-29T11:12:13Z</time>
      </trkpt>
      <trkpt lat="43.8025" lon="3.6016">
        <ele>414.47</ele>
        <time>2015-03-29T11:12:16Z</time>
      </trkpt>
      <trkpt lat="43.8024" lon="3.60149">
        <ele>413.98</ele>
        <time>2015-03-29T11:12:29Z</time>
      </trkpt>
      <trkpt lat="43.80235" lon="3.60142">
        <ele>413.98</ele>
        <time>2015-03-29T11:12:44Z</time>
      </trkpt>
      <trkpt lat="43.80231" lon="3.60131">
        <ele>414.95</ele>
        <time>2015-03-29T11:12:56Z</time>
      </trkpt>
      <trkpt lat="43.80233" lon="3.60127">
        <ele>418.31</ele>
        <time>2015-03-29T11:12:59Z</time>
      </trkpt>
      <trkpt lat="43.80237" lon="3.60115">
        <ele>421.68</ele>
        <time>2015-03-29T11:13:14Z</time>
      </trkpt>
      <trkpt lat="43.80239" lon="3.60114">
        <ele>422.64</ele>
        <time>2015-03-29T11:13:16Z</time>
      </trkpt>
      <trkpt lat="43.80239" lon="3.60113">
        <ele>424.08</ele>
        <time>2015-03-29T11:13:18Z</time>
      </trkpt>
      <trkpt lat="43.80239" lon="3.60112">
        <ele>423.6</ele>
        <time>2015-03-29T11:13:19Z</time>
      </trkpt>
      <trkpt lat="43.8024" lon="3.6011">
        <ele>422.16</ele>
        <time>2015-03-29T11:13:21Z</time>
      </trkpt>
      <trkpt lat="43.80241" lon="3.60107">
        <ele>423.6</ele>
        <time>2015-03-29T11:13:24Z</time>
      </trkpt>
      <trkpt lat="43.80244" lon="3.60101">
        <ele>423.12</ele>
        <time>2015-03-29T11:13:30Z</time>
      </trkpt>
      <trkpt lat="43.80246" lon="3.60096">
        <ele>422.16</ele>
        <time>2015-03-29T11:13:33Z</time>
      </trkpt>
      <trkpt lat="43.80246" lon="3.60092">
        <ele>424.08</ele>
        <time>2015-03-29T11:13:36Z</time>
      </trkpt>
      <trkpt lat="43.80248" lon="3.60091">
        <ele>423.12</ele>
        <time>2015-03-29T11:13:40Z</time>
      </trkpt>
      <trkpt lat="43.80249" lon="3.60092">
        <ele>419.27</ele>
        <time>2015-03-29T11:13:50Z</time>
      </trkpt>
      <trkpt lat="43.80249" lon="3.60093">
        <ele>419.75</ele>
        <time>2015-03-29T11:13:51Z</time>
      </trkpt>
      <trkpt lat="43.8025" lon="3.60093">
        <ele>421.68</ele>
        <time>2015-03-29T11:13:57Z</time>
      </trkpt>
      <trkpt lat="43.8025" lon="3.60093">
        <ele>418.31</ele>
        <time>2015-03-29T11:14:02Z</time>
      </trkpt>
      <trkpt lat="43.8025" lon="3.60093">
        <ele>417.35</ele>
        <time>2015-03-29T11:14:04Z</time>
      </trkpt>
      <trkpt lat="43.8025" lon="3.60094">
        <ele>421.19</ele>
        <time>2015-03-29T11:14:21Z</time>
      </trkpt>
      <trkpt lat="43.8025" lon="3.60094">
        <ele>420.23</ele>
        <time>2015-03-29T11:14:22Z</time>
      </trkpt>
      <trkpt lat="43.8025" lon="3.60094">
        <ele>419.27</ele>
        <time>2015-03-29T11:14:24Z</time>
      </trkpt>
      <trkpt lat="43.8025" lon="3.60093">
        <ele>423.6</ele>
        <time>2015-03-29T11:14:38Z</time>
      </trkpt>
      <trkpt lat="43.8025" lon="3.60093">
        <ele>419.27</ele>
        <time>2015-03-29T11:14:41Z</time>
      </trkpt>
      <trkpt lat="43.8025" lon="3.60093">
        <ele>419.27</ele>
        <time>2015-03-29T11:14:42Z</time>
      </trkpt>
      <trkpt lat="43.8025" lon="3.60093">
        <ele>419.27</ele>
        <time>2015-03-29T11:15:08Z</time>
      </trkpt>
      <trkpt lat="43.80251" lon="3.60088">
        <ele>420.71</ele>
        <time>2015-03-29T11:15:16Z</time>
      </trkpt>
      <trkpt lat="43.80254" lon="3.60085">
        <ele>420.71</ele>
        <time>2015-03-29T11:15:19Z</time>
      </trkpt>
      <trkpt lat="43.80254" lon="3.6008">
        <ele>416.87</ele>
        <time>2015-03-29T11:15:22Z</time>
      </trkpt>
      <trkpt lat="43.80255" lon="3.60078">
        <ele>416.87</ele>
        <time>2015-03-29T11:15:23Z</time>
      </trkpt>
      <trkpt lat="43.80256" lon="3.60073">
        <ele>419.27</ele>
        <time>2015-03-29T11:15:26Z</time>
      </trkpt>
      <trkpt lat="43.80258" lon="3.60067">
        <ele>418.31</ele>
        <time>2015-03-29T11:15:33Z</time>
      </trkpt>
      <trkpt lat="43.80255" lon="3.60056">
        <ele>421.19</ele>
        <time>2015-03-29T11:15:42Z</time>
      </trkpt>
      <trkpt lat="43.80253" lon="3.60051">
        <ele>421.68</ele>
        <time>2015-03-29T11:15:47Z</time>
      </trkpt>
      <trkpt lat="43.80252" lon="3.60046">
        <ele>421.68</ele>
        <time>2015-03-29T11:15:51Z</time>
      </trkpt>
      <trkpt lat="43.80255" lon="3.60038">
        <ele>420.71</ele>
        <time>2015-03-29T11:15:58Z</time>
      </trkpt>
      <trkpt lat="43.80254" lon="3.60035">
        <ele>421.19</ele>
        <time>2015-03-29T11:16:02Z</time>
      </trkpt>
      <trkpt lat="43.80255" lon="3.6003">
        <ele>420.23</ele>
        <time>2015-03-29T11:16:05Z</time>
      </trkpt>
      <trkpt lat="43.80252" lon="3.60022">
        <ele>418.79</ele>
        <time>2015-03-29T11:16:15Z</time>
      </trkpt>
      <trkpt lat="43.80252" lon="3.60016">
        <ele>419.75</ele>
        <time>2015-03-29T11:16:20Z</time>
      </trkpt>
      <trkpt lat="43.80253" lon="3.59998">
        <ele>422.64</ele>
        <time>2015-03-29T11:16:33Z</time>
      </trkpt>
      <trkpt lat="43.80253" lon="3.59993">
        <ele>425.52</ele>
        <time>2015-03-29T11:16:38Z</time>
      </trkpt>
      <trkpt lat="43.80249" lon="3.59986">
        <ele>426.96</ele>
        <time>2015-03-29T11:16:51Z</time>
      </trkpt>
      <trkpt lat="43.80244" lon="3.59983">
        <ele>428.4</ele>
        <time>2015-03-29T11:17:02Z</time>
      </trkpt>
      <trkpt lat="43.80243" lon="3.5998">
        <ele>431.29</ele>
        <time>2015-03-29T11:17:04Z</time>
      </trkpt>
      <trkpt lat="43.80242" lon="3.59979">
        <ele>432.73</ele>
        <time>2015-03-29T11:17:06Z</time>
      </trkpt>
      <trkpt lat="43.80242" lon="3.59967">
        <ele>434.17</ele>
        <time>2015-03-29T11:17:20Z</time>
      </trkpt>
      <trkpt lat="43.80242" lon="3.59957">
        <ele>435.61</ele>
        <time>2015-03-29T11:17:32Z</time>
      </trkpt>
      <trkpt lat="43.80242" lon="3.59957">
        <ele>435.61</ele>
        <time>2015-03-29T11:17:33Z</time>
      </trkpt>
      <trkpt lat="43.80242" lon="3.59959">
        <ele>437.06</ele>
        <time>2015-03-29T11:17:36Z</time>
      </trkpt>
      <trkpt lat="43.80239" lon="3.59958">
        <ele>435.13</ele>
        <time>2015-03-29T11:17:41Z</time>
      </trkpt>
      <trkpt lat="43.80241" lon="3.59953">
        <ele>438.98</ele>
        <time>2015-03-29T11:17:47Z</time>
      </trkpt>
      <trkpt lat="43.8024" lon="3.59949">
        <ele>440.9</ele>
        <time>2015-03-29T11:18:01Z</time>
      </trkpt>
      <trkpt lat="43.80239" lon="3.59948">
        <ele>440.42</ele>
        <time>2015-03-29T11:18:02Z</time>
      </trkpt>
      <trkpt lat="43.80237" lon="3.59946">
        <ele>439.46</ele>
        <time>2015-03-29T11:18:07Z</time>
      </trkpt>
      <trkpt lat="43.80232" lon="3.59944">
        <ele>438.5</ele>
        <time>2015-03-29T11:18:13Z</time>
      </trkpt>
      <trkpt lat="43.80228" lon="3.59933">
        <ele>435.61</ele>
        <time>2015-03-29T11:18:20Z</time>
      </trkpt>
      <trkpt lat="43.80228" lon="3.59926">
        <ele>435.61</ele>
        <time>2015-03-29T11:18:25Z</time>
      </trkpt>
      <trkpt lat="43.80227" lon="3.59916">
        <ele>440.42</ele>
        <time>2015-03-29T11:18:31Z</time>
      </trkpt>
      <trkpt lat="43.80227" lon="3.59915">
        <ele>438.5</ele>
        <time>2015-03-29T11:18:32Z</time>
      </trkpt>
      <trkpt lat="43.80228" lon="3.59909">
        <ele>439.46</ele>
        <time>2015-03-29T11:18:40Z</time>
      </trkpt>
      <trkpt lat="43.80228" lon="3.59904">
        <ele>442.82</ele>
        <time>2015-03-29T11:18:44Z</time>
      </trkpt>
      <trkpt lat="43.80228" lon="3.59902">
        <ele>439.46</ele>
        <time>2015-03-29T11:18:46Z</time>
      </trkpt>
      <trkpt lat="43.80227" lon="3.59901">
        <ele>438.98</ele>
        <time>2015-03-29T11:18:47Z</time>
      </trkpt>
      <trkpt lat="43.80226" lon="3.59899">
        <ele>443.31</ele>
        <time>2015-03-29T11:18:50Z</time>
      </trkpt>
      <trkpt lat="43.80226" lon="3.59898">
        <ele>442.82</ele>
        <time>2015-03-29T11:18:51Z</time>
      </trkpt>
      <trkpt lat="43.80225" lon="3.59896">
        <ele>438.5</ele>
        <time>2015-03-29T11:18:53Z</time>
      </trkpt>
      <trkpt lat="43.80224" lon="3.59896">
        <ele>441.86</ele>
        <time>2015-03-29T11:18:54Z</time>
      </trkpt>
      <trkpt lat="43.80223" lon="3.59896">
        <ele>441.86</ele>
        <time>2015-03-29T11:18:55Z</time>
      </trkpt>
      <trkpt lat="43.80223" lon="3.59895">
        <ele>442.34</ele>
        <time>2015-03-29T11:18:56Z</time>
      </trkpt>
      <trkpt lat="43.80221" lon="3.59893">
        <ele>443.31</ele>
        <time>2015-03-29T11:18:58Z</time>
      </trkpt>
      <trkpt lat="43.80221" lon="3.59889">
        <ele>439.94</ele>
        <time>2015-03-29T11:19:00Z</time>
      </trkpt>
      <trkpt lat="43.80221" lon="3.59885">
        <ele>443.79</ele>
        <time>2015-03-29T11:19:03Z</time>
      </trkpt>
      <trkpt lat="43.80221" lon="3.59883">
        <ele>442.34</ele>
        <time>2015-03-29T11:19:04Z</time>
      </trkpt>
      <trkpt lat="43.80219" lon="3.59876">
        <ele>434.65</ele>
        <time>2015-03-29T11:19:09Z</time>
      </trkpt>
      <trkpt lat="43.80218" lon="3.59874">
        <ele>431.29</ele>
        <time>2015-03-29T11:19:11Z</time>
      </trkpt>
      <trkpt lat="43.80216" lon="3.59874">
        <ele>434.17</ele>
        <time>2015-03-29T11:19:14Z</time>
      </trkpt>
      <trkpt lat="43.80214" lon="3.59872">
        <ele>434.65</ele>
        <time>2015-03-29T11:19:17Z</time>
      </trkpt>
      <trkpt lat="43.8021" lon="3.59866">
        <ele>429.85</ele>
        <time>2015-03-29T11:19:23Z</time>
      </trkpt>
      <trkpt lat="43.80209" lon="3.59864">
        <ele>431.29</ele>
        <time>2015-03-29T11:19:24Z</time>
      </trkpt>
      <trkpt lat="43.80209" lon="3.59863">
        <ele>429.85</ele>
        <time>2015-03-29T11:19:25Z</time>
      </trkpt>
      <trkpt lat="43.80208" lon="3.59853">
        <ele>430.33</ele>
        <time>2015-03-29T11:19:32Z</time>
      </trkpt>
      <trkpt lat="43.80211" lon="3.59846">
        <ele>426.48</ele>
        <time>2015-03-29T11:19:36Z</time>
      </trkpt>
      <trkpt lat="43.8021" lon="3.59841">
        <ele>427.44</ele>
        <time>2015-03-29T11:19:40Z</time>
      </trkpt>
      <trkpt lat="43.8021" lon="3.59838">
        <ele>427.92</ele>
        <time>2015-03-29T11:19:43Z</time>
      </trkpt>
      <trkpt lat="43.80212" lon="3.59831">
        <ele>432.25</ele>
        <time>2015-03-29T11:19:48Z</time>
      </trkpt>
      <trkpt lat="43.80215" lon="3.59826">
        <ele>428.89</ele>
        <time>2015-03-29T11:19:52Z</time>
      </trkpt>
      <trkpt lat="43.80217" lon="3.59819">
        <ele>427.44</ele>
        <time>2015-03-29T11:19:58Z</time>
      </trkpt>
      <trkpt lat="43.80213" lon="3.59809">
        <ele>427.44</ele>
        <time>2015-03-29T11:20:11Z</time>
      </trkpt>
      <trkpt lat="43.80209" lon="3.59806">
        <ele>427.92</ele>
        <time>2015-03-29T11:20:16Z</time>
      </trkpt>
      <trkpt lat="43.80206" lon="3.59804">
        <ele>428.89</ele>
        <time>2015-03-29T11:20:19Z</time>
      </trkpt>
      <trkpt lat="43.80204" lon="3.59797">
        <ele>430.81</ele>
        <time>2015-03-29T11:20:26Z</time>
      </trkpt>
      <trkpt lat="43.80203" lon="3.59794">
        <ele>431.29</ele>
        <time>2015-03-29T11:20:28Z</time>
      </trkpt>
      <trkpt lat="43.80202" lon="3.59789">
        <ele>434.17</ele>
        <time>2015-03-29T11:20:32Z</time>
      </trkpt>
      <trkpt lat="43.80202" lon="3.5978">
        <ele>435.13</ele>
        <time>2015-03-29T11:20:43Z</time>
      </trkpt>
      <trkpt lat="43.80201" lon="3.5978">
        <ele>437.54</ele>
        <time>2015-03-29T11:20:45Z</time>
      </trkpt>
      <trkpt lat="43.80199" lon="3.59779">
        <ele>433.69</ele>
        <time>2015-03-29T11:20:48Z</time>
      </trkpt>
      <trkpt lat="43.80199" lon="3.59778">
        <ele>433.69</ele>
        <time>2015-03-29T11:20:49Z</time>
      </trkpt>
      <trkpt lat="43.80198" lon="3.59777">
        <ele>430.81</ele>
        <time>2015-03-29T11:20:51Z</time>
      </trkpt>
      <trkpt lat="43.80198" lon="3.59776">
        <ele>431.29</ele>
        <time>2015-03-29T11:20:52Z</time>
      </trkpt>
      <trkpt lat="43.80197" lon="3.59773">
        <ele>432.25</ele>
        <time>2015-03-29T11:20:54Z</time>
      </trkpt>
      <trkpt lat="43.80196" lon="3.5976">
        <ele>435.13</ele>
        <time>2015-03-29T11:21:06Z</time>
      </trkpt>
      <trkpt lat="43.80196" lon="3.59758">
        <ele>431.29</ele>
        <time>2015-03-29T11:21:08Z</time>
      </trkpt>
      <trkpt lat="43.80196" lon="3.59749">
        <ele>431.29</ele>
        <time>2015-03-29T11:21:15Z</time>
      </trkpt>
      <trkpt lat="43.80194" lon="3.59742">
        <ele>433.21</ele>
        <time>2015-03-29T11:21:27Z</time>
      </trkpt>
      <trkpt lat="43.80194" lon="3.59741">
        <ele>434.17</ele>
        <time>2015-03-29T11:21:28Z</time>
      </trkpt>
      <trkpt lat="43.80193" lon="3.59734">
        <ele>435.61</ele>
        <time>2015-03-29T11:21:33Z</time>
      </trkpt>
      <trkpt lat="43.80193" lon="3.59728">
        <ele>437.54</ele>
        <time>2015-03-29T11:21:39Z</time>
      </trkpt>
      <trkpt lat="43.80188" lon="3.59724">
        <ele>438.5</ele>
        <time>2015-03-29T11:21:50Z</time>
      </trkpt>
      <trkpt lat="43.80185" lon="3.59725">
        <ele>438.02</ele>
        <time>2015-03-29T11:21:54Z</time>
      </trkpt>
      <trkpt lat="43.80179" lon="3.59721">
        <ele>438.5</ele>
        <time>2015-03-29T11:21:59Z</time>
      </trkpt>
      <trkpt lat="43.80177" lon="3.59718">
        <ele>438.98</ele>
        <time>2015-03-29T11:22:02Z</time>
      </trkpt>
      <trkpt lat="43.8017" lon="3.59722">
        <ele>443.31</ele>
        <time>2015-03-29T11:22:10Z</time>
      </trkpt>
      <trkpt lat="43.80169" lon="3.59722">
        <ele>442.82</ele>
        <time>2015-03-29T11:22:11Z</time>
      </trkpt>
      <trkpt lat="43.80167" lon="3.59724">
        <ele>441.38</ele>
        <time>2015-03-29T11:22:15Z</time>
      </trkpt>
      <trkpt lat="43.80159" lon="3.59735">
        <ele>441.86</ele>
        <time>2015-03-29T11:22:24Z</time>
      </trkpt>
      <trkpt lat="43.80155" lon="3.59741">
        <ele>441.86</ele>
        <time>2015-03-29T11:22:32Z</time>
      </trkpt>
      <trkpt lat="43.80151" lon="3.59745">
        <ele>439.46</ele>
        <time>2015-03-29T11:22:37Z</time>
      </trkpt>
      <trkpt lat="43.80149" lon="3.59748">
        <ele>439.94</ele>
        <time>2015-03-29T11:22:39Z</time>
      </trkpt>
      <trkpt lat="43.80137" lon="3.59749">
        <ele>438.98</ele>
        <time>2015-03-29T11:22:50Z</time>
      </trkpt>
      <trkpt lat="43.80127" lon="3.59753">
        <ele>435.13</ele>
        <time>2015-03-29T11:23:01Z</time>
      </trkpt>
      <trkpt lat="43.80125" lon="3.59753">
        <ele>443.31</ele>
        <time>2015-03-29T11:23:04Z</time>
      </trkpt>
      <trkpt lat="43.80124" lon="3.59753">
        <ele>442.34</ele>
        <time>2015-03-29T11:23:05Z</time>
      </trkpt>
      <trkpt lat="43.80123" lon="3.59754">
        <ele>441.38</ele>
        <time>2015-03-29T11:23:07Z</time>
      </trkpt>
      <trkpt lat="43.80118" lon="3.59754">
        <ele>445.23</ele>
        <time>2015-03-29T11:23:15Z</time>
      </trkpt>
      <trkpt lat="43.80117" lon="3.59754">
        <ele>444.75</ele>
        <time>2015-03-29T11:23:16Z</time>
      </trkpt>
      <trkpt lat="43.80116" lon="3.59755">
        <ele>444.75</ele>
        <time>2015-03-29T11:23:18Z</time>
      </trkpt>
      <trkpt lat="43.80109" lon="3.59754">
        <ele>445.23</ele>
        <time>2015-03-29T11:23:25Z</time>
      </trkpt>
      <trkpt lat="43.80106" lon="3.59755">
        <ele>446.67</ele>
        <time>2015-03-29T11:23:29Z</time>
      </trkpt>
      <trkpt lat="43.80101" lon="3.59756">
        <ele>449.07</ele>
        <time>2015-03-29T11:23:35Z</time>
      </trkpt>
      <trkpt lat="43.80091" lon="3.59759">
        <ele>447.63</ele>
        <time>2015-03-29T11:23:47Z</time>
      </trkpt>
      <trkpt lat="43.80085" lon="3.59761">
        <ele>448.59</ele>
        <time>2015-03-29T11:23:54Z</time>
      </trkpt>
      <trkpt lat="43.80078" lon="3.59771">
        <ele>450.52</ele>
        <time>2015-03-29T11:24:05Z</time>
      </trkpt>
      <trkpt lat="43.80064" lon="3.59779">
        <ele>451</ele>
        <time>2015-03-29T11:24:17Z</time>
      </trkpt>
      <trkpt lat="43.80062" lon="3.59779">
        <ele>451.96</ele>
        <time>2015-03-29T11:24:21Z</time>
      </trkpt>
      <trkpt lat="43.80058" lon="3.5978">
        <ele>452.44</ele>
        <time>2015-03-29T11:24:25Z</time>
      </trkpt>
      <trkpt lat="43.80053" lon="3.59779">
        <ele>450.52</ele>
        <time>2015-03-29T11:24:29Z</time>
      </trkpt>
      <trkpt lat="43.80051" lon="3.5978">
        <ele>451.48</ele>
        <time>2015-03-29T11:24:31Z</time>
      </trkpt>
      <trkpt lat="43.80049" lon="3.5978">
        <ele>451.48</ele>
        <time>2015-03-29T11:24:32Z</time>
      </trkpt>
      <trkpt lat="43.80037" lon="3.59774">
        <ele>451.48</ele>
        <time>2015-03-29T11:24:45Z</time>
      </trkpt>
      <trkpt lat="43.80036" lon="3.59774">
        <ele>451.48</ele>
        <time>2015-03-29T11:24:46Z</time>
      </trkpt>
      <trkpt lat="43.80034" lon="3.59774">
        <ele>452.92</ele>
        <time>2015-03-29T11:24:48Z</time>
      </trkpt>
      <trkpt lat="43.80031" lon="3.59774">
        <ele>452.44</ele>
        <time>2015-03-29T11:24:51Z</time>
      </trkpt>
      <trkpt lat="43.80026" lon="3.59775">
        <ele>454.84</ele>
        <time>2015-03-29T11:24:56Z</time>
      </trkpt>
      <trkpt lat="43.80024" lon="3.59775">
        <ele>454.36</ele>
        <time>2015-03-29T11:24:59Z</time>
      </trkpt>
      <trkpt lat="43.80015" lon="3.59777">
        <ele>455.8</ele>
        <time>2015-03-29T11:25:06Z</time>
      </trkpt>
      <trkpt lat="43.80015" lon="3.59774">
        <ele>456.28</ele>
        <time>2015-03-29T11:25:10Z</time>
      </trkpt>
      <trkpt lat="43.80016" lon="3.59764">
        <ele>454.84</ele>
        <time>2015-03-29T11:25:17Z</time>
      </trkpt>
      <trkpt lat="43.80015" lon="3.59752">
        <ele>453.88</ele>
        <time>2015-03-29T11:25:30Z</time>
      </trkpt>
      <trkpt lat="43.80014" lon="3.59752">
        <ele>457.24</ele>
        <time>2015-03-29T11:25:33Z</time>
      </trkpt>
      <trkpt lat="43.80013" lon="3.59751">
        <ele>457.72</ele>
        <time>2015-03-29T11:25:34Z</time>
      </trkpt>
      <trkpt lat="43.80011" lon="3.59749">
        <ele>455.8</ele>
        <time>2015-03-29T11:25:38Z</time>
      </trkpt>
      <trkpt lat="43.80011" lon="3.59749">
        <ele>457.72</ele>
        <time>2015-03-29T11:25:52Z</time>
      </trkpt>
      <trkpt lat="43.80011" lon="3.59749">
        <ele>454.36</ele>
        <time>2015-03-29T11:26:07Z</time>
      </trkpt>
      <trkpt lat="43.80011" lon="3.59749">
        <ele>457.72</ele>
        <time>2015-03-29T11:26:10Z</time>
      </trkpt>
      <trkpt lat="43.80011" lon="3.5975">
        <ele>456.28</ele>
        <time>2015-03-29T11:26:34Z</time>
      </trkpt>
      <trkpt lat="43.80011" lon="3.5975">
        <ele>456.76</ele>
        <time>2015-03-29T11:26:40Z</time>
      </trkpt>
      <trkpt lat="43.80011" lon="3.5975">
        <ele>457.24</ele>
        <time>2015-03-29T11:26:47Z</time>
      </trkpt>
      <trkpt lat="43.80011" lon="3.5975">
        <ele>457.72</ele>
        <time>2015-03-29T11:27:01Z</time>
      </trkpt>
      <trkpt lat="43.80011" lon="3.5975">
        <ele>454.84</ele>
        <time>2015-03-29T11:27:27Z</time>
      </trkpt>
      <trkpt lat="43.8001" lon="3.59749">
        <ele>453.88</ele>
        <time>2015-03-29T11:27:46Z</time>
      </trkpt>
      <trkpt lat="43.8001" lon="3.59749">
        <ele>456.28</ele>
        <time>2015-03-29T11:27:50Z</time>
      </trkpt>
      <trkpt lat="43.8001" lon="3.59749">
        <ele>451.48</ele>
        <time>2015-03-29T11:27:59Z</time>
      </trkpt>
      <trkpt lat="43.8001" lon="3.59749">
        <ele>457.24</ele>
        <time>2015-03-29T11:28:00Z</time>
      </trkpt>
      <trkpt lat="43.8001" lon="3.59749">
        <ele>456.76</ele>
        <time>2015-03-29T11:28:01Z</time>
      </trkpt>
      <trkpt lat="43.8001" lon="3.59749">
        <ele>455.8</ele>
        <time>2015-03-29T11:28:03Z</time>
      </trkpt>
      <trkpt lat="43.8001" lon="3.59749">
        <ele>458.21</ele>
        <time>2015-03-29T11:28:16Z</time>
      </trkpt>
      <trkpt lat="43.8001" lon="3.59749">
        <ele>459.17</ele>
        <time>2015-03-29T11:28:21Z</time>
      </trkpt>
      <trkpt lat="43.8001" lon="3.59749">
        <ele>454.84</ele>
        <time>2015-03-29T11:28:24Z</time>
      </trkpt>
      <trkpt lat="43.8001" lon="3.59749">
        <ele>455.8</ele>
        <time>2015-03-29T11:28:35Z</time>
      </trkpt>
      <trkpt lat="43.8001" lon="3.59749">
        <ele>457.24</ele>
        <time>2015-03-29T11:28:43Z</time>
      </trkpt>
      <trkpt lat="43.8001" lon="3.59748">
        <ele>461.09</ele>
        <time>2015-03-29T11:28:53Z</time>
      </trkpt>
      <trkpt lat="43.8001" lon="3.59748">
        <ele>461.57</ele>
        <time>2015-03-29T11:28:55Z</time>
      </trkpt>
      <trkpt lat="43.80005" lon="3.59744">
        <ele>461.57</ele>
        <time>2015-03-29T11:29:01Z</time>
      </trkpt>
      <trkpt lat="43.8" lon="3.59742">
        <ele>463.49</ele>
        <time>2015-03-29T11:29:06Z</time>
      </trkpt>
      <trkpt lat="43.79996" lon="3.59741">
        <ele>463.97</ele>
        <time>2015-03-29T11:29:10Z</time>
      </trkpt>
      <trkpt lat="43.79993" lon="3.59743">
        <ele>469.26</ele>
        <time>2015-03-29T11:29:14Z</time>
      </trkpt>
      <trkpt lat="43.7999" lon="3.59743">
        <ele>472.14</ele>
        <time>2015-03-29T11:29:18Z</time>
      </trkpt>
      <trkpt lat="43.79988" lon="3.59744">
        <ele>469.74</ele>
        <time>2015-03-29T11:29:20Z</time>
      </trkpt>
      <trkpt lat="43.79983" lon="3.59744">
        <ele>475.03</ele>
        <time>2015-03-29T11:29:26Z</time>
      </trkpt>
      <trkpt lat="43.79982" lon="3.59743">
        <ele>477.43</ele>
        <time>2015-03-29T11:29:28Z</time>
      </trkpt>
      <trkpt lat="43.79981" lon="3.59742">
        <ele>478.87</ele>
        <time>2015-03-29T11:29:30Z</time>
      </trkpt>
      <trkpt lat="43.7998" lon="3.59741">
        <ele>475.99</ele>
        <time>2015-03-29T11:29:32Z</time>
      </trkpt>
      <trkpt lat="43.79979" lon="3.59741">
        <ele>476.47</ele>
        <time>2015-03-29T11:29:33Z</time>
      </trkpt>
      <trkpt lat="43.79978" lon="3.5974">
        <ele>474.07</ele>
        <time>2015-03-29T11:29:35Z</time>
      </trkpt>
      <trkpt lat="43.79975" lon="3.59738">
        <ele>472.14</ele>
        <time>2015-03-29T11:29:40Z</time>
      </trkpt>
      <trkpt lat="43.79973" lon="3.59737">
        <ele>475.03</ele>
        <time>2015-03-29T11:29:44Z</time>
      </trkpt>
      <trkpt lat="43.79971" lon="3.59735">
        <ele>471.66</ele>
        <time>2015-03-29T11:29:46Z</time>
      </trkpt>
      <trkpt lat="43.79969" lon="3.59734">
        <ele>470.22</ele>
        <time>2015-03-29T11:29:48Z</time>
      </trkpt>
      <trkpt lat="43.79965" lon="3.59732">
        <ele>470.22</ele>
        <time>2015-03-29T11:29:54Z</time>
      </trkpt>
      <trkpt lat="43.79962" lon="3.5973">
        <ele>475.03</ele>
        <time>2015-03-29T11:29:58Z</time>
      </trkpt>
      <trkpt lat="43.79958" lon="3.59729">
        <ele>475.03</ele>
        <time>2015-03-29T11:30:02Z</time>
      </trkpt>
      <trkpt lat="43.79954" lon="3.59729">
        <ele>478.39</ele>
        <time>2015-03-29T11:30:09Z</time>
      </trkpt>
      <trkpt lat="43.79953" lon="3.5973">
        <ele>479.35</ele>
        <time>2015-03-29T11:30:11Z</time>
      </trkpt>
      <trkpt lat="43.79952" lon="3.59731">
        <ele>482.72</ele>
        <time>2015-03-29T11:30:14Z</time>
      </trkpt>
      <trkpt lat="43.79951" lon="3.5973">
        <ele>483.68</ele>
        <time>2015-03-29T11:30:16Z</time>
      </trkpt>
      <trkpt lat="43.79949" lon="3.5973">
        <ele>480.8</ele>
        <time>2015-03-29T11:30:21Z</time>
      </trkpt>
      <trkpt lat="43.79949" lon="3.5973">
        <ele>484.16</ele>
        <time>2015-03-29T11:30:25Z</time>
      </trkpt>
      <trkpt lat="43.79944" lon="3.59728">
        <ele>485.12</ele>
        <time>2015-03-29T11:30:38Z</time>
      </trkpt>
      <trkpt lat="43.79941" lon="3.59725">
        <ele>483.68</ele>
        <time>2015-03-29T11:30:41Z</time>
      </trkpt>
      <trkpt lat="43.79934" lon="3.59722">
        <ele>487.05</ele>
        <time>2015-03-29T11:30:50Z</time>
      </trkpt>
      <trkpt lat="43.7993" lon="3.59724">
        <ele>490.41</ele>
        <time>2015-03-29T11:30:55Z</time>
      </trkpt>
      <trkpt lat="43.79928" lon="3.59724">
        <ele>492.81</ele>
        <time>2015-03-29T11:30:58Z</time>
      </trkpt>
      <trkpt lat="43.79923" lon="3.59722">
        <ele>496.66</ele>
        <time>2015-03-29T11:31:04Z</time>
      </trkpt>
      <trkpt lat="43.7992" lon="3.59722">
        <ele>498.1</ele>
        <time>2015-03-29T11:31:06Z</time>
      </trkpt>
      <trkpt lat="43.79914" lon="3.5972">
        <ele>496.66</ele>
        <time>2015-03-29T11:31:20Z</time>
      </trkpt>
      <trkpt lat="43.79913" lon="3.5972">
        <ele>500.5</ele>
        <time>2015-03-29T11:31:21Z</time>
      </trkpt>
      <trkpt lat="43.7991" lon="3.59719">
        <ele>497.62</ele>
        <time>2015-03-29T11:31:25Z</time>
      </trkpt>
      <trkpt lat="43.79906" lon="3.59718">
        <ele>494.74</ele>
        <time>2015-03-29T11:31:29Z</time>
      </trkpt>
      <trkpt lat="43.79899" lon="3.59716">
        <ele>497.62</ele>
        <time>2015-03-29T11:31:36Z</time>
      </trkpt>
      <trkpt lat="43.79898" lon="3.59717">
        <ele>496.66</ele>
        <time>2015-03-29T11:31:40Z</time>
      </trkpt>
      <trkpt lat="43.79898" lon="3.59718">
        <ele>493.29</ele>
        <time>2015-03-29T11:31:42Z</time>
      </trkpt>
      <trkpt lat="43.79898" lon="3.59721">
        <ele>497.62</ele>
        <time>2015-03-29T11:31:45Z</time>
      </trkpt>
      <trkpt lat="43.79898" lon="3.59723">
        <ele>497.14</ele>
        <time>2015-03-29T11:31:46Z</time>
      </trkpt>
      <trkpt lat="43.79897" lon="3.59723">
        <ele>499.06</ele>
        <time>2015-03-29T11:31:50Z</time>
      </trkpt>
      <trkpt lat="43.79897" lon="3.59718">
        <ele>497.14</ele>
        <time>2015-03-29T11:31:54Z</time>
      </trkpt>
      <trkpt lat="43.79895" lon="3.59711">
        <ele>503.87</ele>
        <time>2015-03-29T11:32:02Z</time>
      </trkpt>
      <trkpt lat="43.79895" lon="3.59711">
        <ele>497.62</ele>
        <time>2015-03-29T11:32:05Z</time>
      </trkpt>
      <trkpt lat="43.79895" lon="3.59709">
        <ele>497.14</ele>
        <time>2015-03-29T11:32:07Z</time>
      </trkpt>
      <trkpt lat="43.79893" lon="3.59707">
        <ele>499.06</ele>
        <time>2015-03-29T11:32:09Z</time>
      </trkpt>
      <trkpt lat="43.79886" lon="3.59695">
        <ele>497.14</ele>
        <time>2015-03-29T11:32:19Z</time>
      </trkpt>
      <trkpt lat="43.79884" lon="3.59691">
        <ele>499.54</ele>
        <time>2015-03-29T11:32:22Z</time>
      </trkpt>
      <trkpt lat="43.79884" lon="3.59689">
        <ele>498.1</ele>
        <time>2015-03-29T11:32:24Z</time>
      </trkpt>
      <trkpt lat="43.79884" lon="3.59687">
        <ele>498.1</ele>
        <time>2015-03-29T11:32:25Z</time>
      </trkpt>
      <trkpt lat="43.79883" lon="3.5968">
        <ele>497.62</ele>
        <time>2015-03-29T11:32:31Z</time>
      </trkpt>
      <trkpt lat="43.79884" lon="3.59677">
        <ele>497.62</ele>
        <time>2015-03-29T11:32:33Z</time>
      </trkpt>
      <trkpt lat="43.7988" lon="3.59668">
        <ele>500.02</ele>
        <time>2015-03-29T11:32:41Z</time>
      </trkpt>
      <trkpt lat="43.79884" lon="3.59657">
        <ele>501.46</ele>
        <time>2015-03-29T11:32:51Z</time>
      </trkpt>
      <trkpt lat="43.79885" lon="3.59644">
        <ele>504.83</ele>
        <time>2015-03-29T11:33:00Z</time>
      </trkpt>
      <trkpt lat="43.79884" lon="3.59642">
        <ele>504.83</ele>
        <time>2015-03-29T11:33:06Z</time>
      </trkpt>
      <trkpt lat="43.79878" lon="3.59635">
        <ele>505.31</ele>
        <time>2015-03-29T11:33:18Z</time>
      </trkpt>
      <trkpt lat="43.79875" lon="3.59633">
        <ele>508.19</ele>
        <time>2015-03-29T11:33:23Z</time>
      </trkpt>
      <trkpt lat="43.79874" lon="3.59634">
        <ele>509.64</ele>
        <time>2015-03-29T11:33:27Z</time>
      </trkpt>
      <trkpt lat="43.79872" lon="3.59633">
        <ele>510.12</ele>
        <time>2015-03-29T11:33:37Z</time>
      </trkpt>
      <trkpt lat="43.79867" lon="3.59629">
        <ele>513.48</ele>
        <time>2015-03-29T11:33:49Z</time>
      </trkpt>
      <trkpt lat="43.79864" lon="3.59625">
        <ele>513</ele>
        <time>2015-03-29T11:33:53Z</time>
      </trkpt>
      <trkpt lat="43.79863" lon="3.59618">
        <ele>515.88</ele>
        <time>2015-03-29T11:33:57Z</time>
      </trkpt>
      <trkpt lat="43.79863" lon="3.59615">
        <ele>513.96</ele>
        <time>2015-03-29T11:34:00Z</time>
      </trkpt>
      <trkpt lat="43.79863" lon="3.59607">
        <ele>517.33</ele>
        <time>2015-03-29T11:34:08Z</time>
      </trkpt>
      <trkpt lat="43.79861" lon="3.59598">
        <ele>519.25</ele>
        <time>2015-03-29T11:34:15Z</time>
      </trkpt>
      <trkpt lat="43.79854" lon="3.59588">
        <ele>522.13</ele>
        <time>2015-03-29T11:34:27Z</time>
      </trkpt>
      <trkpt lat="43.79849" lon="3.59579">
        <ele>520.21</ele>
        <time>2015-03-29T11:34:38Z</time>
      </trkpt>
      <trkpt lat="43.79849" lon="3.59578">
        <ele>522.13</ele>
        <time>2015-03-29T11:34:40Z</time>
      </trkpt>
      <trkpt lat="43.79849" lon="3.59576">
        <ele>525.02</ele>
        <time>2015-03-29T11:34:43Z</time>
      </trkpt>
      <trkpt lat="43.79849" lon="3.59567">
        <ele>522.13</ele>
        <time>2015-03-29T11:34:54Z</time>
      </trkpt>
      <trkpt lat="43.79849" lon="3.59565">
        <ele>524.06</ele>
        <time>2015-03-29T11:34:57Z</time>
      </trkpt>
      <trkpt lat="43.79846" lon="3.5956">
        <ele>526.46</ele>
        <time>2015-03-29T11:35:03Z</time>
      </trkpt>
      <trkpt lat="43.79841" lon="3.59551">
        <ele>526.94</ele>
        <time>2015-03-29T11:35:12Z</time>
      </trkpt>
      <trkpt lat="43.79838" lon="3.59539">
        <ele>529.82</ele>
        <time>2015-03-29T11:35:26Z</time>
      </trkpt>
      <trkpt lat="43.79834" lon="3.59535">
        <ele>529.34</ele>
        <time>2015-03-29T11:35:38Z</time>
      </trkpt>
      <trkpt lat="43.79834" lon="3.59534">
        <ele>528.86</ele>
        <time>2015-03-29T11:35:45Z</time>
      </trkpt>
      <trkpt lat="43.79834" lon="3.59533">
        <ele>530.79</ele>
        <time>2015-03-29T11:35:55Z</time>
      </trkpt>
      <trkpt lat="43.79832" lon="3.5953">
        <ele>531.27</ele>
        <time>2015-03-29T11:36:24Z</time>
      </trkpt>
      <trkpt lat="43.79831" lon="3.59529">
        <ele>529.82</ele>
        <time>2015-03-29T11:36:32Z</time>
      </trkpt>
      <trkpt lat="43.79831" lon="3.59529">
        <ele>529.34</ele>
        <time>2015-03-29T11:36:43Z</time>
      </trkpt>
      <trkpt lat="43.7983" lon="3.59527">
        <ele>530.79</ele>
        <time>2015-03-29T11:36:45Z</time>
      </trkpt>
      <trkpt lat="43.79831" lon="3.59518">
        <ele>532.71</ele>
        <time>2015-03-29T11:36:55Z</time>
      </trkpt>
      <trkpt lat="43.7983" lon="3.59509">
        <ele>534.63</ele>
        <time>2015-03-29T11:37:08Z</time>
      </trkpt>
      <trkpt lat="43.79829" lon="3.59504">
        <ele>537.51</ele>
        <time>2015-03-29T11:37:19Z</time>
      </trkpt>
      <trkpt lat="43.79829" lon="3.59502">
        <ele>538.48</ele>
        <time>2015-03-29T11:37:21Z</time>
      </trkpt>
      <trkpt lat="43.7983" lon="3.59494">
        <ele>541.36</ele>
        <time>2015-03-29T11:37:31Z</time>
      </trkpt>
      <trkpt lat="43.7983" lon="3.59493">
        <ele>542.8</ele>
        <time>2015-03-29T11:37:33Z</time>
      </trkpt>
      <trkpt lat="43.79828" lon="3.5949">
        <ele>541.36</ele>
        <time>2015-03-29T11:37:36Z</time>
      </trkpt>
      <trkpt lat="43.79826" lon="3.59487">
        <ele>542.32</ele>
        <time>2015-03-29T11:37:46Z</time>
      </trkpt>
      <trkpt lat="43.79823" lon="3.59484">
        <ele>543.28</ele>
        <time>2015-03-29T11:37:51Z</time>
      </trkpt>
      <trkpt lat="43.7982" lon="3.59478">
        <ele>545.2</ele>
        <time>2015-03-29T11:38:00Z</time>
      </trkpt>
      <trkpt lat="43.79819" lon="3.59474">
        <ele>545.2</ele>
        <time>2015-03-29T11:38:03Z</time>
      </trkpt>
      <trkpt lat="43.79814" lon="3.59466">
        <ele>546.17</ele>
        <time>2015-03-29T11:38:10Z</time>
      </trkpt>
      <trkpt lat="43.7981" lon="3.59461">
        <ele>546.65</ele>
        <time>2015-03-29T11:38:14Z</time>
      </trkpt>
      <trkpt lat="43.798" lon="3.59448">
        <ele>547.13</ele>
        <time>2015-03-29T11:38:26Z</time>
      </trkpt>
      <trkpt lat="43.79798" lon="3.59445">
        <ele>545.69</ele>
        <time>2015-03-29T11:38:29Z</time>
      </trkpt>
      <trkpt lat="43.79797" lon="3.59443">
        <ele>546.65</ele>
        <time>2015-03-29T11:38:31Z</time>
      </trkpt>
      <trkpt lat="43.79794" lon="3.59438">
        <ele>548.57</ele>
        <time>2015-03-29T11:38:36Z</time>
      </trkpt>
      <trkpt lat="43.79793" lon="3.59436">
        <ele>549.05</ele>
        <time>2015-03-29T11:38:38Z</time>
      </trkpt>
      <trkpt lat="43.79789" lon="3.59432">
        <ele>548.57</ele>
        <time>2015-03-29T11:38:43Z</time>
      </trkpt>
      <trkpt lat="43.79783" lon="3.5943">
        <ele>547.13</ele>
        <time>2015-03-29T11:38:56Z</time>
      </trkpt>
      <trkpt lat="43.79782" lon="3.59429">
        <ele>548.57</ele>
        <time>2015-03-29T11:39:00Z</time>
      </trkpt>
      <trkpt lat="43.79781" lon="3.59426">
        <ele>547.61</ele>
        <time>2015-03-29T11:39:03Z</time>
      </trkpt>
      <trkpt lat="43.79781" lon="3.59423">
        <ele>546.17</ele>
        <time>2015-03-29T11:39:11Z</time>
      </trkpt>
      <trkpt lat="43.79777" lon="3.59421">
        <ele>547.13</ele>
        <time>2015-03-29T11:39:14Z</time>
      </trkpt>
      <trkpt lat="43.7977" lon="3.59414">
        <ele>546.65</ele>
        <time>2015-03-29T11:39:21Z</time>
      </trkpt>
      <trkpt lat="43.79769" lon="3.59411">
        <ele>550.49</ele>
        <time>2015-03-29T11:39:23Z</time>
      </trkpt>
      <trkpt lat="43.79767" lon="3.5941">
        <ele>550.49</ele>
        <time>2015-03-29T11:39:24Z</time>
      </trkpt>
      <trkpt lat="43.79764" lon="3.59406">
        <ele>550.97</ele>
        <time>2015-03-29T11:39:29Z</time>
      </trkpt>
      <trkpt lat="43.79762" lon="3.59404">
        <ele>549.05</ele>
        <time>2015-03-29T11:39:32Z</time>
      </trkpt>
      <trkpt lat="43.79759" lon="3.59386">
        <ele>547.61</ele>
        <time>2015-03-29T11:39:43Z</time>
      </trkpt>
      <trkpt lat="43.79755" lon="3.59369">
        <ele>549.53</ele>
        <time>2015-03-29T11:39:57Z</time>
      </trkpt>
      <trkpt lat="43.79753" lon="3.5936">
        <ele>549.53</ele>
        <time>2015-03-29T11:40:12Z</time>
      </trkpt>
      <trkpt lat="43.79753" lon="3.59358">
        <ele>551.93</ele>
        <time>2015-03-29T11:40:19Z</time>
      </trkpt>
      <trkpt lat="43.79752" lon="3.59356">
        <ele>550.49</ele>
        <time>2015-03-29T11:40:24Z</time>
      </trkpt>
      <trkpt lat="43.79751" lon="3.59354">
        <ele>549.05</ele>
        <time>2015-03-29T11:40:28Z</time>
      </trkpt>
      <trkpt lat="43.79751" lon="3.59354">
        <ele>547.13</ele>
        <time>2015-03-29T11:40:30Z</time>
      </trkpt>
      <trkpt lat="43.79751" lon="3.59353">
        <ele>551.45</ele>
        <time>2015-03-29T11:40:32Z</time>
      </trkpt>
      <trkpt lat="43.7975" lon="3.59345">
        <ele>552.41</ele>
        <time>2015-03-29T11:40:40Z</time>
      </trkpt>
      <trkpt lat="43.79747" lon="3.5934">
        <ele>550.49</ele>
        <time>2015-03-29T11:40:43Z</time>
      </trkpt>
      <trkpt lat="43.79744" lon="3.59321">
        <ele>549.05</ele>
        <time>2015-03-29T11:40:54Z</time>
      </trkpt>
      <trkpt lat="43.79743" lon="3.59316">
        <ele>544.72</ele>
        <time>2015-03-29T11:40:57Z</time>
      </trkpt>
      <trkpt lat="43.79741" lon="3.59311">
        <ele>547.61</ele>
        <time>2015-03-29T11:41:04Z</time>
      </trkpt>
      <trkpt lat="43.7974" lon="3.59307">
        <ele>548.57</ele>
        <time>2015-03-29T11:41:07Z</time>
      </trkpt>
      <trkpt lat="43.79738" lon="3.59305">
        <ele>550.97</ele>
        <time>2015-03-29T11:41:09Z</time>
      </trkpt>
      <trkpt lat="43.79734" lon="3.593">
        <ele>554.34</ele>
        <time>2015-03-29T11:41:12Z</time>
      </trkpt>
      <trkpt lat="43.7973" lon="3.59285">
        <ele>554.82</ele>
        <time>2015-03-29T11:41:20Z</time>
      </trkpt>
      <trkpt lat="43.79729" lon="3.5928">
        <ele>555.78</ele>
        <time>2015-03-29T11:41:25Z</time>
      </trkpt>
      <trkpt lat="43.79719" lon="3.59267">
        <ele>555.78</ele>
        <time>2015-03-29T11:41:39Z</time>
      </trkpt>
      <trkpt lat="43.79718" lon="3.59266">
        <ele>555.78</ele>
        <time>2015-03-29T11:41:40Z</time>
      </trkpt>
      <trkpt lat="43.79712" lon="3.5926">
        <ele>559.62</ele>
        <time>2015-03-29T11:41:47Z</time>
      </trkpt>
      <trkpt lat="43.79713" lon="3.59252">
        <ele>562.99</ele>
        <time>2015-03-29T11:41:57Z</time>
      </trkpt>
      <trkpt lat="43.79713" lon="3.5925">
        <ele>562.03</ele>
        <time>2015-03-29T11:42:07Z</time>
      </trkpt>
      <trkpt lat="43.7971" lon="3.59247">
        <ele>563.47</ele>
        <time>2015-03-29T11:42:10Z</time>
      </trkpt>
      <trkpt lat="43.79706" lon="3.59243">
        <ele>563.95</ele>
        <time>2015-03-29T11:42:14Z</time>
      </trkpt>
      <trkpt lat="43.79695" lon="3.59228">
        <ele>562.03</ele>
        <time>2015-03-29T11:42:28Z</time>
      </trkpt>
      <trkpt lat="43.79692" lon="3.59221">
        <ele>566.83</ele>
        <time>2015-03-29T11:42:35Z</time>
      </trkpt>
      <trkpt lat="43.79692" lon="3.5922">
        <ele>566.83</ele>
        <time>2015-03-29T11:42:36Z</time>
      </trkpt>
      <trkpt lat="43.7969" lon="3.59216">
        <ele>566.35</ele>
        <time>2015-03-29T11:42:45Z</time>
      </trkpt>
      <trkpt lat="43.79689" lon="3.59212">
        <ele>569.72</ele>
        <time>2015-03-29T11:42:52Z</time>
      </trkpt>
      <trkpt lat="43.79689" lon="3.59211">
        <ele>570.2</ele>
        <time>2015-03-29T11:42:53Z</time>
      </trkpt>
      <trkpt lat="43.79688" lon="3.59209">
        <ele>573.56</ele>
        <time>2015-03-29T11:43:00Z</time>
      </trkpt>
      <trkpt lat="43.79688" lon="3.59209">
        <ele>574.53</ele>
        <time>2015-03-29T11:43:01Z</time>
      </trkpt>
      <trkpt lat="43.79686" lon="3.59206">
        <ele>572.6</ele>
        <time>2015-03-29T11:43:05Z</time>
      </trkpt>
      <trkpt lat="43.79679" lon="3.59202">
        <ele>571.16</ele>
        <time>2015-03-29T11:43:12Z</time>
      </trkpt>
      <trkpt lat="43.79675" lon="3.59199">
        <ele>570.2</ele>
        <time>2015-03-29T11:43:15Z</time>
      </trkpt>
      <trkpt lat="43.79665" lon="3.59192">
        <ele>568.76</ele>
        <time>2015-03-29T11:43:23Z</time>
      </trkpt>
      <trkpt lat="43.79649" lon="3.59178">
        <ele>566.83</ele>
        <time>2015-03-29T11:43:36Z</time>
      </trkpt>
      <trkpt lat="43.79647" lon="3.59177">
        <ele>565.87</ele>
        <time>2015-03-29T11:43:38Z</time>
      </trkpt>
      <trkpt lat="43.79637" lon="3.59167">
        <ele>564.43</ele>
        <time>2015-03-29T11:43:50Z</time>
      </trkpt>
      <trkpt lat="43.79631" lon="3.5916">
        <ele>567.32</ele>
        <time>2015-03-29T11:44:02Z</time>
      </trkpt>
      <trkpt lat="43.79629" lon="3.59157">
        <ele>567.8</ele>
        <time>2015-03-29T11:44:07Z</time>
      </trkpt>
      <trkpt lat="43.7963" lon="3.59155">
        <ele>567.8</ele>
        <time>2015-03-29T11:44:09Z</time>
      </trkpt>
      <trkpt lat="43.79631" lon="3.59148">
        <ele>569.72</ele>
        <time>2015-03-29T11:44:19Z</time>
      </trkpt>
      <trkpt lat="43.79631" lon="3.59148">
        <ele>567.8</ele>
        <time>2015-03-29T11:44:22Z</time>
      </trkpt>
      <trkpt lat="43.79631" lon="3.59147">
        <ele>569.24</ele>
        <time>2015-03-29T11:44:25Z</time>
      </trkpt>
      <trkpt lat="43.79633" lon="3.59148">
        <ele>569.24</ele>
        <time>2015-03-29T11:44:39Z</time>
      </trkpt>
      <trkpt lat="43.79633" lon="3.59146">
        <ele>573.08</ele>
        <time>2015-03-29T11:45:03Z</time>
      </trkpt>
      <trkpt lat="43.79633" lon="3.59146">
        <ele>575.01</ele>
        <time>2015-03-29T11:45:05Z</time>
      </trkpt>
      <trkpt lat="43.79633" lon="3.59146">
        <ele>571.64</ele>
        <time>2015-03-29T11:45:08Z</time>
      </trkpt>
      <trkpt lat="43.79634" lon="3.59146">
        <ele>568.76</ele>
        <time>2015-03-29T11:45:18Z</time>
      </trkpt>
      <trkpt lat="43.79633" lon="3.59146">
        <ele>567.32</ele>
        <time>2015-03-29T11:45:34Z</time>
      </trkpt>
      <trkpt lat="43.79633" lon="3.59146">
        <ele>567.8</ele>
        <time>2015-03-29T11:46:05Z</time>
      </trkpt>
      <trkpt lat="43.79633" lon="3.59146">
        <ele>565.87</ele>
        <time>2015-03-29T11:46:38Z</time>
      </trkpt>
      <trkpt lat="43.79634" lon="3.59145">
        <ele>563.95</ele>
        <time>2015-03-29T11:47:06Z</time>
      </trkpt>
      <trkpt lat="43.79634" lon="3.59145">
        <ele>567.32</ele>
        <time>2015-03-29T11:47:08Z</time>
      </trkpt>
      <trkpt lat="43.79634" lon="3.59145">
        <ele>567.8</ele>
        <time>2015-03-29T11:47:09Z</time>
      </trkpt>
      <trkpt lat="43.79634" lon="3.59145">
        <ele>571.16</ele>
        <time>2015-03-29T11:47:11Z</time>
      </trkpt>
      <trkpt lat="43.79634" lon="3.59145">
        <ele>571.16</ele>
        <time>2015-03-29T11:47:12Z</time>
      </trkpt>
      <trkpt lat="43.79634" lon="3.59145">
        <ele>568.28</ele>
        <time>2015-03-29T11:47:30Z</time>
      </trkpt>
      <trkpt lat="43.79634" lon="3.59145">
        <ele>568.76</ele>
        <time>2015-03-29T11:48:02Z</time>
      </trkpt>
      <trkpt lat="43.79634" lon="3.59146">
        <ele>572.12</ele>
        <time>2015-03-29T11:48:17Z</time>
      </trkpt>
      <trkpt lat="43.79634" lon="3.59146">
        <ele>570.68</ele>
        <time>2015-03-29T11:48:50Z</time>
      </trkpt>
      <trkpt lat="43.79634" lon="3.59146">
        <ele>574.04</ele>
        <time>2015-03-29T11:48:55Z</time>
      </trkpt>
      <trkpt lat="43.79634" lon="3.59146">
        <ele>574.04</ele>
        <time>2015-03-29T11:48:56Z</time>
      </trkpt>
      <trkpt lat="43.79634" lon="3.59146">
        <ele>571.16</ele>
        <time>2015-03-29T11:49:22Z</time>
      </trkpt>
      <trkpt lat="43.79634" lon="3.59146">
        <ele>569.72</ele>
        <time>2015-03-29T11:49:28Z</time>
      </trkpt>
      <trkpt lat="43.79634" lon="3.59146">
        <ele>569.72</ele>
        <time>2015-03-29T11:50:05Z</time>
      </trkpt>
      <trkpt lat="43.79634" lon="3.59146">
        <ele>570.2</ele>
        <time>2015-03-29T11:50:11Z</time>
      </trkpt>
      <trkpt lat="43.79634" lon="3.59146">
        <ele>570.2</ele>
        <time>2015-03-29T11:50:34Z</time>
      </trkpt>
      <trkpt lat="43.79634" lon="3.59146">
        <ele>569.72</ele>
        <time>2015-03-29T11:50:58Z</time>
      </trkpt>
      <trkpt lat="43.79634" lon="3.59146">
        <ele>568.28</ele>
        <time>2015-03-29T11:51:33Z</time>
      </trkpt>
      <trkpt lat="43.79634" lon="3.59146">
        <ele>569.24</ele>
        <time>2015-03-29T11:51:46Z</time>
      </trkpt>
      <trkpt lat="43.79634" lon="3.59146">
        <ele>567.32</ele>
        <time>2015-03-29T11:52:04Z</time>
      </trkpt>
      <trkpt lat="43.79634" lon="3.59146">
        <ele>563.47</ele>
        <time>2015-03-29T11:52:34Z</time>
      </trkpt>
      <trkpt lat="43.79634" lon="3.59146">
        <ele>566.83</ele>
        <time>2015-03-29T11:52:35Z</time>
      </trkpt>
      <trkpt lat="43.79634" lon="3.59146">
        <ele>568.28</ele>
        <time>2015-03-29T11:52:45Z</time>
      </trkpt>
      <trkpt lat="43.79634" lon="3.59145">
        <ele>569.24</ele>
        <time>2015-03-29T11:53:16Z</time>
      </trkpt>
      <trkpt lat="43.79634" lon="3.59145">
        <ele>568.28</ele>
        <time>2015-03-29T11:53:28Z</time>
      </trkpt>
      <trkpt lat="43.79634" lon="3.59145">
        <ele>569.24</ele>
        <time>2015-03-29T11:54:00Z</time>
      </trkpt>
      <trkpt lat="43.79634" lon="3.59145">
        <ele>571.16</ele>
        <time>2015-03-29T11:54:06Z</time>
      </trkpt>
      <trkpt lat="43.79634" lon="3.59145">
        <ele>573.56</ele>
        <time>2015-03-29T11:54:13Z</time>
      </trkpt>
      <trkpt lat="43.79634" lon="3.59145">
        <ele>575.97</ele>
        <time>2015-03-29T11:54:19Z</time>
      </trkpt>
      <trkpt lat="43.79634" lon="3.59145">
        <ele>579.33</ele>
        <time>2015-03-29T11:54:35Z</time>
      </trkpt>
      <trkpt lat="43.79634" lon="3.59144">
        <ele>582.7</ele>
        <time>2015-03-29T11:54:38Z</time>
      </trkpt>
      <trkpt lat="43.79634" lon="3.59144">
        <ele>578.85</ele>
        <time>2015-03-29T11:54:41Z</time>
      </trkpt>
      <trkpt lat="43.79634" lon="3.59144">
        <ele>582.22</ele>
        <time>2015-03-29T11:54:46Z</time>
      </trkpt>
      <trkpt lat="43.79634" lon="3.59144">
        <ele>578.85</ele>
        <time>2015-03-29T11:54:48Z</time>
      </trkpt>
      <trkpt lat="43.79634" lon="3.59144">
        <ele>575.97</ele>
        <time>2015-03-29T11:54:51Z</time>
      </trkpt>
      <trkpt lat="43.79634" lon="3.59144">
        <ele>574.53</ele>
        <time>2015-03-29T11:54:53Z</time>
      </trkpt>
      <trkpt lat="43.79634" lon="3.59144">
        <ele>572.12</ele>
        <time>2015-03-29T11:55:00Z</time>
      </trkpt>
      <trkpt lat="43.79634" lon="3.59144">
        <ele>569.24</ele>
        <time>2015-03-29T11:55:21Z</time>
      </trkpt>
      <trkpt lat="43.79634" lon="3.59143">
        <ele>570.2</ele>
        <time>2015-03-29T11:55:53Z</time>
      </trkpt>
      <trkpt lat="43.79635" lon="3.59143">
        <ele>574.04</ele>
        <time>2015-03-29T11:56:01Z</time>
      </trkpt>
      <trkpt lat="43.79635" lon="3.59144">
        <ele>574.53</ele>
        <time>2015-03-29T11:56:03Z</time>
      </trkpt>
      <trkpt lat="43.79635" lon="3.59143">
        <ele>571.16</ele>
        <time>2015-03-29T11:56:05Z</time>
      </trkpt>
      <trkpt lat="43.79635" lon="3.59144">
        <ele>575.01</ele>
        <time>2015-03-29T11:56:12Z</time>
      </trkpt>
      <trkpt lat="43.79635" lon="3.59144">
        <ele>571.64</ele>
        <time>2015-03-29T11:56:23Z</time>
      </trkpt>
      <trkpt lat="43.79635" lon="3.59144">
        <ele>570.2</ele>
        <time>2015-03-29T11:56:25Z</time>
      </trkpt>
      <trkpt lat="43.79635" lon="3.59144">
        <ele>571.64</ele>
        <time>2015-03-29T11:56:29Z</time>
      </trkpt>
      <trkpt lat="43.79635" lon="3.59144">
        <ele>573.08</ele>
        <time>2015-03-29T11:57:06Z</time>
      </trkpt>
      <trkpt lat="43.79635" lon="3.59144">
        <ele>572.12</ele>
        <time>2015-03-29T11:57:08Z</time>
      </trkpt>
      <trkpt lat="43.79635" lon="3.59144">
        <ele>570.68</ele>
        <time>2015-03-29T11:57:14Z</time>
      </trkpt>
      <trkpt lat="43.79635" lon="3.59144">
        <ele>571.16</ele>
        <time>2015-03-29T11:57:47Z</time>
      </trkpt>
      <trkpt lat="43.79635" lon="3.59144">
        <ele>574.53</ele>
        <time>2015-03-29T11:57:49Z</time>
      </trkpt>
      <trkpt lat="43.79636" lon="3.59144">
        <ele>570.68</ele>
        <time>2015-03-29T11:57:53Z</time>
      </trkpt>
      <trkpt lat="43.79636" lon="3.59144">
        <ele>570.68</ele>
        <time>2015-03-29T11:57:54Z</time>
      </trkpt>
      <trkpt lat="43.79636" lon="3.59143">
        <ele>568.28</ele>
        <time>2015-03-29T11:58:20Z</time>
      </trkpt>
      <trkpt lat="43.79636" lon="3.59143">
        <ele>568.28</ele>
        <time>2015-03-29T11:58:54Z</time>
      </trkpt>
      <trkpt lat="43.79636" lon="3.59143">
        <ele>571.64</ele>
        <time>2015-03-29T11:59:16Z</time>
      </trkpt>
      <trkpt lat="43.79636" lon="3.59143">
        <ele>571.16</ele>
        <time>2015-03-29T11:59:22Z</time>
      </trkpt>
      <trkpt lat="43.79636" lon="3.59143">
        <ele>572.6</ele>
        <time>2015-03-29T11:59:27Z</time>
      </trkpt>
      <trkpt lat="43.79636" lon="3.59143">
        <ele>569.24</ele>
        <time>2015-03-29T11:59:35Z</time>
      </trkpt>
      <trkpt lat="43.79636" lon="3.59143">
        <ele>572.6</ele>
        <time>2015-03-29T11:59:46Z</time>
      </trkpt>
      <trkpt lat="43.79636" lon="3.59144">
        <ele>571.16</ele>
        <time>2015-03-29T12:00:23Z</time>
      </trkpt>
      <trkpt lat="43.79636" lon="3.59144">
        <ele>567.8</ele>
        <time>2015-03-29T12:00:57Z</time>
      </trkpt>
      <trkpt lat="43.79636" lon="3.59144">
        <ele>568.28</ele>
        <time>2015-03-29T12:01:26Z</time>
      </trkpt>
      <trkpt lat="43.79636" lon="3.59144">
        <ele>571.64</ele>
        <time>2015-03-29T12:01:30Z</time>
      </trkpt>
      <trkpt lat="43.79636" lon="3.59144">
        <ele>571.16</ele>
        <time>2015-03-29T12:01:31Z</time>
      </trkpt>
      <trkpt lat="43.79636" lon="3.59144">
        <ele>569.72</ele>
        <time>2015-03-29T12:01:44Z</time>
      </trkpt>
      <trkpt lat="43.79635" lon="3.59144">
        <ele>572.12</ele>
        <time>2015-03-29T12:01:50Z</time>
      </trkpt>
      <trkpt lat="43.79635" lon="3.59144">
        <ele>569.72</ele>
        <time>2015-03-29T12:02:24Z</time>
      </trkpt>
      <trkpt lat="43.79636" lon="3.59144">
        <ele>570.2</ele>
        <time>2015-03-29T12:02:32Z</time>
      </trkpt>
      <trkpt lat="43.79635" lon="3.59144">
        <ele>571.16</ele>
        <time>2015-03-29T12:02:41Z</time>
      </trkpt>
      <trkpt lat="43.79635" lon="3.59144">
        <ele>569.72</ele>
        <time>2015-03-29T12:02:45Z</time>
      </trkpt>
      <trkpt lat="43.79635" lon="3.59144">
        <ele>571.64</ele>
        <time>2015-03-29T12:03:18Z</time>
      </trkpt>
      <trkpt lat="43.79635" lon="3.59144">
        <ele>573.08</ele>
        <time>2015-03-29T12:03:32Z</time>
      </trkpt>
      <trkpt lat="43.79635" lon="3.59144">
        <ele>573.08</ele>
        <time>2015-03-29T12:04:00Z</time>
      </trkpt>
      <trkpt lat="43.79635" lon="3.59144">
        <ele>569.72</ele>
        <time>2015-03-29T12:04:05Z</time>
      </trkpt>
      <trkpt lat="43.79635" lon="3.59144">
        <ele>568.76</ele>
        <time>2015-03-29T12:04:12Z</time>
      </trkpt>
      <trkpt lat="43.79634" lon="3.59144">
        <ele>567.8</ele>
        <time>2015-03-29T12:04:52Z</time>
      </trkpt>
      <trkpt lat="43.79634" lon="3.59144">
        <ele>569.72</ele>
        <time>2015-03-29T12:05:11Z</time>
      </trkpt>
      <trkpt lat="43.79634" lon="3.59144">
        <ele>565.87</ele>
        <time>2015-03-29T12:05:20Z</time>
      </trkpt>
      <trkpt lat="43.79634" lon="3.59144">
        <ele>569.72</ele>
        <time>2015-03-29T12:05:39Z</time>
      </trkpt>
      <trkpt lat="43.79634" lon="3.59144">
        <ele>569.24</ele>
        <time>2015-03-29T12:06:13Z</time>
      </trkpt>
      <trkpt lat="43.79634" lon="3.59144">
        <ele>570.2</ele>
        <time>2015-03-29T12:06:15Z</time>
      </trkpt>
      <trkpt lat="43.79634" lon="3.59144">
        <ele>569.72</ele>
        <time>2015-03-29T12:06:21Z</time>
      </trkpt>
      <trkpt lat="43.79634" lon="3.59144">
        <ele>571.16</ele>
        <time>2015-03-29T12:06:24Z</time>
      </trkpt>
      <trkpt lat="43.79635" lon="3.59144">
        <ele>574.53</ele>
        <time>2015-03-29T12:06:43Z</time>
      </trkpt>
      <trkpt lat="43.79635" lon="3.59144">
        <ele>571.16</ele>
        <time>2015-03-29T12:06:46Z</time>
      </trkpt>
      <trkpt lat="43.79635" lon="3.59143">
        <ele>571.64</ele>
        <time>2015-03-29T12:07:15Z</time>
      </trkpt>
      <trkpt lat="43.79635" lon="3.59143">
        <ele>574.53</ele>
        <time>2015-03-29T12:07:30Z</time>
      </trkpt>
      <trkpt lat="43.79635" lon="3.59143">
        <ele>570.68</ele>
        <time>2015-03-29T12:07:40Z</time>
      </trkpt>
      <trkpt lat="43.79635" lon="3.59143">
        <ele>571.16</ele>
        <time>2015-03-29T12:07:41Z</time>
      </trkpt>
      <trkpt lat="43.79635" lon="3.59143">
        <ele>576.93</ele>
        <time>2015-03-29T12:07:49Z</time>
      </trkpt>
      <trkpt lat="43.79635" lon="3.59143">
        <ele>575.49</ele>
        <time>2015-03-29T12:07:52Z</time>
      </trkpt>
      <trkpt lat="43.79635" lon="3.59143">
        <ele>572.6</ele>
        <time>2015-03-29T12:08:18Z</time>
      </trkpt>
      <trkpt lat="43.79635" lon="3.59143">
        <ele>572.6</ele>
        <time>2015-03-29T12:08:32Z</time>
      </trkpt>
      <trkpt lat="43.79635" lon="3.59144">
        <ele>569.24</ele>
        <time>2015-03-29T12:08:45Z</time>
      </trkpt>
      <trkpt lat="43.79635" lon="3.59144">
        <ele>569.72</ele>
        <time>2015-03-29T12:09:17Z</time>
      </trkpt>
      <trkpt lat="43.79634" lon="3.59144">
        <ele>571.16</ele>
        <time>2015-03-29T12:09:43Z</time>
      </trkpt>
      <trkpt lat="43.79634" lon="3.59144">
        <ele>565.39</ele>
        <time>2015-03-29T12:09:54Z</time>
      </trkpt>
      <trkpt lat="43.79634" lon="3.59144">
        <ele>585.58</ele>
        <time>2015-03-29T12:09:55Z</time>
      </trkpt>
      <trkpt lat="43.79634" lon="3.59144">
        <ele>572.6</ele>
        <time>2015-03-29T12:09:56Z</time>
      </trkpt>
      <trkpt lat="43.79634" lon="3.59144">
        <ele>571.64</ele>
        <time>2015-03-29T12:09:59Z</time>
      </trkpt>
      <trkpt lat="43.79634" lon="3.59144">
        <ele>573.08</ele>
        <time>2015-03-29T12:10:14Z</time>
      </trkpt>
      <trkpt lat="43.79634" lon="3.59144">
        <ele>572.12</ele>
        <time>2015-03-29T12:10:22Z</time>
      </trkpt>
      <trkpt lat="43.79634" lon="3.59144">
        <ele>570.68</ele>
        <time>2015-03-29T12:10:32Z</time>
      </trkpt>
      <trkpt lat="43.79634" lon="3.59144">
        <ele>570.68</ele>
        <time>2015-03-29T12:10:33Z</time>
      </trkpt>
      <trkpt lat="43.79633" lon="3.59143">
        <ele>568.76</ele>
        <time>2015-03-29T12:10:44Z</time>
      </trkpt>
      <trkpt lat="43.7963" lon="3.59144">
        <ele>567.32</ele>
        <time>2015-03-29T12:10:58Z</time>
      </trkpt>
      <trkpt lat="43.79622" lon="3.59143">
        <ele>565.87</ele>
        <time>2015-03-29T12:11:07Z</time>
      </trkpt>
      <trkpt lat="43.79614" lon="3.5914">
        <ele>566.35</ele>
        <time>2015-03-29T12:11:11Z</time>
      </trkpt>
      <trkpt lat="43.7961" lon="3.59134">
        <ele>566.35</ele>
        <time>2015-03-29T12:11:15Z</time>
      </trkpt>
      <trkpt lat="43.79609" lon="3.59129">
        <ele>564.43</ele>
        <time>2015-03-29T12:11:18Z</time>
      </trkpt>
      <trkpt lat="43.79607" lon="3.59126">
        <ele>562.03</ele>
        <time>2015-03-29T12:11:31Z</time>
      </trkpt>
      <trkpt lat="43.79606" lon="3.59126">
        <ele>562.51</ele>
        <time>2015-03-29T12:11:44Z</time>
      </trkpt>
      <trkpt lat="43.79606" lon="3.59125">
        <ele>559.14</ele>
        <time>2015-03-29T12:11:55Z</time>
      </trkpt>
      <trkpt lat="43.79604" lon="3.59115">
        <ele>560.59</ele>
        <time>2015-03-29T12:12:07Z</time>
      </trkpt>
      <trkpt lat="43.79598" lon="3.59111">
        <ele>563.47</ele>
        <time>2015-03-29T12:12:14Z</time>
      </trkpt>
      <trkpt lat="43.79595" lon="3.59109">
        <ele>568.76</ele>
        <time>2015-03-29T12:12:18Z</time>
      </trkpt>
      <trkpt lat="43.79595" lon="3.59108">
        <ele>571.64</ele>
        <time>2015-03-29T12:12:22Z</time>
      </trkpt>
      <trkpt lat="43.79594" lon="3.59103">
        <ele>567.8</ele>
        <time>2015-03-29T12:12:34Z</time>
      </trkpt>
      <trkpt lat="43.79591" lon="3.59093">
        <ele>564.91</ele>
        <time>2015-03-29T12:12:44Z</time>
      </trkpt>
      <trkpt lat="43.7959" lon="3.59092">
        <ele>564.43</ele>
        <time>2015-03-29T12:12:46Z</time>
      </trkpt>
      <trkpt lat="43.79583" lon="3.59078">
        <ele>564.91</ele>
        <time>2015-03-29T12:12:57Z</time>
      </trkpt>
      <trkpt lat="43.79583" lon="3.59078">
        <ele>564.91</ele>
        <time>2015-03-29T12:12:58Z</time>
      </trkpt>
      <trkpt lat="43.79576" lon="3.59069">
        <ele>566.35</ele>
        <time>2015-03-29T12:13:06Z</time>
      </trkpt>
      <trkpt lat="43.79574" lon="3.59065">
        <ele>565.39</ele>
        <time>2015-03-29T12:13:09Z</time>
      </trkpt>
      <trkpt lat="43.79565" lon="3.59057">
        <ele>565.39</ele>
        <time>2015-03-29T12:13:20Z</time>
      </trkpt>
      <trkpt lat="43.7956" lon="3.59054">
        <ele>566.83</ele>
        <time>2015-03-29T12:13:27Z</time>
      </trkpt>
      <trkpt lat="43.79551" lon="3.59044">
        <ele>566.83</ele>
        <time>2015-03-29T12:13:39Z</time>
      </trkpt>
      <trkpt lat="43.79551" lon="3.59037">
        <ele>566.35</ele>
        <time>2015-03-29T12:13:50Z</time>
      </trkpt>
      <trkpt lat="43.7955" lon="3.59029">
        <ele>569.24</ele>
        <time>2015-03-29T12:13:58Z</time>
      </trkpt>
      <trkpt lat="43.79547" lon="3.59026">
        <ele>570.68</ele>
        <time>2015-03-29T12:14:01Z</time>
      </trkpt>
      <trkpt lat="43.79547" lon="3.59012">
        <ele>567.32</ele>
        <time>2015-03-29T12:14:11Z</time>
      </trkpt>
      <trkpt lat="43.79541" lon="3.59009">
        <ele>565.39</ele>
        <time>2015-03-29T12:14:18Z</time>
      </trkpt>
      <trkpt lat="43.79536" lon="3.58997">
        <ele>563.47</ele>
        <time>2015-03-29T12:14:26Z</time>
      </trkpt>
      <trkpt lat="43.7953" lon="3.58985">
        <ele>563.47</ele>
        <time>2015-03-29T12:14:39Z</time>
      </trkpt>
      <trkpt lat="43.7953" lon="3.58984">
        <ele>564.91</ele>
        <time>2015-03-29T12:14:44Z</time>
      </trkpt>
      <trkpt lat="43.79529" lon="3.58982">
        <ele>569.24</ele>
        <time>2015-03-29T12:14:51Z</time>
      </trkpt>
      <trkpt lat="43.79529" lon="3.58982">
        <ele>569.24</ele>
        <time>2015-03-29T12:14:52Z</time>
      </trkpt>
      <trkpt lat="43.79529" lon="3.58981">
        <ele>571.16</ele>
        <time>2015-03-29T12:14:56Z</time>
      </trkpt>
      <trkpt lat="43.79529" lon="3.5898">
        <ele>572.6</ele>
        <time>2015-03-29T12:15:00Z</time>
      </trkpt>
      <trkpt lat="43.79535" lon="3.58972">
        <ele>572.6</ele>
        <time>2015-03-29T12:15:07Z</time>
      </trkpt>
      <trkpt lat="43.79535" lon="3.58963">
        <ele>574.53</ele>
        <time>2015-03-29T12:15:15Z</time>
      </trkpt>
      <trkpt lat="43.79536" lon="3.58962">
        <ele>577.89</ele>
        <time>2015-03-29T12:15:18Z</time>
      </trkpt>
      <trkpt lat="43.79537" lon="3.58959">
        <ele>574.04</ele>
        <time>2015-03-29T12:15:23Z</time>
      </trkpt>
      <trkpt lat="43.79537" lon="3.58959">
        <ele>574.04</ele>
        <time>2015-03-29T12:15:24Z</time>
      </trkpt>
      <trkpt lat="43.79537" lon="3.58958">
        <ele>572.6</ele>
        <time>2015-03-29T12:15:26Z</time>
      </trkpt>
      <trkpt lat="43.79535" lon="3.58954">
        <ele>570.68</ele>
        <time>2015-03-29T12:15:29Z</time>
      </trkpt>
      <trkpt lat="43.79533" lon="3.5895">
        <ele>571.64</ele>
        <time>2015-03-29T12:15:32Z</time>
      </trkpt>
      <trkpt lat="43.79531" lon="3.58948">
        <ele>572.6</ele>
        <time>2015-03-29T12:15:36Z</time>
      </trkpt>
      <trkpt lat="43.7953" lon="3.58947">
        <ele>575.97</ele>
        <time>2015-03-29T12:15:47Z</time>
      </trkpt>
      <trkpt lat="43.79528" lon="3.58945">
        <ele>577.89</ele>
        <time>2015-03-29T12:15:51Z</time>
      </trkpt>
      <trkpt lat="43.79527" lon="3.58944">
        <ele>581.25</ele>
        <time>2015-03-29T12:15:52Z</time>
      </trkpt>
      <trkpt lat="43.79526" lon="3.58944">
        <ele>585.1</ele>
        <time>2015-03-29T12:15:53Z</time>
      </trkpt>
      <trkpt lat="43.79525" lon="3.58943">
        <ele>588.95</ele>
        <time>2015-03-29T12:15:54Z</time>
      </trkpt>
      <trkpt lat="43.79525" lon="3.58943">
        <ele>587.5</ele>
        <time>2015-03-29T12:15:55Z</time>
      </trkpt>
      <trkpt lat="43.79524" lon="3.58943">
        <ele>590.87</ele>
        <time>2015-03-29T12:15:59Z</time>
      </trkpt>
      <trkpt lat="43.79524" lon="3.58943">
        <ele>595.19</ele>
        <time>2015-03-29T12:16:04Z</time>
      </trkpt>
      <trkpt lat="43.79524" lon="3.58943">
        <ele>595.67</ele>
        <time>2015-03-29T12:16:05Z</time>
      </trkpt>
      <trkpt lat="43.79522" lon="3.58942">
        <ele>590.87</ele>
        <time>2015-03-29T12:16:10Z</time>
      </trkpt>
      <trkpt lat="43.7952" lon="3.58941">
        <ele>588.95</ele>
        <time>2015-03-29T12:16:12Z</time>
      </trkpt>
      <trkpt lat="43.79519" lon="3.5894">
        <ele>585.1</ele>
        <time>2015-03-29T12:16:15Z</time>
      </trkpt>
      <trkpt lat="43.79519" lon="3.58938">
        <ele>581.73</ele>
        <time>2015-03-29T12:16:17Z</time>
      </trkpt>
      <trkpt lat="43.79519" lon="3.58938">
        <ele>582.7</ele>
        <time>2015-03-29T12:16:18Z</time>
      </trkpt>
      <trkpt lat="43.79519" lon="3.58936">
        <ele>586.06</ele>
        <time>2015-03-29T12:16:22Z</time>
      </trkpt>
      <trkpt lat="43.79518" lon="3.58936">
        <ele>586.06</ele>
        <time>2015-03-29T12:16:23Z</time>
      </trkpt>
      <trkpt lat="43.79513" lon="3.58932">
        <ele>582.7</ele>
        <time>2015-03-29T12:16:32Z</time>
      </trkpt>
      <trkpt lat="43.79513" lon="3.58932">
        <ele>581.25</ele>
        <time>2015-03-29T12:16:38Z</time>
      </trkpt>
      <trkpt lat="43.79513" lon="3.58932">
        <ele>578.37</ele>
        <time>2015-03-29T12:16:39Z</time>
      </trkpt>
      <trkpt lat="43.79513" lon="3.58931">
        <ele>579.33</ele>
        <time>2015-03-29T12:16:40Z</time>
      </trkpt>
      <trkpt lat="43.79513" lon="3.58931">
        <ele>578.37</ele>
        <time>2015-03-29T12:16:42Z</time>
      </trkpt>
      <trkpt lat="43.79511" lon="3.58923">
        <ele>577.89</ele>
        <time>2015-03-29T12:16:53Z</time>
      </trkpt>
      <trkpt lat="43.79503" lon="3.58913">
        <ele>580.77</ele>
        <time>2015-03-29T12:17:05Z</time>
      </trkpt>
      <trkpt lat="43.795" lon="3.58906">
        <ele>584.62</ele>
        <time>2015-03-29T12:17:14Z</time>
      </trkpt>
      <trkpt lat="43.79499" lon="3.58905">
        <ele>584.14</ele>
        <time>2015-03-29T12:17:15Z</time>
      </trkpt>
      <trkpt lat="43.79497" lon="3.58902">
        <ele>588.46</ele>
        <time>2015-03-29T12:17:18Z</time>
      </trkpt>
      <trkpt lat="43.79496" lon="3.58901">
        <ele>587.02</ele>
        <time>2015-03-29T12:17:19Z</time>
      </trkpt>
      <trkpt lat="43.79496" lon="3.58899">
        <ele>590.39</ele>
        <time>2015-03-29T12:17:29Z</time>
      </trkpt>
      <trkpt lat="43.79493" lon="3.58894">
        <ele>590.39</ele>
        <time>2015-03-29T12:17:37Z</time>
      </trkpt>
      <trkpt lat="43.79493" lon="3.58892">
        <ele>588.95</ele>
        <time>2015-03-29T12:17:43Z</time>
      </trkpt>
      <trkpt lat="43.79489" lon="3.58885">
        <ele>590.87</ele>
        <time>2015-03-29T12:17:48Z</time>
      </trkpt>
      <trkpt lat="43.79488" lon="3.58884">
        <ele>591.35</ele>
        <time>2015-03-29T12:17:49Z</time>
      </trkpt>
      <trkpt lat="43.79486" lon="3.58882">
        <ele>589.91</ele>
        <time>2015-03-29T12:17:51Z</time>
      </trkpt>
      <trkpt lat="43.79482" lon="3.58876">
        <ele>587.5</ele>
        <time>2015-03-29T12:17:58Z</time>
      </trkpt>
      <trkpt lat="43.79481" lon="3.58874">
        <ele>587.5</ele>
        <time>2015-03-29T12:18:02Z</time>
      </trkpt>
      <trkpt lat="43.79477" lon="3.58867">
        <ele>587.98</ele>
        <time>2015-03-29T12:18:10Z</time>
      </trkpt>
      <trkpt lat="43.79471" lon="3.58858">
        <ele>590.39</ele>
        <time>2015-03-29T12:18:20Z</time>
      </trkpt>
      <trkpt lat="43.79471" lon="3.58855">
        <ele>592.79</ele>
        <time>2015-03-29T12:18:24Z</time>
      </trkpt>
      <trkpt lat="43.7947" lon="3.5885">
        <ele>596.15</ele>
        <time>2015-03-29T12:18:30Z</time>
      </trkpt>
      <trkpt lat="43.79466" lon="3.58846">
        <ele>596.64</ele>
        <time>2015-03-29T12:18:35Z</time>
      </trkpt>
      <trkpt lat="43.79461" lon="3.58841">
        <ele>600</ele>
        <time>2015-03-29T12:18:42Z</time>
      </trkpt>
      <trkpt lat="43.7946" lon="3.58841">
        <ele>596.15</ele>
        <time>2015-03-29T12:18:44Z</time>
      </trkpt>
      <trkpt lat="43.7946" lon="3.58841">
        <ele>597.6</ele>
        <time>2015-03-29T12:18:45Z</time>
      </trkpt>
      <trkpt lat="43.79458" lon="3.58841">
        <ele>600</ele>
        <time>2015-03-29T12:18:48Z</time>
      </trkpt>
      <trkpt lat="43.79457" lon="3.58841">
        <ele>598.56</ele>
        <time>2015-03-29T12:18:50Z</time>
      </trkpt>
      <trkpt lat="43.79455" lon="3.5884">
        <ele>604.81</ele>
        <time>2015-03-29T12:18:54Z</time>
      </trkpt>
      <trkpt lat="43.79455" lon="3.58842">
        <ele>602.4</ele>
        <time>2015-03-29T12:19:01Z</time>
      </trkpt>
      <trkpt lat="43.79453" lon="3.5884">
        <ele>601.44</ele>
        <time>2015-03-29T12:19:06Z</time>
      </trkpt>
      <trkpt lat="43.79449" lon="3.58837">
        <ele>604.81</ele>
        <time>2015-03-29T12:19:13Z</time>
      </trkpt>
      <trkpt lat="43.79446" lon="3.58837">
        <ele>602.4</ele>
        <time>2015-03-29T12:19:16Z</time>
      </trkpt>
      <trkpt lat="43.79446" lon="3.58837">
        <ele>600.96</ele>
        <time>2015-03-29T12:19:17Z</time>
      </trkpt>
      <trkpt lat="43.79441" lon="3.58837">
        <ele>600.48</ele>
        <time>2015-03-29T12:19:22Z</time>
      </trkpt>
      <trkpt lat="43.79431" lon="3.58833">
        <ele>596.64</ele>
        <time>2015-03-29T12:19:34Z</time>
      </trkpt>
      <trkpt lat="43.7943" lon="3.58832">
        <ele>597.12</ele>
        <time>2015-03-29T12:19:35Z</time>
      </trkpt>
      <trkpt lat="43.79428" lon="3.58831">
        <ele>602.4</ele>
        <time>2015-03-29T12:19:38Z</time>
      </trkpt>
      <trkpt lat="43.79427" lon="3.58831">
        <ele>601.92</ele>
        <time>2015-03-29T12:19:39Z</time>
      </trkpt>
      <trkpt lat="43.79423" lon="3.58824">
        <ele>598.08</ele>
        <time>2015-03-29T12:19:46Z</time>
      </trkpt>
      <trkpt lat="43.79422" lon="3.58823">
        <ele>598.08</ele>
        <time>2015-03-29T12:19:47Z</time>
      </trkpt>
      <trkpt lat="43.79421" lon="3.58822">
        <ele>600.48</ele>
        <time>2015-03-29T12:19:53Z</time>
      </trkpt>
      <trkpt lat="43.7942" lon="3.58821">
        <ele>601.92</ele>
        <time>2015-03-29T12:19:55Z</time>
      </trkpt>
      <trkpt lat="43.79413" lon="3.58818">
        <ele>598.56</ele>
        <time>2015-03-29T12:20:09Z</time>
      </trkpt>
      <trkpt lat="43.7941" lon="3.58816">
        <ele>596.15</ele>
        <time>2015-03-29T12:20:17Z</time>
      </trkpt>
      <trkpt lat="43.79408" lon="3.58816">
        <ele>600</ele>
        <time>2015-03-29T12:20:23Z</time>
      </trkpt>
      <trkpt lat="43.79404" lon="3.58815">
        <ele>603.85</ele>
        <time>2015-03-29T12:20:28Z</time>
      </trkpt>
      <trkpt lat="43.79403" lon="3.58815">
        <ele>603.36</ele>
        <time>2015-03-29T12:20:29Z</time>
      </trkpt>
      <trkpt lat="43.79401" lon="3.58816">
        <ele>607.21</ele>
        <time>2015-03-29T12:20:35Z</time>
      </trkpt>
      <trkpt lat="43.79398" lon="3.58814">
        <ele>608.65</ele>
        <time>2015-03-29T12:20:39Z</time>
      </trkpt>
      <trkpt lat="43.79396" lon="3.58814">
        <ele>613.46</ele>
        <time>2015-03-29T12:20:42Z</time>
      </trkpt>
      <trkpt lat="43.79392" lon="3.58814">
        <ele>610.09</ele>
        <time>2015-03-29T12:20:46Z</time>
      </trkpt>
      <trkpt lat="43.79392" lon="3.58813">
        <ele>610.09</ele>
        <time>2015-03-29T12:20:47Z</time>
      </trkpt>
      <trkpt lat="43.7939" lon="3.58813">
        <ele>616.82</ele>
        <time>2015-03-29T12:20:50Z</time>
      </trkpt>
      <trkpt lat="43.79388" lon="3.58814">
        <ele>613.46</ele>
        <time>2015-03-29T12:20:54Z</time>
      </trkpt>
      <trkpt lat="43.79387" lon="3.58814">
        <ele>611.54</ele>
        <time>2015-03-29T12:20:58Z</time>
      </trkpt>
      <trkpt lat="43.79382" lon="3.58811">
        <ele>611.54</ele>
        <time>2015-03-29T12:21:07Z</time>
      </trkpt>
      <trkpt lat="43.7938" lon="3.5881">
        <ele>615.38</ele>
        <time>2015-03-29T12:21:09Z</time>
      </trkpt>
      <trkpt lat="43.79379" lon="3.58809">
        <ele>619.23</ele>
        <time>2015-03-29T12:21:11Z</time>
      </trkpt>
      <trkpt lat="43.79376" lon="3.58805">
        <ele>614.9</ele>
        <time>2015-03-29T12:21:15Z</time>
      </trkpt>
      <trkpt lat="43.79374" lon="3.58805">
        <ele>616.82</ele>
        <time>2015-03-29T12:21:18Z</time>
      </trkpt>
      <trkpt lat="43.79372" lon="3.58805">
        <ele>614.42</ele>
        <time>2015-03-29T12:21:20Z</time>
      </trkpt>
      <trkpt lat="43.79365" lon="3.58805">
        <ele>616.82</ele>
        <time>2015-03-29T12:21:30Z</time>
      </trkpt>
      <trkpt lat="43.79363" lon="3.58802">
        <ele>621.15</ele>
        <time>2015-03-29T12:21:33Z</time>
      </trkpt>
      <trkpt lat="43.79361" lon="3.58802">
        <ele>624.99</ele>
        <time>2015-03-29T12:21:41Z</time>
      </trkpt>
      <trkpt lat="43.79359" lon="3.58801">
        <ele>622.11</ele>
        <time>2015-03-29T12:21:43Z</time>
      </trkpt>
      <trkpt lat="43.79358" lon="3.58801">
        <ele>622.59</ele>
        <time>2015-03-29T12:21:44Z</time>
      </trkpt>
      <trkpt lat="43.79354" lon="3.58798">
        <ele>620.67</ele>
        <time>2015-03-29T12:21:48Z</time>
      </trkpt>
      <trkpt lat="43.79352" lon="3.58797">
        <ele>619.71</ele>
        <time>2015-03-29T12:21:50Z</time>
      </trkpt>
      <trkpt lat="43.79349" lon="3.58795">
        <ele>623.07</ele>
        <time>2015-03-29T12:21:54Z</time>
      </trkpt>
      <trkpt lat="43.79348" lon="3.58794">
        <ele>623.07</ele>
        <time>2015-03-29T12:21:55Z</time>
      </trkpt>
      <trkpt lat="43.79345" lon="3.58791">
        <ele>623.55</ele>
        <time>2015-03-29T12:22:01Z</time>
      </trkpt>
      <trkpt lat="43.79341" lon="3.58786">
        <ele>621.63</ele>
        <time>2015-03-29T12:22:07Z</time>
      </trkpt>
      <trkpt lat="43.79339" lon="3.58786">
        <ele>623.07</ele>
        <time>2015-03-29T12:22:10Z</time>
      </trkpt>
      <trkpt lat="43.79331" lon="3.58782">
        <ele>622.11</ele>
        <time>2015-03-29T12:22:20Z</time>
      </trkpt>
      <trkpt lat="43.79326" lon="3.58774">
        <ele>623.55</ele>
        <time>2015-03-29T12:22:29Z</time>
      </trkpt>
      <trkpt lat="43.79321" lon="3.58768">
        <ele>627.4</ele>
        <time>2015-03-29T12:22:37Z</time>
      </trkpt>
      <trkpt lat="43.79321" lon="3.58768">
        <ele>631.72</ele>
        <time>2015-03-29T12:22:39Z</time>
      </trkpt>
      <trkpt lat="43.79321" lon="3.58768">
        <ele>627.4</ele>
        <time>2015-03-29T12:22:41Z</time>
      </trkpt>
      <trkpt lat="43.79315" lon="3.58759">
        <ele>628.84</ele>
        <time>2015-03-29T12:22:50Z</time>
      </trkpt>
      <trkpt lat="43.79311" lon="3.58755">
        <ele>630.76</ele>
        <time>2015-03-29T12:22:57Z</time>
      </trkpt>
      <trkpt lat="43.79306" lon="3.58752">
        <ele>627.4</ele>
        <time>2015-03-29T12:23:02Z</time>
      </trkpt>
      <trkpt lat="43.79302" lon="3.58748">
        <ele>631.72</ele>
        <time>2015-03-29T12:23:09Z</time>
      </trkpt>
      <trkpt lat="43.79301" lon="3.58748">
        <ele>637.49</ele>
        <time>2015-03-29T12:23:10Z</time>
      </trkpt>
      <trkpt lat="43.79301" lon="3.58748">
        <ele>637.49</ele>
        <time>2015-03-29T12:23:11Z</time>
      </trkpt>
      <trkpt lat="43.79301" lon="3.58749">
        <ele>631.72</ele>
        <time>2015-03-29T12:23:12Z</time>
      </trkpt>
      <trkpt lat="43.793" lon="3.5875">
        <ele>631.24</ele>
        <time>2015-03-29T12:23:14Z</time>
      </trkpt>
      <trkpt lat="43.79298" lon="3.5875">
        <ele>634.13</ele>
        <time>2015-03-29T12:23:17Z</time>
      </trkpt>
      <trkpt lat="43.79293" lon="3.58747">
        <ele>637.49</ele>
        <time>2015-03-29T12:23:30Z</time>
      </trkpt>
      <trkpt lat="43.79291" lon="3.58746">
        <ele>634.13</ele>
        <time>2015-03-29T12:23:34Z</time>
      </trkpt>
      <trkpt lat="43.79289" lon="3.58744">
        <ele>638.93</ele>
        <time>2015-03-29T12:23:37Z</time>
      </trkpt>
      <trkpt lat="43.79289" lon="3.58743">
        <ele>637.49</ele>
        <time>2015-03-29T12:23:38Z</time>
      </trkpt>
      <trkpt lat="43.79284" lon="3.58736">
        <ele>639.41</ele>
        <time>2015-03-29T12:23:50Z</time>
      </trkpt>
      <trkpt lat="43.79279" lon="3.58731">
        <ele>638.93</ele>
        <time>2015-03-29T12:23:56Z</time>
      </trkpt>
      <trkpt lat="43.79272" lon="3.5872">
        <ele>638.93</ele>
        <time>2015-03-29T12:24:09Z</time>
      </trkpt>
      <trkpt lat="43.79268" lon="3.58711">
        <ele>637.49</ele>
        <time>2015-03-29T12:24:22Z</time>
      </trkpt>
      <trkpt lat="43.79267" lon="3.5871">
        <ele>640.86</ele>
        <time>2015-03-29T12:24:23Z</time>
      </trkpt>
      <trkpt lat="43.79266" lon="3.58709">
        <ele>640.38</ele>
        <time>2015-03-29T12:24:24Z</time>
      </trkpt>
      <trkpt lat="43.79261" lon="3.58705">
        <ele>645.18</ele>
        <time>2015-03-29T12:24:37Z</time>
      </trkpt>
      <trkpt lat="43.7926" lon="3.58704">
        <ele>644.7</ele>
        <time>2015-03-29T12:24:38Z</time>
      </trkpt>
      <trkpt lat="43.79254" lon="3.58698">
        <ele>645.66</ele>
        <time>2015-03-29T12:24:51Z</time>
      </trkpt>
      <trkpt lat="43.79253" lon="3.58697">
        <ele>650.47</ele>
        <time>2015-03-29T12:24:53Z</time>
      </trkpt>
      <trkpt lat="43.79253" lon="3.58696">
        <ele>647.1</ele>
        <time>2015-03-29T12:24:54Z</time>
      </trkpt>
      <trkpt lat="43.79251" lon="3.58695">
        <ele>645.66</ele>
        <time>2015-03-29T12:24:57Z</time>
      </trkpt>
      <trkpt lat="43.79249" lon="3.58692">
        <ele>646.14</ele>
        <time>2015-03-29T12:25:00Z</time>
      </trkpt>
      <trkpt lat="43.79244" lon="3.58681">
        <ele>647.59</ele>
        <time>2015-03-29T12:25:13Z</time>
      </trkpt>
      <trkpt lat="43.79239" lon="3.58674">
        <ele>649.03</ele>
        <time>2015-03-29T12:25:26Z</time>
      </trkpt>
      <trkpt lat="43.79237" lon="3.58669">
        <ele>651.43</ele>
        <time>2015-03-29T12:25:32Z</time>
      </trkpt>
      <trkpt lat="43.79234" lon="3.58667">
        <ele>649.51</ele>
        <time>2015-03-29T12:25:35Z</time>
      </trkpt>
      <trkpt lat="43.79232" lon="3.58663">
        <ele>651.91</ele>
        <time>2015-03-29T12:25:41Z</time>
      </trkpt>
      <trkpt lat="43.79227" lon="3.58661">
        <ele>655.76</ele>
        <time>2015-03-29T12:25:48Z</time>
      </trkpt>
      <trkpt lat="43.79227" lon="3.58661">
        <ele>654.8</ele>
        <time>2015-03-29T12:25:49Z</time>
      </trkpt>
      <trkpt lat="43.79225" lon="3.58657">
        <ele>654.8</ele>
        <time>2015-03-29T12:25:53Z</time>
      </trkpt>
      <trkpt lat="43.7922" lon="3.58649">
        <ele>655.76</ele>
        <time>2015-03-29T12:26:03Z</time>
      </trkpt>
      <trkpt lat="43.79221" lon="3.58647">
        <ele>654.8</ele>
        <time>2015-03-29T12:26:05Z</time>
      </trkpt>
      <trkpt lat="43.79222" lon="3.58643">
        <ele>653.35</ele>
        <time>2015-03-29T12:26:08Z</time>
      </trkpt>
      <trkpt lat="43.79222" lon="3.58639">
        <ele>654.8</ele>
        <time>2015-03-29T12:26:11Z</time>
      </trkpt>
      <trkpt lat="43.79221" lon="3.5863">
        <ele>655.76</ele>
        <time>2015-03-29T12:26:18Z</time>
      </trkpt>
      <trkpt lat="43.79213" lon="3.58621">
        <ele>657.2</ele>
        <time>2015-03-29T12:26:30Z</time>
      </trkpt>
      <trkpt lat="43.7921" lon="3.58615">
        <ele>660.56</ele>
        <time>2015-03-29T12:26:36Z</time>
      </trkpt>
      <trkpt lat="43.79209" lon="3.58614">
        <ele>660.56</ele>
        <time>2015-03-29T12:26:37Z</time>
      </trkpt>
      <trkpt lat="43.79203" lon="3.58611">
        <ele>659.6</ele>
        <time>2015-03-29T12:26:44Z</time>
      </trkpt>
      <trkpt lat="43.79201" lon="3.58611">
        <ele>659.12</ele>
        <time>2015-03-29T12:26:46Z</time>
      </trkpt>
      <trkpt lat="43.79199" lon="3.58609">
        <ele>658.64</ele>
        <time>2015-03-29T12:26:48Z</time>
      </trkpt>
      <trkpt lat="43.79198" lon="3.58604">
        <ele>658.64</ele>
        <time>2015-03-29T12:26:52Z</time>
      </trkpt>
      <trkpt lat="43.79195" lon="3.586">
        <ele>658.64</ele>
        <time>2015-03-29T12:26:55Z</time>
      </trkpt>
      <trkpt lat="43.79192" lon="3.58599">
        <ele>660.08</ele>
        <time>2015-03-29T12:26:58Z</time>
      </trkpt>
      <trkpt lat="43.79191" lon="3.58598">
        <ele>659.12</ele>
        <time>2015-03-29T12:27:00Z</time>
      </trkpt>
      <trkpt lat="43.79186" lon="3.58596">
        <ele>660.56</ele>
        <time>2015-03-29T12:27:06Z</time>
      </trkpt>
      <trkpt lat="43.79184" lon="3.58589">
        <ele>662.01</ele>
        <time>2015-03-29T12:27:11Z</time>
      </trkpt>
      <trkpt lat="43.79181" lon="3.58587">
        <ele>662.97</ele>
        <time>2015-03-29T12:27:14Z</time>
      </trkpt>
      <trkpt lat="43.79175" lon="3.58576">
        <ele>662.49</ele>
        <time>2015-03-29T12:27:21Z</time>
      </trkpt>
      <trkpt lat="43.79167" lon="3.58572">
        <ele>661.04</ele>
        <time>2015-03-29T12:27:28Z</time>
      </trkpt>
      <trkpt lat="43.79164" lon="3.58571">
        <ele>660.56</ele>
        <time>2015-03-29T12:27:31Z</time>
      </trkpt>
      <trkpt lat="43.79154" lon="3.58571">
        <ele>661.04</ele>
        <time>2015-03-29T12:27:38Z</time>
      </trkpt>
      <trkpt lat="43.79152" lon="3.58569">
        <ele>662.01</ele>
        <time>2015-03-29T12:27:40Z</time>
      </trkpt>
      <trkpt lat="43.79151" lon="3.58566">
        <ele>661.52</ele>
        <time>2015-03-29T12:27:42Z</time>
      </trkpt>
      <trkpt lat="43.79149" lon="3.58561">
        <ele>661.04</ele>
        <time>2015-03-29T12:27:45Z</time>
      </trkpt>
      <trkpt lat="43.79147" lon="3.58551">
        <ele>660.08</ele>
        <time>2015-03-29T12:27:53Z</time>
      </trkpt>
      <trkpt lat="43.79142" lon="3.58547">
        <ele>660.56</ele>
        <time>2015-03-29T12:27:57Z</time>
      </trkpt>
      <trkpt lat="43.79134" lon="3.58541">
        <ele>658.16</ele>
        <time>2015-03-29T12:28:04Z</time>
      </trkpt>
      <trkpt lat="43.7913" lon="3.58537">
        <ele>657.2</ele>
        <time>2015-03-29T12:28:08Z</time>
      </trkpt>
      <trkpt lat="43.79128" lon="3.58533">
        <ele>658.16</ele>
        <time>2015-03-29T12:28:11Z</time>
      </trkpt>
      <trkpt lat="43.79127" lon="3.58527">
        <ele>656.72</ele>
        <time>2015-03-29T12:28:15Z</time>
      </trkpt>
      <trkpt lat="43.79123" lon="3.58509">
        <ele>655.76</ele>
        <time>2015-03-29T12:28:28Z</time>
      </trkpt>
      <trkpt lat="43.79112" lon="3.58507">
        <ele>655.28</ele>
        <time>2015-03-29T12:28:41Z</time>
      </trkpt>
      <trkpt lat="43.79108" lon="3.58504">
        <ele>655.76</ele>
        <time>2015-03-29T12:28:46Z</time>
      </trkpt>
      <trkpt lat="43.791" lon="3.58495">
        <ele>655.76</ele>
        <time>2015-03-29T12:28:58Z</time>
      </trkpt>
      <trkpt lat="43.79099" lon="3.58494">
        <ele>655.76</ele>
        <time>2015-03-29T12:29:02Z</time>
      </trkpt>
      <trkpt lat="43.79098" lon="3.58494">
        <ele>656.72</ele>
        <time>2015-03-29T12:29:04Z</time>
      </trkpt>
      <trkpt lat="43.79095" lon="3.58489">
        <ele>654.8</ele>
        <time>2015-03-29T12:29:10Z</time>
      </trkpt>
      <trkpt lat="43.79088" lon="3.58482">
        <ele>653.83</ele>
        <time>2015-03-29T12:29:18Z</time>
      </trkpt>
      <trkpt lat="43.79086" lon="3.58481">
        <ele>652.87</ele>
        <time>2015-03-29T12:29:20Z</time>
      </trkpt>
      <trkpt lat="43.79085" lon="3.58481">
        <ele>652.39</ele>
        <time>2015-03-29T12:29:21Z</time>
      </trkpt>
      <trkpt lat="43.79079" lon="3.58475">
        <ele>651.43</ele>
        <time>2015-03-29T12:29:32Z</time>
      </trkpt>
      <trkpt lat="43.79075" lon="3.58475">
        <ele>651.43</ele>
        <time>2015-03-29T12:29:35Z</time>
      </trkpt>
      <trkpt lat="43.79069" lon="3.58476">
        <ele>650.47</ele>
        <time>2015-03-29T12:29:48Z</time>
      </trkpt>
      <trkpt lat="43.79069" lon="3.58476">
        <ele>650.47</ele>
        <time>2015-03-29T12:29:49Z</time>
      </trkpt>
      <trkpt lat="43.79059" lon="3.58476">
        <ele>649.03</ele>
        <time>2015-03-29T12:30:00Z</time>
      </trkpt>
      <trkpt lat="43.79057" lon="3.58472">
        <ele>649.51</ele>
        <time>2015-03-29T12:30:03Z</time>
      </trkpt>
      <trkpt lat="43.79054" lon="3.58468">
        <ele>650.47</ele>
        <time>2015-03-29T12:30:08Z</time>
      </trkpt>
      <trkpt lat="43.7905" lon="3.58465">
        <ele>649.99</ele>
        <time>2015-03-29T12:30:12Z</time>
      </trkpt>
      <trkpt lat="43.79047" lon="3.5846">
        <ele>650.47</ele>
        <time>2015-03-29T12:30:16Z</time>
      </trkpt>
      <trkpt lat="43.79044" lon="3.58454">
        <ele>649.99</ele>
        <time>2015-03-29T12:30:22Z</time>
      </trkpt>
      <trkpt lat="43.79043" lon="3.58453">
        <ele>653.35</ele>
        <time>2015-03-29T12:30:30Z</time>
      </trkpt>
      <trkpt lat="43.79041" lon="3.58454">
        <ele>652.87</ele>
        <time>2015-03-29T12:30:36Z</time>
      </trkpt>
      <trkpt lat="43.79035" lon="3.58466">
        <ele>655.76</ele>
        <time>2015-03-29T12:30:48Z</time>
      </trkpt>
      <trkpt lat="43.79035" lon="3.58468">
        <ele>652.39</ele>
        <time>2015-03-29T12:30:51Z</time>
      </trkpt>
      <trkpt lat="43.79035" lon="3.58468">
        <ele>652.39</ele>
        <time>2015-03-29T12:31:00Z</time>
      </trkpt>
      <trkpt lat="43.79033" lon="3.58467">
        <ele>655.28</ele>
        <time>2015-03-29T12:31:03Z</time>
      </trkpt>
      <trkpt lat="43.79031" lon="3.58465">
        <ele>653.83</ele>
        <time>2015-03-29T12:31:06Z</time>
      </trkpt>
      <trkpt lat="43.79029" lon="3.58456">
        <ele>655.28</ele>
        <time>2015-03-29T12:31:16Z</time>
      </trkpt>
      <trkpt lat="43.79029" lon="3.58455">
        <ele>656.72</ele>
        <time>2015-03-29T12:31:18Z</time>
      </trkpt>
      <trkpt lat="43.79027" lon="3.58449">
        <ele>655.28</ele>
        <time>2015-03-29T12:31:33Z</time>
      </trkpt>
      <trkpt lat="43.79027" lon="3.58449">
        <ele>656.24</ele>
        <time>2015-03-29T12:31:34Z</time>
      </trkpt>
      <trkpt lat="43.79026" lon="3.58449">
        <ele>657.2</ele>
        <time>2015-03-29T12:31:36Z</time>
      </trkpt>
      <trkpt lat="43.79023" lon="3.5845">
        <ele>653.35</ele>
        <time>2015-03-29T12:31:42Z</time>
      </trkpt>
      <trkpt lat="43.79022" lon="3.58451">
        <ele>652.39</ele>
        <time>2015-03-29T12:31:51Z</time>
      </trkpt>
      <trkpt lat="43.79023" lon="3.58451">
        <ele>650.47</ele>
        <time>2015-03-29T12:31:59Z</time>
      </trkpt>
      <trkpt lat="43.79021" lon="3.58449">
        <ele>646.62</ele>
        <time>2015-03-29T12:32:15Z</time>
      </trkpt>
      <trkpt lat="43.79021" lon="3.58446">
        <ele>649.99</ele>
        <time>2015-03-29T12:32:21Z</time>
      </trkpt>
      <trkpt lat="43.79021" lon="3.58444">
        <ele>646.14</ele>
        <time>2015-03-29T12:32:24Z</time>
      </trkpt>
      <trkpt lat="43.79019" lon="3.5844">
        <ele>646.62</ele>
        <time>2015-03-29T12:32:33Z</time>
      </trkpt>
      <trkpt lat="43.79019" lon="3.58439">
        <ele>642.78</ele>
        <time>2015-03-29T12:32:36Z</time>
      </trkpt>
      <trkpt lat="43.79019" lon="3.58439">
        <ele>642.3</ele>
        <time>2015-03-29T12:32:37Z</time>
      </trkpt>
      <trkpt lat="43.79019" lon="3.58437">
        <ele>638.93</ele>
        <time>2015-03-29T12:32:40Z</time>
      </trkpt>
      <trkpt lat="43.79019" lon="3.58436">
        <ele>637.49</ele>
        <time>2015-03-29T12:32:42Z</time>
      </trkpt>
      <trkpt lat="43.7902" lon="3.58434">
        <ele>636.05</ele>
        <time>2015-03-29T12:32:49Z</time>
      </trkpt>
      <trkpt lat="43.79022" lon="3.58432">
        <ele>632.2</ele>
        <time>2015-03-29T12:32:51Z</time>
      </trkpt>
      <trkpt lat="43.79024" lon="3.58421">
        <ele>630.28</ele>
        <time>2015-03-29T12:33:00Z</time>
      </trkpt>
      <trkpt lat="43.79026" lon="3.5842">
        <ele>625.96</ele>
        <time>2015-03-29T12:33:12Z</time>
      </trkpt>
      <trkpt lat="43.79027" lon="3.5842">
        <ele>626.92</ele>
        <time>2015-03-29T12:33:13Z</time>
      </trkpt>
      <trkpt lat="43.79027" lon="3.5842">
        <ele>627.4</ele>
        <time>2015-03-29T12:33:15Z</time>
      </trkpt>
      <trkpt lat="43.79028" lon="3.58417">
        <ele>631.24</ele>
        <time>2015-03-29T12:33:20Z</time>
      </trkpt>
      <trkpt lat="43.79028" lon="3.58416">
        <ele>628.36</ele>
        <time>2015-03-29T12:33:23Z</time>
      </trkpt>
      <trkpt lat="43.79029" lon="3.58411">
        <ele>624.03</ele>
        <time>2015-03-29T12:33:27Z</time>
      </trkpt>
      <trkpt lat="43.7903" lon="3.58411">
        <ele>625.96</ele>
        <time>2015-03-29T12:33:28Z</time>
      </trkpt>
      <trkpt lat="43.79033" lon="3.58405">
        <ele>627.4</ele>
        <time>2015-03-29T12:33:40Z</time>
      </trkpt>
      <trkpt lat="43.79033" lon="3.58402">
        <ele>626.92</ele>
        <time>2015-03-29T12:33:54Z</time>
      </trkpt>
      <trkpt lat="43.79032" lon="3.58402">
        <ele>625.96</ele>
        <time>2015-03-29T12:34:08Z</time>
      </trkpt>
      <trkpt lat="43.79032" lon="3.584">
        <ele>622.59</ele>
        <time>2015-03-29T12:34:21Z</time>
      </trkpt>
      <trkpt lat="43.79032" lon="3.58398">
        <ele>619.23</ele>
        <time>2015-03-29T12:34:33Z</time>
      </trkpt>
      <trkpt lat="43.7903" lon="3.58391">
        <ele>617.78</ele>
        <time>2015-03-29T12:34:45Z</time>
      </trkpt>
      <trkpt lat="43.79026" lon="3.58397">
        <ele>614.42</ele>
        <time>2015-03-29T12:34:56Z</time>
      </trkpt>
      <trkpt lat="43.79025" lon="3.58395">
        <ele>611.06</ele>
        <time>2015-03-29T12:35:10Z</time>
      </trkpt>
      <trkpt lat="43.79023" lon="3.58392">
        <ele>608.17</ele>
        <time>2015-03-29T12:35:21Z</time>
      </trkpt>
      <trkpt lat="43.7902" lon="3.58385">
        <ele>604.81</ele>
        <time>2015-03-29T12:35:34Z</time>
      </trkpt>
      <trkpt lat="43.79021" lon="3.5838">
        <ele>600.96</ele>
        <time>2015-03-29T12:35:43Z</time>
      </trkpt>
      <trkpt lat="43.7902" lon="3.58377">
        <ele>597.6</ele>
        <time>2015-03-29T12:35:53Z</time>
      </trkpt>
      <trkpt lat="43.7902" lon="3.5837">
        <ele>594.23</ele>
        <time>2015-03-29T12:36:04Z</time>
      </trkpt>
      <trkpt lat="43.79014" lon="3.58344">
        <ele>592.31</ele>
        <time>2015-03-29T12:36:15Z</time>
      </trkpt>
      <trkpt lat="43.79014" lon="3.58338">
        <ele>591.83</ele>
        <time>2015-03-29T12:36:18Z</time>
      </trkpt>
      <trkpt lat="43.79021" lon="3.58329">
        <ele>589.43</ele>
        <time>2015-03-29T12:36:25Z</time>
      </trkpt>
      <trkpt lat="43.79022" lon="3.58325">
        <ele>587.5</ele>
        <time>2015-03-29T12:36:27Z</time>
      </trkpt>
      <trkpt lat="43.79024" lon="3.58317">
        <ele>587.5</ele>
        <time>2015-03-29T12:36:33Z</time>
      </trkpt>
      <trkpt lat="43.79027" lon="3.58311">
        <ele>584.62</ele>
        <time>2015-03-29T12:36:37Z</time>
      </trkpt>
      <trkpt lat="43.79031" lon="3.58305">
        <ele>582.22</ele>
        <time>2015-03-29T12:36:42Z</time>
      </trkpt>
      <trkpt lat="43.79032" lon="3.58304">
        <ele>582.22</ele>
        <time>2015-03-29T12:36:43Z</time>
      </trkpt>
      <trkpt lat="43.79034" lon="3.58302">
        <ele>583.66</ele>
        <time>2015-03-29T12:36:45Z</time>
      </trkpt>
      <trkpt lat="43.79041" lon="3.58296">
        <ele>580.77</ele>
        <time>2015-03-29T12:36:52Z</time>
      </trkpt>
      <trkpt lat="43.79047" lon="3.58288">
        <ele>576.93</ele>
        <time>2015-03-29T12:37:00Z</time>
      </trkpt>
      <trkpt lat="43.79048" lon="3.58287">
        <ele>575.01</ele>
        <time>2015-03-29T12:37:02Z</time>
      </trkpt>
      <trkpt lat="43.79055" lon="3.58277">
        <ele>571.64</ele>
        <time>2015-03-29T12:37:12Z</time>
      </trkpt>
      <trkpt lat="43.79058" lon="3.58271">
        <ele>569.24</ele>
        <time>2015-03-29T12:37:19Z</time>
      </trkpt>
      <trkpt lat="43.79062" lon="3.58265">
        <ele>566.35</ele>
        <time>2015-03-29T12:37:24Z</time>
      </trkpt>
      <trkpt lat="43.79069" lon="3.58245">
        <ele>563.47</ele>
        <time>2015-03-29T12:37:39Z</time>
      </trkpt>
      <trkpt lat="43.79072" lon="3.58245">
        <ele>562.99</ele>
        <time>2015-03-29T12:37:48Z</time>
      </trkpt>
      <trkpt lat="43.79072" lon="3.58245">
        <ele>565.87</ele>
        <time>2015-03-29T12:37:50Z</time>
      </trkpt>
      <trkpt lat="43.79073" lon="3.58245">
        <ele>565.39</ele>
        <time>2015-03-29T12:38:07Z</time>
      </trkpt>
      <trkpt lat="43.79073" lon="3.58245">
        <ele>564.91</ele>
        <time>2015-03-29T12:38:29Z</time>
      </trkpt>
      <trkpt lat="43.79073" lon="3.58245">
        <ele>565.87</ele>
        <time>2015-03-29T12:38:47Z</time>
      </trkpt>
      <trkpt lat="43.79072" lon="3.58246">
        <ele>564.91</ele>
        <time>2015-03-29T12:39:19Z</time>
      </trkpt>
      <trkpt lat="43.79072" lon="3.58246">
        <ele>564.43</ele>
        <time>2015-03-29T12:39:25Z</time>
      </trkpt>
      <trkpt lat="43.79071" lon="3.58246">
        <ele>564.43</ele>
        <time>2015-03-29T12:39:49Z</time>
      </trkpt>
      <trkpt lat="43.79071" lon="3.58246">
        <ele>566.35</ele>
        <time>2015-03-29T12:39:50Z</time>
      </trkpt>
      <trkpt lat="43.79077" lon="3.58237">
        <ele>562.99</ele>
        <time>2015-03-29T12:39:58Z</time>
      </trkpt>
      <trkpt lat="43.79078" lon="3.58237">
        <ele>562.99</ele>
        <time>2015-03-29T12:39:59Z</time>
      </trkpt>
      <trkpt lat="43.7909" lon="3.58226">
        <ele>558.66</ele>
        <time>2015-03-29T12:40:13Z</time>
      </trkpt>
      <trkpt lat="43.79091" lon="3.58226">
        <ele>558.66</ele>
        <time>2015-03-29T12:40:14Z</time>
      </trkpt>
      <trkpt lat="43.79096" lon="3.58225">
        <ele>556.74</ele>
        <time>2015-03-29T12:40:21Z</time>
      </trkpt>
      <trkpt lat="43.79102" lon="3.58219">
        <ele>553.86</ele>
        <time>2015-03-29T12:40:27Z</time>
      </trkpt>
      <trkpt lat="43.79103" lon="3.58217">
        <ele>553.86</ele>
        <time>2015-03-29T12:40:28Z</time>
      </trkpt>
      <trkpt lat="43.79103" lon="3.58216">
        <ele>553.86</ele>
        <time>2015-03-29T12:40:29Z</time>
      </trkpt>
      <trkpt lat="43.79109" lon="3.58195">
        <ele>551.45</ele>
        <time>2015-03-29T12:40:42Z</time>
      </trkpt>
      <trkpt lat="43.79107" lon="3.5819">
        <ele>550.49</ele>
        <time>2015-03-29T12:40:47Z</time>
      </trkpt>
      <trkpt lat="43.791" lon="3.58177">
        <ele>549.53</ele>
        <time>2015-03-29T12:41:00Z</time>
      </trkpt>
      <trkpt lat="43.79101" lon="3.58165">
        <ele>548.09</ele>
        <time>2015-03-29T12:41:08Z</time>
      </trkpt>
      <trkpt lat="43.79098" lon="3.58156">
        <ele>548.57</ele>
        <time>2015-03-29T12:41:14Z</time>
      </trkpt>
      <trkpt lat="43.79088" lon="3.58143">
        <ele>545.2</ele>
        <time>2015-03-29T12:41:27Z</time>
      </trkpt>
      <trkpt lat="43.79081" lon="3.58132">
        <ele>545.69</ele>
        <time>2015-03-29T12:41:38Z</time>
      </trkpt>
      <trkpt lat="43.7908" lon="3.58131">
        <ele>547.13</ele>
        <time>2015-03-29T12:41:40Z</time>
      </trkpt>
      <trkpt lat="43.7908" lon="3.58129">
        <ele>546.17</ele>
        <time>2015-03-29T12:41:42Z</time>
      </trkpt>
      <trkpt lat="43.79077" lon="3.58124">
        <ele>551.45</ele>
        <time>2015-03-29T12:41:46Z</time>
      </trkpt>
      <trkpt lat="43.79075" lon="3.58121">
        <ele>553.38</ele>
        <time>2015-03-29T12:41:48Z</time>
      </trkpt>
      <trkpt lat="43.79073" lon="3.58118">
        <ele>550.49</ele>
        <time>2015-03-29T12:41:51Z</time>
      </trkpt>
      <trkpt lat="43.79072" lon="3.58117">
        <ele>550.01</ele>
        <time>2015-03-29T12:41:52Z</time>
      </trkpt>
      <trkpt lat="43.79067" lon="3.58107">
        <ele>552.41</ele>
        <time>2015-03-29T12:42:05Z</time>
      </trkpt>
      <trkpt lat="43.79067" lon="3.58106">
        <ele>552.9</ele>
        <time>2015-03-29T12:42:06Z</time>
      </trkpt>
      <trkpt lat="43.79066" lon="3.58101">
        <ele>550.97</ele>
        <time>2015-03-29T12:42:09Z</time>
      </trkpt>
      <trkpt lat="43.79065" lon="3.581">
        <ele>550.97</ele>
        <time>2015-03-29T12:42:11Z</time>
      </trkpt>
      <trkpt lat="43.7906" lon="3.5809">
        <ele>549.53</ele>
        <time>2015-03-29T12:42:19Z</time>
      </trkpt>
      <trkpt lat="43.79051" lon="3.58074">
        <ele>550.01</ele>
        <time>2015-03-29T12:42:31Z</time>
      </trkpt>
      <trkpt lat="43.79048" lon="3.58057">
        <ele>550.97</ele>
        <time>2015-03-29T12:42:43Z</time>
      </trkpt>
      <trkpt lat="43.79043" lon="3.58047">
        <ele>551.93</ele>
        <time>2015-03-29T12:42:58Z</time>
      </trkpt>
      <trkpt lat="43.79043" lon="3.58045">
        <ele>552.9</ele>
        <time>2015-03-29T12:43:24Z</time>
      </trkpt>
      <trkpt lat="43.79043" lon="3.58043">
        <ele>552.41</ele>
        <time>2015-03-29T12:43:49Z</time>
      </trkpt>
      <trkpt lat="43.79043" lon="3.58043">
        <ele>552.9</ele>
        <time>2015-03-29T12:44:09Z</time>
      </trkpt>
      <trkpt lat="43.79046" lon="3.58035">
        <ele>551.93</ele>
        <time>2015-03-29T12:44:25Z</time>
      </trkpt>
      <trkpt lat="43.79049" lon="3.58031">
        <ele>551.45</ele>
        <time>2015-03-29T12:44:42Z</time>
      </trkpt>
      <trkpt lat="43.7905" lon="3.58039">
        <ele>551.45</ele>
        <time>2015-03-29T12:44:53Z</time>
      </trkpt>
      <trkpt lat="43.79052" lon="3.58039">
        <ele>551.93</ele>
        <time>2015-03-29T12:45:07Z</time>
      </trkpt>
      <trkpt lat="43.79047" lon="3.58039">
        <ele>549.53</ele>
        <time>2015-03-29T12:45:14Z</time>
      </trkpt>
      <trkpt lat="43.79035" lon="3.58044">
        <ele>551.45</ele>
        <time>2015-03-29T12:45:27Z</time>
      </trkpt>
      <trkpt lat="43.7903" lon="3.58044">
        <ele>555.3</ele>
        <time>2015-03-29T12:45:33Z</time>
      </trkpt>
      <trkpt lat="43.79028" lon="3.58044">
        <ele>555.3</ele>
        <time>2015-03-29T12:45:34Z</time>
      </trkpt>
      <trkpt lat="43.79025" lon="3.58041">
        <ele>558.18</ele>
        <time>2015-03-29T12:45:41Z</time>
      </trkpt>
      <trkpt lat="43.79022" lon="3.58034">
        <ele>560.59</ele>
        <time>2015-03-29T12:45:53Z</time>
      </trkpt>
      <trkpt lat="43.79022" lon="3.58033">
        <ele>560.59</ele>
        <time>2015-03-29T12:45:54Z</time>
      </trkpt>
      <trkpt lat="43.79018" lon="3.58024">
        <ele>560.59</ele>
        <time>2015-03-29T12:46:05Z</time>
      </trkpt>
      <trkpt lat="43.79015" lon="3.58018">
        <ele>562.03</ele>
        <time>2015-03-29T12:46:15Z</time>
      </trkpt>
      <trkpt lat="43.79012" lon="3.58015">
        <ele>563.47</ele>
        <time>2015-03-29T12:46:19Z</time>
      </trkpt>
      <trkpt lat="43.79006" lon="3.58007">
        <ele>566.83</ele>
        <time>2015-03-29T12:46:31Z</time>
      </trkpt>
      <trkpt lat="43.79005" lon="3.58003">
        <ele>567.8</ele>
        <time>2015-03-29T12:46:34Z</time>
      </trkpt>
      <trkpt lat="43.79004" lon="3.58">
        <ele>568.76</ele>
        <time>2015-03-29T12:46:36Z</time>
      </trkpt>
      <trkpt lat="43.78996" lon="3.5799">
        <ele>567.8</ele>
        <time>2015-03-29T12:46:46Z</time>
      </trkpt>
      <trkpt lat="43.78994" lon="3.57989">
        <ele>567.32</ele>
        <time>2015-03-29T12:46:50Z</time>
      </trkpt>
      <trkpt lat="43.78986" lon="3.57985">
        <ele>565.87</ele>
        <time>2015-03-29T12:47:00Z</time>
      </trkpt>
      <trkpt lat="43.78982" lon="3.57979">
        <ele>562.99</ele>
        <time>2015-03-29T12:47:07Z</time>
      </trkpt>
      <trkpt lat="43.78979" lon="3.57977">
        <ele>562.51</ele>
        <time>2015-03-29T12:47:11Z</time>
      </trkpt>
      <trkpt lat="43.78976" lon="3.57973">
        <ele>562.51</ele>
        <time>2015-03-29T12:47:15Z</time>
      </trkpt>
      <trkpt lat="43.78963" lon="3.57961">
        <ele>561.07</ele>
        <time>2015-03-29T12:47:26Z</time>
      </trkpt>
      <trkpt lat="43.78958" lon="3.57959">
        <ele>560.59</ele>
        <time>2015-03-29T12:47:30Z</time>
      </trkpt>
      <trkpt lat="43.78951" lon="3.57953">
        <ele>560.59</ele>
        <time>2015-03-29T12:47:37Z</time>
      </trkpt>
      <trkpt lat="43.7895" lon="3.5795">
        <ele>561.07</ele>
        <time>2015-03-29T12:47:39Z</time>
      </trkpt>
      <trkpt lat="43.78937" lon="3.5794">
        <ele>560.11</ele>
        <time>2015-03-29T12:47:50Z</time>
      </trkpt>
      <trkpt lat="43.78928" lon="3.57933">
        <ele>558.66</ele>
        <time>2015-03-29T12:47:57Z</time>
      </trkpt>
      <trkpt lat="43.78924" lon="3.57931">
        <ele>557.7</ele>
        <time>2015-03-29T12:48:00Z</time>
      </trkpt>
      <trkpt lat="43.78914" lon="3.57925">
        <ele>555.78</ele>
        <time>2015-03-29T12:48:11Z</time>
      </trkpt>
      <trkpt lat="43.7891" lon="3.57924">
        <ele>555.3</ele>
        <time>2015-03-29T12:48:14Z</time>
      </trkpt>
      <trkpt lat="43.78901" lon="3.57914">
        <ele>553.38</ele>
        <time>2015-03-29T12:48:27Z</time>
      </trkpt>
      <trkpt lat="43.78892" lon="3.57905">
        <ele>551.45</ele>
        <time>2015-03-29T12:48:37Z</time>
      </trkpt>
      <trkpt lat="43.78878" lon="3.57896">
        <ele>550.97</ele>
        <time>2015-03-29T12:48:48Z</time>
      </trkpt>
      <trkpt lat="43.78876" lon="3.57892">
        <ele>553.38</ele>
        <time>2015-03-29T12:48:51Z</time>
      </trkpt>
      <trkpt lat="43.78872" lon="3.57888">
        <ele>553.86</ele>
        <time>2015-03-29T12:48:56Z</time>
      </trkpt>
      <trkpt lat="43.78859" lon="3.57875">
        <ele>552.9</ele>
        <time>2015-03-29T12:49:08Z</time>
      </trkpt>
      <trkpt lat="43.78842" lon="3.57864">
        <ele>550.97</ele>
        <time>2015-03-29T12:49:21Z</time>
      </trkpt>
      <trkpt lat="43.78835" lon="3.57861">
        <ele>550.01</ele>
        <time>2015-03-29T12:49:29Z</time>
      </trkpt>
      <trkpt lat="43.78819" lon="3.57847">
        <ele>548.57</ele>
        <time>2015-03-29T12:49:42Z</time>
      </trkpt>
      <trkpt lat="43.78812" lon="3.57833">
        <ele>551.45</ele>
        <time>2015-03-29T12:49:53Z</time>
      </trkpt>
      <trkpt lat="43.78808" lon="3.57826">
        <ele>552.9</ele>
        <time>2015-03-29T12:49:58Z</time>
      </trkpt>
      <trkpt lat="43.78803" lon="3.57803">
        <ele>551.93</ele>
        <time>2015-03-29T12:50:12Z</time>
      </trkpt>
      <trkpt lat="43.78798" lon="3.57795">
        <ele>551.93</ele>
        <time>2015-03-29T12:50:22Z</time>
      </trkpt>
      <trkpt lat="43.78797" lon="3.57791">
        <ele>550.97</ele>
        <time>2015-03-29T12:50:24Z</time>
      </trkpt>
      <trkpt lat="43.78792" lon="3.57782">
        <ele>552.9</ele>
        <time>2015-03-29T12:50:30Z</time>
      </trkpt>
      <trkpt lat="43.78787" lon="3.57775">
        <ele>554.34</ele>
        <time>2015-03-29T12:50:36Z</time>
      </trkpt>
      <trkpt lat="43.78781" lon="3.57766">
        <ele>553.86</ele>
        <time>2015-03-29T12:50:42Z</time>
      </trkpt>
      <trkpt lat="43.78774" lon="3.57751">
        <ele>550.49</ele>
        <time>2015-03-29T12:50:52Z</time>
      </trkpt>
      <trkpt lat="43.7877" lon="3.57739">
        <ele>553.38</ele>
        <time>2015-03-29T12:51:01Z</time>
      </trkpt>
      <trkpt lat="43.78766" lon="3.57724">
        <ele>550.97</ele>
        <time>2015-03-29T12:51:11Z</time>
      </trkpt>
      <trkpt lat="43.78761" lon="3.57705">
        <ele>550.97</ele>
        <time>2015-03-29T12:51:22Z</time>
      </trkpt>
      <trkpt lat="43.78758" lon="3.57699">
        <ele>551.45</ele>
        <time>2015-03-29T12:51:26Z</time>
      </trkpt>
      <trkpt lat="43.78756" lon="3.57692">
        <ele>550.49</ele>
        <time>2015-03-29T12:51:30Z</time>
      </trkpt>
      <trkpt lat="43.78754" lon="3.57672">
        <ele>552.41</ele>
        <time>2015-03-29T12:51:39Z</time>
      </trkpt>
      <trkpt lat="43.78756" lon="3.57647">
        <ele>553.38</ele>
        <time>2015-03-29T12:51:50Z</time>
      </trkpt>
      <trkpt lat="43.78757" lon="3.57631">
        <ele>554.34</ele>
        <time>2015-03-29T12:51:56Z</time>
      </trkpt>
      <trkpt lat="43.78758" lon="3.57618">
        <ele>555.3</ele>
        <time>2015-03-29T12:52:02Z</time>
      </trkpt>
      <trkpt lat="43.78755" lon="3.57606">
        <ele>554.82</ele>
        <time>2015-03-29T12:52:09Z</time>
      </trkpt>
      <trkpt lat="43.78749" lon="3.57602">
        <ele>552.9</ele>
        <time>2015-03-29T12:52:14Z</time>
      </trkpt>
      <trkpt lat="43.78744" lon="3.57584">
        <ele>554.82</ele>
        <time>2015-03-29T12:52:26Z</time>
      </trkpt>
      <trkpt lat="43.78738" lon="3.57567">
        <ele>553.86</ele>
        <time>2015-03-29T12:52:35Z</time>
      </trkpt>
      <trkpt lat="43.78738" lon="3.57563">
        <ele>553.86</ele>
        <time>2015-03-29T12:52:37Z</time>
      </trkpt>
      <trkpt lat="43.78735" lon="3.57547">
        <ele>553.86</ele>
        <time>2015-03-29T12:52:45Z</time>
      </trkpt>
      <trkpt lat="43.78727" lon="3.5754">
        <ele>554.82</ele>
        <time>2015-03-29T12:52:54Z</time>
      </trkpt>
      <trkpt lat="43.78722" lon="3.57527">
        <ele>557.22</ele>
        <time>2015-03-29T12:53:05Z</time>
      </trkpt>
      <trkpt lat="43.78723" lon="3.57515">
        <ele>558.66</ele>
        <time>2015-03-29T12:53:13Z</time>
      </trkpt>
      <trkpt lat="43.7872" lon="3.57508">
        <ele>558.66</ele>
        <time>2015-03-29T12:53:18Z</time>
      </trkpt>
      <trkpt lat="43.78721" lon="3.57495">
        <ele>560.11</ele>
        <time>2015-03-29T12:53:24Z</time>
      </trkpt>
      <trkpt lat="43.78715" lon="3.5748">
        <ele>561.55</ele>
        <time>2015-03-29T12:53:35Z</time>
      </trkpt>
      <trkpt lat="43.78714" lon="3.57474">
        <ele>560.11</ele>
        <time>2015-03-29T12:53:39Z</time>
      </trkpt>
      <trkpt lat="43.78709" lon="3.57457">
        <ele>561.07</ele>
        <time>2015-03-29T12:53:52Z</time>
      </trkpt>
      <trkpt lat="43.78703" lon="3.57442">
        <ele>562.03</ele>
        <time>2015-03-29T12:54:03Z</time>
      </trkpt>
      <trkpt lat="43.78702" lon="3.57438">
        <ele>561.55</ele>
        <time>2015-03-29T12:54:05Z</time>
      </trkpt>
      <trkpt lat="43.78703" lon="3.57426">
        <ele>564.91</ele>
        <time>2015-03-29T12:54:12Z</time>
      </trkpt>
      <trkpt lat="43.78703" lon="3.57425">
        <ele>566.35</ele>
        <time>2015-03-29T12:54:13Z</time>
      </trkpt>
      <trkpt lat="43.78703" lon="3.57418">
        <ele>566.35</ele>
        <time>2015-03-29T12:54:17Z</time>
      </trkpt>
      <trkpt lat="43.78701" lon="3.57414">
        <ele>570.2</ele>
        <time>2015-03-29T12:54:21Z</time>
      </trkpt>
      <trkpt lat="43.787" lon="3.5741">
        <ele>566.83</ele>
        <time>2015-03-29T12:54:24Z</time>
      </trkpt>
      <trkpt lat="43.78699" lon="3.57407">
        <ele>563.47</ele>
        <time>2015-03-29T12:54:26Z</time>
      </trkpt>
      <trkpt lat="43.78698" lon="3.57405">
        <ele>564.91</ele>
        <time>2015-03-29T12:54:27Z</time>
      </trkpt>
      <trkpt lat="43.78695" lon="3.57402">
        <ele>567.8</ele>
        <time>2015-03-29T12:54:30Z</time>
      </trkpt>
      <trkpt lat="43.78693" lon="3.57388">
        <ele>566.35</ele>
        <time>2015-03-29T12:54:39Z</time>
      </trkpt>
      <trkpt lat="43.78693" lon="3.57382">
        <ele>567.32</ele>
        <time>2015-03-29T12:54:43Z</time>
      </trkpt>
      <trkpt lat="43.78689" lon="3.57368">
        <ele>567.8</ele>
        <time>2015-03-29T12:54:50Z</time>
      </trkpt>
      <trkpt lat="43.78692" lon="3.57341">
        <ele>563.95</ele>
        <time>2015-03-29T12:55:03Z</time>
      </trkpt>
      <trkpt lat="43.78693" lon="3.57335">
        <ele>562.51</ele>
        <time>2015-03-29T12:55:06Z</time>
      </trkpt>
      <trkpt lat="43.78693" lon="3.57334">
        <ele>562.99</ele>
        <time>2015-03-29T12:55:07Z</time>
      </trkpt>
      <trkpt lat="43.78691" lon="3.57332">
        <ele>559.62</ele>
        <time>2015-03-29T12:55:09Z</time>
      </trkpt>
      <trkpt lat="43.7869" lon="3.5733">
        <ele>560.59</ele>
        <time>2015-03-29T12:55:11Z</time>
      </trkpt>
      <trkpt lat="43.78687" lon="3.57324">
        <ele>561.07</ele>
        <time>2015-03-29T12:55:15Z</time>
      </trkpt>
      <trkpt lat="43.78687" lon="3.57307">
        <ele>557.7</ele>
        <time>2015-03-29T12:55:25Z</time>
      </trkpt>
      <trkpt lat="43.78687" lon="3.57304">
        <ele>556.74</ele>
        <time>2015-03-29T12:55:27Z</time>
      </trkpt>
      <trkpt lat="43.78688" lon="3.57296">
        <ele>554.34</ele>
        <time>2015-03-29T12:55:31Z</time>
      </trkpt>
      <trkpt lat="43.78688" lon="3.57295">
        <ele>555.3</ele>
        <time>2015-03-29T12:55:32Z</time>
      </trkpt>
      <trkpt lat="43.78689" lon="3.57291">
        <ele>555.78</ele>
        <time>2015-03-29T12:55:35Z</time>
      </trkpt>
      <trkpt lat="43.7869" lon="3.57284">
        <ele>554.34</ele>
        <time>2015-03-29T12:55:39Z</time>
      </trkpt>
      <trkpt lat="43.78693" lon="3.57269">
        <ele>551.93</ele>
        <time>2015-03-29T12:55:51Z</time>
      </trkpt>
      <trkpt lat="43.78692" lon="3.57263">
        <ele>550.01</ele>
        <time>2015-03-29T12:56:06Z</time>
      </trkpt>
      <trkpt lat="43.78689" lon="3.57255">
        <ele>549.53</ele>
        <time>2015-03-29T12:56:13Z</time>
      </trkpt>
      <trkpt lat="43.78683" lon="3.57245">
        <ele>547.13</ele>
        <time>2015-03-29T12:56:20Z</time>
      </trkpt>
      <trkpt lat="43.78683" lon="3.57238">
        <ele>547.61</ele>
        <time>2015-03-29T12:56:24Z</time>
      </trkpt>
      <trkpt lat="43.78673" lon="3.5723">
        <ele>544.24</ele>
        <time>2015-03-29T12:56:34Z</time>
      </trkpt>
      <trkpt lat="43.78671" lon="3.57229">
        <ele>543.76</ele>
        <time>2015-03-29T12:56:35Z</time>
      </trkpt>
      <trkpt lat="43.78668" lon="3.57209">
        <ele>542.32</ele>
        <time>2015-03-29T12:56:46Z</time>
      </trkpt>
      <trkpt lat="43.78665" lon="3.57188">
        <ele>542.32</ele>
        <time>2015-03-29T12:56:57Z</time>
      </trkpt>
      <trkpt lat="43.78665" lon="3.57185">
        <ele>540.88</ele>
        <time>2015-03-29T12:56:59Z</time>
      </trkpt>
      <trkpt lat="43.78651" lon="3.57173">
        <ele>541.36</ele>
        <time>2015-03-29T12:57:10Z</time>
      </trkpt>
      <trkpt lat="43.78647" lon="3.57167">
        <ele>541.84</ele>
        <time>2015-03-29T12:57:15Z</time>
      </trkpt>
      <trkpt lat="43.78641" lon="3.57167">
        <ele>541.84</ele>
        <time>2015-03-29T12:57:21Z</time>
      </trkpt>
      <trkpt lat="43.78635" lon="3.57161">
        <ele>539.44</ele>
        <time>2015-03-29T12:57:25Z</time>
      </trkpt>
      <trkpt lat="43.7863" lon="3.57146">
        <ele>539.92</ele>
        <time>2015-03-29T12:57:33Z</time>
      </trkpt>
      <trkpt lat="43.78628" lon="3.57138">
        <ele>541.36</ele>
        <time>2015-03-29T12:57:38Z</time>
      </trkpt>
      <trkpt lat="43.78624" lon="3.5713">
        <ele>542.8</ele>
        <time>2015-03-29T12:57:43Z</time>
      </trkpt>
      <trkpt lat="43.78621" lon="3.57128">
        <ele>541.84</ele>
        <time>2015-03-29T12:57:46Z</time>
      </trkpt>
      <trkpt lat="43.78617" lon="3.57125">
        <ele>542.32</ele>
        <time>2015-03-29T12:57:50Z</time>
      </trkpt>
      <trkpt lat="43.78616" lon="3.57122">
        <ele>542.32</ele>
        <time>2015-03-29T12:57:52Z</time>
      </trkpt>
      <trkpt lat="43.78612" lon="3.57113">
        <ele>542.32</ele>
        <time>2015-03-29T12:58:04Z</time>
      </trkpt>
      <trkpt lat="43.78611" lon="3.57106">
        <ele>541.84</ele>
        <time>2015-03-29T12:58:09Z</time>
      </trkpt>
      <trkpt lat="43.78611" lon="3.57103">
        <ele>542.8</ele>
        <time>2015-03-29T12:58:11Z</time>
      </trkpt>
      <trkpt lat="43.78605" lon="3.57085">
        <ele>542.8</ele>
        <time>2015-03-29T12:58:24Z</time>
      </trkpt>
      <trkpt lat="43.78601" lon="3.57075">
        <ele>543.76</ele>
        <time>2015-03-29T12:58:37Z</time>
      </trkpt>
      <trkpt lat="43.78601" lon="3.57072">
        <ele>544.72</ele>
        <time>2015-03-29T12:58:41Z</time>
      </trkpt>
      <trkpt lat="43.78601" lon="3.57072">
        <ele>543.28</ele>
        <time>2015-03-29T12:58:44Z</time>
      </trkpt>
      <trkpt lat="43.786" lon="3.57072">
        <ele>544.72</ele>
        <time>2015-03-29T12:59:10Z</time>
      </trkpt>
      <trkpt lat="43.786" lon="3.57072">
        <ele>544.24</ele>
        <time>2015-03-29T12:59:33Z</time>
      </trkpt>
      <trkpt lat="43.78601" lon="3.57072">
        <ele>543.76</ele>
        <time>2015-03-29T13:00:03Z</time>
      </trkpt>
      <trkpt lat="43.78602" lon="3.57072">
        <ele>543.76</ele>
        <time>2015-03-29T13:00:16Z</time>
      </trkpt>
      <trkpt lat="43.78616" lon="3.57081">
        <ele>546.17</ele>
        <time>2015-03-29T13:00:29Z</time>
      </trkpt>
      <trkpt lat="43.78618" lon="3.57081">
        <ele>546.65</ele>
        <time>2015-03-29T13:00:31Z</time>
      </trkpt>
      <trkpt lat="43.78622" lon="3.57079">
        <ele>545.69</ele>
        <time>2015-03-29T13:00:34Z</time>
      </trkpt>
      <trkpt lat="43.78627" lon="3.57078">
        <ele>544.72</ele>
        <time>2015-03-29T13:00:40Z</time>
      </trkpt>
      <trkpt lat="43.78631" lon="3.57076">
        <ele>544.72</ele>
        <time>2015-03-29T13:00:44Z</time>
      </trkpt>
      <trkpt lat="43.78641" lon="3.57078">
        <ele>542.8</ele>
        <time>2015-03-29T13:00:53Z</time>
      </trkpt>
      <trkpt lat="43.78645" lon="3.5708">
        <ele>540.88</ele>
        <time>2015-03-29T13:00:59Z</time>
      </trkpt>
      <trkpt lat="43.78645" lon="3.5708">
        <ele>540.88</ele>
        <time>2015-03-29T13:01:07Z</time>
      </trkpt>
      <trkpt lat="43.78646" lon="3.57081">
        <ele>540.88</ele>
        <time>2015-03-29T13:01:18Z</time>
      </trkpt>
      <trkpt lat="43.78646" lon="3.57081">
        <ele>539.44</ele>
        <time>2015-03-29T13:01:22Z</time>
      </trkpt>
      <trkpt lat="43.78647" lon="3.57081">
        <ele>540.88</ele>
        <time>2015-03-29T13:01:59Z</time>
      </trkpt>
      <trkpt lat="43.78647" lon="3.57081">
        <ele>538.96</ele>
        <time>2015-03-29T13:02:30Z</time>
      </trkpt>
      <trkpt lat="43.78647" lon="3.57081">
        <ele>540.88</ele>
        <time>2015-03-29T13:02:34Z</time>
      </trkpt>
      <trkpt lat="43.78647" lon="3.57081">
        <ele>539.92</ele>
        <time>2015-03-29T13:03:09Z</time>
      </trkpt>
      <trkpt lat="43.78646" lon="3.57081">
        <ele>539.92</ele>
        <time>2015-03-29T13:03:23Z</time>
      </trkpt>
      <trkpt lat="43.78646" lon="3.57081">
        <ele>540.4</ele>
        <time>2015-03-29T13:03:47Z</time>
      </trkpt>
      <trkpt lat="43.78647" lon="3.57083">
        <ele>540.4</ele>
        <time>2015-03-29T13:03:58Z</time>
      </trkpt>
      <trkpt lat="43.78653" lon="3.57087">
        <ele>538.48</ele>
        <time>2015-03-29T13:04:10Z</time>
      </trkpt>
      <trkpt lat="43.7866" lon="3.57082">
        <ele>535.11</ele>
        <time>2015-03-29T13:04:19Z</time>
      </trkpt>
      <trkpt lat="43.78667" lon="3.57081">
        <ele>532.71</ele>
        <time>2015-03-29T13:04:25Z</time>
      </trkpt>
      <trkpt lat="43.78668" lon="3.57079">
        <ele>530.3</ele>
        <time>2015-03-29T13:04:38Z</time>
      </trkpt>
      <trkpt lat="43.78669" lon="3.57069">
        <ele>527.42</ele>
        <time>2015-03-29T13:04:47Z</time>
      </trkpt>
      <trkpt lat="43.78669" lon="3.57056">
        <ele>524.06</ele>
        <time>2015-03-29T13:04:58Z</time>
      </trkpt>
      <trkpt lat="43.78669" lon="3.57055">
        <ele>524.06</ele>
        <time>2015-03-29T13:04:59Z</time>
      </trkpt>
      <trkpt lat="43.78673" lon="3.57039">
        <ele>522.61</ele>
        <time>2015-03-29T13:05:14Z</time>
      </trkpt>
      <trkpt lat="43.78674" lon="3.57032">
        <ele>519.25</ele>
        <time>2015-03-29T13:05:22Z</time>
      </trkpt>
      <trkpt lat="43.78676" lon="3.57027">
        <ele>518.29</ele>
        <time>2015-03-29T13:05:24Z</time>
      </trkpt>
      <trkpt lat="43.78687" lon="3.5701">
        <ele>515.4</ele>
        <time>2015-03-29T13:05:35Z</time>
      </trkpt>
      <trkpt lat="43.78697" lon="3.56992">
        <ele>512.04</ele>
        <time>2015-03-29T13:05:46Z</time>
      </trkpt>
      <trkpt lat="43.787" lon="3.56987">
        <ele>510.6</ele>
        <time>2015-03-29T13:05:50Z</time>
      </trkpt>
      <trkpt lat="43.78698" lon="3.56965">
        <ele>508.19</ele>
        <time>2015-03-29T13:06:05Z</time>
      </trkpt>
      <trkpt lat="43.78699" lon="3.56951">
        <ele>508.19</ele>
        <time>2015-03-29T13:06:13Z</time>
      </trkpt>
      <trkpt lat="43.78702" lon="3.56943">
        <ele>506.75</ele>
        <time>2015-03-29T13:06:17Z</time>
      </trkpt>
      <trkpt lat="43.78706" lon="3.56931">
        <ele>503.87</ele>
        <time>2015-03-29T13:06:30Z</time>
      </trkpt>
      <trkpt lat="43.7871" lon="3.56927">
        <ele>501.95</ele>
        <time>2015-03-29T13:06:37Z</time>
      </trkpt>
      <trkpt lat="43.78711" lon="3.56923">
        <ele>498.58</ele>
        <time>2015-03-29T13:06:49Z</time>
      </trkpt>
      <trkpt lat="43.78712" lon="3.56916">
        <ele>495.22</ele>
        <time>2015-03-29T13:06:56Z</time>
      </trkpt>
      <trkpt lat="43.78717" lon="3.5691">
        <ele>492.33</ele>
        <time>2015-03-29T13:07:07Z</time>
      </trkpt>
      <trkpt lat="43.78727" lon="3.56907">
        <ele>489.45</ele>
        <time>2015-03-29T13:07:16Z</time>
      </trkpt>
      <trkpt lat="43.78734" lon="3.569">
        <ele>488.49</ele>
        <time>2015-03-29T13:07:26Z</time>
      </trkpt>
      <trkpt lat="43.78737" lon="3.56896">
        <ele>487.05</ele>
        <time>2015-03-29T13:07:29Z</time>
      </trkpt>
      <trkpt lat="43.7874" lon="3.56892">
        <ele>483.68</ele>
        <time>2015-03-29T13:07:35Z</time>
      </trkpt>
      <trkpt lat="43.78743" lon="3.56885">
        <ele>480.8</ele>
        <time>2015-03-29T13:07:44Z</time>
      </trkpt>
      <trkpt lat="43.78755" lon="3.56882">
        <ele>477.43</ele>
        <time>2015-03-29T13:07:55Z</time>
      </trkpt>
      <trkpt lat="43.7876" lon="3.56877">
        <ele>474.07</ele>
        <time>2015-03-29T13:08:03Z</time>
      </trkpt>
      <trkpt lat="43.78766" lon="3.56873">
        <ele>471.18</ele>
        <time>2015-03-29T13:08:13Z</time>
      </trkpt>
      <trkpt lat="43.78773" lon="3.56856">
        <ele>468.78</ele>
        <time>2015-03-29T13:08:27Z</time>
      </trkpt>
      <trkpt lat="43.78781" lon="3.56843">
        <ele>466.38</ele>
        <time>2015-03-29T13:08:38Z</time>
      </trkpt>
      <trkpt lat="43.78786" lon="3.56834">
        <ele>463.01</ele>
        <time>2015-03-29T13:08:48Z</time>
      </trkpt>
      <trkpt lat="43.78792" lon="3.56826">
        <ele>459.65</ele>
        <time>2015-03-29T13:08:58Z</time>
      </trkpt>
      <trkpt lat="43.78796" lon="3.5682">
        <ele>458.21</ele>
        <time>2015-03-29T13:09:05Z</time>
      </trkpt>
      <trkpt lat="43.78798" lon="3.56811">
        <ele>456.76</ele>
        <time>2015-03-29T13:09:10Z</time>
      </trkpt>
      <trkpt lat="43.78802" lon="3.56806">
        <ele>455.32</ele>
        <time>2015-03-29T13:09:14Z</time>
      </trkpt>
      <trkpt lat="43.78804" lon="3.568">
        <ele>454.84</ele>
        <time>2015-03-29T13:09:20Z</time>
      </trkpt>
      <trkpt lat="43.78806" lon="3.56793">
        <ele>453.88</ele>
        <time>2015-03-29T13:09:24Z</time>
      </trkpt>
      <trkpt lat="43.78818" lon="3.56787">
        <ele>451.96</ele>
        <time>2015-03-29T13:09:37Z</time>
      </trkpt>
      <trkpt lat="43.78821" lon="3.56785">
        <ele>451</ele>
        <time>2015-03-29T13:09:39Z</time>
      </trkpt>
      <trkpt lat="43.78823" lon="3.56784">
        <ele>450.52</ele>
        <time>2015-03-29T13:09:41Z</time>
      </trkpt>
      <trkpt lat="43.78832" lon="3.56779">
        <ele>449.07</ele>
        <time>2015-03-29T13:09:52Z</time>
      </trkpt>
      <trkpt lat="43.78843" lon="3.56779">
        <ele>445.71</ele>
        <time>2015-03-29T13:10:06Z</time>
      </trkpt>
      <trkpt lat="43.78854" lon="3.56783">
        <ele>445.71</ele>
        <time>2015-03-29T13:10:21Z</time>
      </trkpt>
      <trkpt lat="43.78863" lon="3.56776">
        <ele>442.34</ele>
        <time>2015-03-29T13:10:35Z</time>
      </trkpt>
      <trkpt lat="43.78869" lon="3.56776">
        <ele>439.46</ele>
        <time>2015-03-29T13:10:44Z</time>
      </trkpt>
      <trkpt lat="43.78878" lon="3.56776">
        <ele>436.1</ele>
        <time>2015-03-29T13:10:55Z</time>
      </trkpt>
      <trkpt lat="43.78885" lon="3.56777">
        <ele>433.21</ele>
        <time>2015-03-29T13:11:13Z</time>
      </trkpt>
      <trkpt lat="43.78898" lon="3.56767">
        <ele>432.73</ele>
        <time>2015-03-29T13:11:26Z</time>
      </trkpt>
      <trkpt lat="43.78905" lon="3.56749">
        <ele>434.65</ele>
        <time>2015-03-29T13:11:40Z</time>
      </trkpt>
      <trkpt lat="43.78905" lon="3.56748">
        <ele>434.65</ele>
        <time>2015-03-29T13:11:41Z</time>
      </trkpt>
      <trkpt lat="43.78906" lon="3.56745">
        <ele>435.13</ele>
        <time>2015-03-29T13:11:43Z</time>
      </trkpt>
      <trkpt lat="43.78906" lon="3.56741">
        <ele>435.61</ele>
        <time>2015-03-29T13:11:47Z</time>
      </trkpt>
      <trkpt lat="43.78905" lon="3.56737">
        <ele>436.1</ele>
        <time>2015-03-29T13:11:50Z</time>
      </trkpt>
      <trkpt lat="43.78899" lon="3.56733">
        <ele>436.58</ele>
        <time>2015-03-29T13:11:56Z</time>
      </trkpt>
      <trkpt lat="43.78896" lon="3.56728">
        <ele>436.58</ele>
        <time>2015-03-29T13:12:00Z</time>
      </trkpt>
      <trkpt lat="43.78888" lon="3.56722">
        <ele>436.1</ele>
        <time>2015-03-29T13:12:06Z</time>
      </trkpt>
      <trkpt lat="43.78884" lon="3.56712">
        <ele>434.65</ele>
        <time>2015-03-29T13:12:13Z</time>
      </trkpt>
      <trkpt lat="43.7887" lon="3.56702">
        <ele>431.29</ele>
        <time>2015-03-29T13:12:25Z</time>
      </trkpt>
      <trkpt lat="43.78864" lon="3.56699">
        <ele>428.4</ele>
        <time>2015-03-29T13:12:32Z</time>
      </trkpt>
      <trkpt lat="43.78851" lon="3.56685">
        <ele>424.56</ele>
        <time>2015-03-29T13:12:44Z</time>
      </trkpt>
      <trkpt lat="43.78843" lon="3.56669">
        <ele>421.19</ele>
        <time>2015-03-29T13:12:54Z</time>
      </trkpt>
      <trkpt lat="43.78837" lon="3.56665">
        <ele>420.23</ele>
        <time>2015-03-29T13:13:01Z</time>
      </trkpt>
      <trkpt lat="43.7882" lon="3.56665">
        <ele>419.27</ele>
        <time>2015-03-29T13:13:15Z</time>
      </trkpt>
      <trkpt lat="43.78804" lon="3.56665">
        <ele>415.91</ele>
        <time>2015-03-29T13:13:29Z</time>
      </trkpt>
      <trkpt lat="43.788" lon="3.56653">
        <ele>412.54</ele>
        <time>2015-03-29T13:13:43Z</time>
      </trkpt>
      <trkpt lat="43.78788" lon="3.56644">
        <ele>413.5</ele>
        <time>2015-03-29T13:13:53Z</time>
      </trkpt>
      <trkpt lat="43.78776" lon="3.56641">
        <ele>414.47</ele>
        <time>2015-03-29T13:14:07Z</time>
      </trkpt>
      <trkpt lat="43.78765" lon="3.56629">
        <ele>411.1</ele>
        <time>2015-03-29T13:14:18Z</time>
      </trkpt>
      <trkpt lat="43.78761" lon="3.56625">
        <ele>407.74</ele>
        <time>2015-03-29T13:14:26Z</time>
      </trkpt>
      <trkpt lat="43.78755" lon="3.56621">
        <ele>404.85</ele>
        <time>2015-03-29T13:14:31Z</time>
      </trkpt>
      <trkpt lat="43.78742" lon="3.56608">
        <ele>401.97</ele>
        <time>2015-03-29T13:14:48Z</time>
      </trkpt>
      <trkpt lat="43.78735" lon="3.56596">
        <ele>401.97</ele>
        <time>2015-03-29T13:15:00Z</time>
      </trkpt>
      <trkpt lat="43.78735" lon="3.56575">
        <ele>400.05</ele>
        <time>2015-03-29T13:15:15Z</time>
      </trkpt>
      <trkpt lat="43.78736" lon="3.56548">
        <ele>400.53</ele>
        <time>2015-03-29T13:15:29Z</time>
      </trkpt>
      <trkpt lat="43.78737" lon="3.56516">
        <ele>400.05</ele>
        <time>2015-03-29T13:15:45Z</time>
      </trkpt>
      <trkpt lat="43.78762" lon="3.56511">
        <ele>398.12</ele>
        <time>2015-03-29T13:16:01Z</time>
      </trkpt>
      <trkpt lat="43.78779" lon="3.565">
        <ele>395.24</ele>
        <time>2015-03-29T13:16:14Z</time>
      </trkpt>
      <trkpt lat="43.78778" lon="3.56483">
        <ele>395.72</ele>
        <time>2015-03-29T13:16:27Z</time>
      </trkpt>
      <trkpt lat="43.78776" lon="3.5648">
        <ele>395.24</ele>
        <time>2015-03-29T13:16:29Z</time>
      </trkpt>
      <trkpt lat="43.7878" lon="3.56457">
        <ele>393.32</ele>
        <time>2015-03-29T13:16:42Z</time>
      </trkpt>
      <trkpt lat="43.78772" lon="3.56439">
        <ele>391.39</ele>
        <time>2015-03-29T13:16:58Z</time>
      </trkpt>
      <trkpt lat="43.7877" lon="3.56433">
        <ele>388.51</ele>
        <time>2015-03-29T13:17:03Z</time>
      </trkpt>
      <trkpt lat="43.7877" lon="3.56413">
        <ele>387.55</ele>
        <time>2015-03-29T13:17:16Z</time>
      </trkpt>
      <trkpt lat="43.78773" lon="3.564">
        <ele>386.59</ele>
        <time>2015-03-29T13:17:20Z</time>
      </trkpt>
      <trkpt lat="43.78778" lon="3.56377">
        <ele>383.22</ele>
        <time>2015-03-29T13:17:35Z</time>
      </trkpt>
      <trkpt lat="43.78784" lon="3.56357">
        <ele>380.34</ele>
        <time>2015-03-29T13:17:48Z</time>
      </trkpt>
      <trkpt lat="43.78782" lon="3.56338">
        <ele>377.45</ele>
        <time>2015-03-29T13:17:59Z</time>
      </trkpt>
      <trkpt lat="43.78782" lon="3.56323">
        <ele>374.09</ele>
        <time>2015-03-29T13:18:09Z</time>
      </trkpt>
      <trkpt lat="43.78786" lon="3.56315">
        <ele>371.69</ele>
        <time>2015-03-29T13:18:16Z</time>
      </trkpt>
      <trkpt lat="43.78775" lon="3.56299">
        <ele>368.32</ele>
        <time>2015-03-29T13:18:30Z</time>
      </trkpt>
      <trkpt lat="43.78769" lon="3.56288">
        <ele>365.44</ele>
        <time>2015-03-29T13:18:42Z</time>
      </trkpt>
      <trkpt lat="43.78773" lon="3.56268">
        <ele>363.52</ele>
        <time>2015-03-29T13:18:57Z</time>
      </trkpt>
      <trkpt lat="43.78781" lon="3.56263">
        <ele>360.15</ele>
        <time>2015-03-29T13:19:09Z</time>
      </trkpt>
      <trkpt lat="43.78786" lon="3.56255">
        <ele>357.27</ele>
        <time>2015-03-29T13:19:17Z</time>
      </trkpt>
      <trkpt lat="43.78792" lon="3.56255">
        <ele>355.34</ele>
        <time>2015-03-29T13:19:22Z</time>
      </trkpt>
      <trkpt lat="43.78808" lon="3.5626">
        <ele>351.5</ele>
        <time>2015-03-29T13:19:32Z</time>
      </trkpt>
      <trkpt lat="43.78821" lon="3.56255">
        <ele>348.13</ele>
        <time>2015-03-29T13:19:42Z</time>
      </trkpt>
      <trkpt lat="43.78827" lon="3.56252">
        <ele>344.77</ele>
        <time>2015-03-29T13:19:51Z</time>
      </trkpt>
      <trkpt lat="43.78838" lon="3.5625">
        <ele>341.89</ele>
        <time>2015-03-29T13:20:04Z</time>
      </trkpt>
      <trkpt lat="43.78857" lon="3.56249">
        <ele>339</ele>
        <time>2015-03-29T13:20:15Z</time>
      </trkpt>
      <trkpt lat="43.78865" lon="3.56247">
        <ele>337.08</ele>
        <time>2015-03-29T13:20:26Z</time>
      </trkpt>
      <trkpt lat="43.78864" lon="3.56254">
        <ele>333.71</ele>
        <time>2015-03-29T13:20:34Z</time>
      </trkpt>
      <trkpt lat="43.78872" lon="3.56255">
        <ele>332.75</ele>
        <time>2015-03-29T13:20:46Z</time>
      </trkpt>
      <trkpt lat="43.78881" lon="3.56249">
        <ele>333.71</ele>
        <time>2015-03-29T13:20:59Z</time>
      </trkpt>
      <trkpt lat="43.78896" lon="3.5624">
        <ele>335.16</ele>
        <time>2015-03-29T13:21:17Z</time>
      </trkpt>
      <trkpt lat="43.78905" lon="3.5622">
        <ele>333.23</ele>
        <time>2015-03-29T13:21:29Z</time>
      </trkpt>
      <trkpt lat="43.78911" lon="3.562">
        <ele>330.35</ele>
        <time>2015-03-29T13:21:43Z</time>
      </trkpt>
      <trkpt lat="43.78914" lon="3.5619">
        <ele>331.31</ele>
        <time>2015-03-29T13:21:51Z</time>
      </trkpt>
      <trkpt lat="43.78914" lon="3.56168">
        <ele>328.91</ele>
        <time>2015-03-29T13:22:07Z</time>
      </trkpt>
      <trkpt lat="43.78918" lon="3.56163">
        <ele>328.91</ele>
        <time>2015-03-29T13:22:30Z</time>
      </trkpt>
      <trkpt lat="43.78924" lon="3.56157">
        <ele>330.35</ele>
        <time>2015-03-29T13:22:59Z</time>
      </trkpt>
      <trkpt lat="43.78924" lon="3.56157">
        <ele>330.35</ele>
        <time>2015-03-29T13:23:29Z</time>
      </trkpt>
      <trkpt lat="43.78925" lon="3.5616">
        <ele>330.35</ele>
        <time>2015-03-29T13:23:55Z</time>
      </trkpt>
      <trkpt lat="43.78934" lon="3.56176">
        <ele>329.39</ele>
        <time>2015-03-29T13:24:08Z</time>
      </trkpt>
      <trkpt lat="43.78935" lon="3.56182">
        <ele>329.39</ele>
        <time>2015-03-29T13:24:11Z</time>
      </trkpt>
      <trkpt lat="43.78942" lon="3.56205">
        <ele>327.95</ele>
        <time>2015-03-29T13:24:24Z</time>
      </trkpt>
      <trkpt lat="43.78953" lon="3.56228">
        <ele>326.02</ele>
        <time>2015-03-29T13:24:40Z</time>
      </trkpt>
      <trkpt lat="43.78967" lon="3.56253">
        <ele>324.1</ele>
        <time>2015-03-29T13:24:56Z</time>
      </trkpt>
      <trkpt lat="43.78973" lon="3.5626">
        <ele>323.62</ele>
        <time>2015-03-29T13:25:01Z</time>
      </trkpt>
      <trkpt lat="43.78988" lon="3.56281">
        <ele>322.18</ele>
        <time>2015-03-29T13:25:16Z</time>
      </trkpt>
      <trkpt lat="43.78996" lon="3.56294">
        <ele>321.22</ele>
        <time>2015-03-29T13:25:28Z</time>
      </trkpt>
      <trkpt lat="43.79007" lon="3.56307">
        <ele>321.7</ele>
        <time>2015-03-29T13:25:40Z</time>
      </trkpt>
      <trkpt lat="43.79008" lon="3.56308">
        <ele>321.7</ele>
        <time>2015-03-29T13:25:41Z</time>
      </trkpt>
      <trkpt lat="43.79015" lon="3.56316">
        <ele>321.22</ele>
        <time>2015-03-29T13:25:49Z</time>
      </trkpt>
      <trkpt lat="43.79033" lon="3.5633">
        <ele>318.33</ele>
        <time>2015-03-29T13:26:04Z</time>
      </trkpt>
      <trkpt lat="43.79046" lon="3.56346">
        <ele>317.85</ele>
        <time>2015-03-29T13:26:17Z</time>
      </trkpt>
      <trkpt lat="43.79055" lon="3.56356">
        <ele>317.85</ele>
        <time>2015-03-29T13:26:28Z</time>
      </trkpt>
      <trkpt lat="43.79062" lon="3.56362">
        <ele>317.37</ele>
        <time>2015-03-29T13:26:40Z</time>
      </trkpt>
      <trkpt lat="43.79078" lon="3.56379">
        <ele>316.89</ele>
        <time>2015-03-29T13:26:54Z</time>
      </trkpt>
      <trkpt lat="43.79092" lon="3.56395">
        <ele>316.89</ele>
        <time>2015-03-29T13:27:06Z</time>
      </trkpt>
      <trkpt lat="43.79094" lon="3.56396">
        <ele>316.89</ele>
        <time>2015-03-29T13:27:07Z</time>
      </trkpt>
      <trkpt lat="43.79106" lon="3.56408">
        <ele>317.37</ele>
        <time>2015-03-29T13:27:20Z</time>
      </trkpt>
      <trkpt lat="43.79117" lon="3.56427">
        <ele>317.85</ele>
        <time>2015-03-29T13:27:31Z</time>
      </trkpt>
      <trkpt lat="43.79126" lon="3.56445">
        <ele>316.41</ele>
        <time>2015-03-29T13:27:44Z</time>
      </trkpt>
      <trkpt lat="43.79136" lon="3.56459">
        <ele>315.45</ele>
        <time>2015-03-29T13:27:57Z</time>
      </trkpt>
      <trkpt lat="43.79145" lon="3.56478">
        <ele>315.45</ele>
        <time>2015-03-29T13:28:10Z</time>
      </trkpt>
      <trkpt lat="43.79146" lon="3.56485">
        <ele>315.45</ele>
        <time>2015-03-29T13:28:14Z</time>
      </trkpt>
      <trkpt lat="43.79149" lon="3.56507">
        <ele>314.97</ele>
        <time>2015-03-29T13:28:28Z</time>
      </trkpt>
      <trkpt lat="43.79154" lon="3.56525">
        <ele>313.53</ele>
        <time>2015-03-29T13:28:39Z</time>
      </trkpt>
      <trkpt lat="43.79158" lon="3.56537">
        <ele>313.05</ele>
        <time>2015-03-29T13:28:49Z</time>
      </trkpt>
      <trkpt lat="43.79161" lon="3.56556">
        <ele>312.09</ele>
        <time>2015-03-29T13:29:03Z</time>
      </trkpt>
      <trkpt lat="43.79163" lon="3.5656">
        <ele>311.6</ele>
        <time>2015-03-29T13:29:05Z</time>
      </trkpt>
      <trkpt lat="43.79172" lon="3.56575">
        <ele>311.12</ele>
        <time>2015-03-29T13:29:15Z</time>
      </trkpt>
      <trkpt lat="43.79178" lon="3.5658">
        <ele>310.64</ele>
        <time>2015-03-29T13:29:22Z</time>
      </trkpt>
      <trkpt lat="43.79182" lon="3.56583">
        <ele>310.64</ele>
        <time>2015-03-29T13:29:24Z</time>
      </trkpt>
      <trkpt lat="43.79195" lon="3.56597">
        <ele>310.16</ele>
        <time>2015-03-29T13:29:35Z</time>
      </trkpt>
      <trkpt lat="43.79196" lon="3.56616">
        <ele>309.68</ele>
        <time>2015-03-29T13:29:44Z</time>
      </trkpt>
      <trkpt lat="43.79215" lon="3.56637">
        <ele>309.2</ele>
        <time>2015-03-29T13:29:58Z</time>
      </trkpt>
      <trkpt lat="43.7922" lon="3.5666">
        <ele>308.24</ele>
        <time>2015-03-29T13:30:10Z</time>
      </trkpt>
      <trkpt lat="43.79226" lon="3.56669">
        <ele>307.76</ele>
        <time>2015-03-29T13:30:18Z</time>
      </trkpt>
      <trkpt lat="43.7923" lon="3.5668">
        <ele>307.28</ele>
        <time>2015-03-29T13:30:25Z</time>
      </trkpt>
      <trkpt lat="43.79237" lon="3.567">
        <ele>306.8</ele>
        <time>2015-03-29T13:30:38Z</time>
      </trkpt>
      <trkpt lat="43.79241" lon="3.56705">
        <ele>306.8</ele>
        <time>2015-03-29T13:30:41Z</time>
      </trkpt>
      <trkpt lat="43.79248" lon="3.56732">
        <ele>306.8</ele>
        <time>2015-03-29T13:30:57Z</time>
      </trkpt>
      <trkpt lat="43.79252" lon="3.56735">
        <ele>306.32</ele>
        <time>2015-03-29T13:31:01Z</time>
      </trkpt>
      <trkpt lat="43.79272" lon="3.56754">
        <ele>306.32</ele>
        <time>2015-03-29T13:31:18Z</time>
      </trkpt>
      <trkpt lat="43.7929" lon="3.56764">
        <ele>306.32</ele>
        <time>2015-03-29T13:31:32Z</time>
      </trkpt>
      <trkpt lat="43.79303" lon="3.56777">
        <ele>304.39</ele>
        <time>2015-03-29T13:31:44Z</time>
      </trkpt>
      <trkpt lat="43.79306" lon="3.56779">
        <ele>303.91</ele>
        <time>2015-03-29T13:31:46Z</time>
      </trkpt>
      <trkpt lat="43.79324" lon="3.56803">
        <ele>302.47</ele>
        <time>2015-03-29T13:32:01Z</time>
      </trkpt>
      <trkpt lat="43.79328" lon="3.56811">
        <ele>301.51</ele>
        <time>2015-03-29T13:32:06Z</time>
      </trkpt>
      <trkpt lat="43.79335" lon="3.56828">
        <ele>300.55</ele>
        <time>2015-03-29T13:32:16Z</time>
      </trkpt>
      <trkpt lat="43.79333" lon="3.56839">
        <ele>300.07</ele>
        <time>2015-03-29T13:32:21Z</time>
      </trkpt>
      <trkpt lat="43.79332" lon="3.56848">
        <ele>299.59</ele>
        <time>2015-03-29T13:32:25Z</time>
      </trkpt>
      <trkpt lat="43.79334" lon="3.56866">
        <ele>297.18</ele>
        <time>2015-03-29T13:32:37Z</time>
      </trkpt>
      <trkpt lat="43.79336" lon="3.56884">
        <ele>295.26</ele>
        <time>2015-03-29T13:32:49Z</time>
      </trkpt>
      <trkpt lat="43.79336" lon="3.56905">
        <ele>292.86</ele>
        <time>2015-03-29T13:33:01Z</time>
      </trkpt>
      <trkpt lat="43.79333" lon="3.56914">
        <ele>291.9</ele>
        <time>2015-03-29T13:33:06Z</time>
      </trkpt>
      <trkpt lat="43.79328" lon="3.56923">
        <ele>291.42</ele>
        <time>2015-03-29T13:33:11Z</time>
      </trkpt>
      <trkpt lat="43.79321" lon="3.56941">
        <ele>290.46</ele>
        <time>2015-03-29T13:33:21Z</time>
      </trkpt>
      <trkpt lat="43.7932" lon="3.56944">
        <ele>289.97</ele>
        <time>2015-03-29T13:33:23Z</time>
      </trkpt>
      <trkpt lat="43.79318" lon="3.56953">
        <ele>289.01</ele>
        <time>2015-03-29T13:33:29Z</time>
      </trkpt>
      <trkpt lat="43.79313" lon="3.56963">
        <ele>288.53</ele>
        <time>2015-03-29T13:33:36Z</time>
      </trkpt>
      <trkpt lat="43.79309" lon="3.56978">
        <ele>287.09</ele>
        <time>2015-03-29T13:33:48Z</time>
      </trkpt>
      <trkpt lat="43.7931" lon="3.56983">
        <ele>286.61</ele>
        <time>2015-03-29T13:33:52Z</time>
      </trkpt>
      <trkpt lat="43.79308" lon="3.56993">
        <ele>286.13</ele>
        <time>2015-03-29T13:33:57Z</time>
      </trkpt>
      <trkpt lat="43.79319" lon="3.57016">
        <ele>284.21</ele>
        <time>2015-03-29T13:34:11Z</time>
      </trkpt>
      <trkpt lat="43.79325" lon="3.57034">
        <ele>283.25</ele>
        <time>2015-03-29T13:34:23Z</time>
      </trkpt>
      <trkpt lat="43.79326" lon="3.57042">
        <ele>282.77</ele>
        <time>2015-03-29T13:34:27Z</time>
      </trkpt>
      <trkpt lat="43.79327" lon="3.5706">
        <ele>282.77</ele>
        <time>2015-03-29T13:34:38Z</time>
      </trkpt>
      <trkpt lat="43.79332" lon="3.57074">
        <ele>280.36</ele>
        <time>2015-03-29T13:34:50Z</time>
      </trkpt>
      <trkpt lat="43.79334" lon="3.57076">
        <ele>279.88</ele>
        <time>2015-03-29T13:34:52Z</time>
      </trkpt>
      <trkpt lat="43.79336" lon="3.5708">
        <ele>279.88</ele>
        <time>2015-03-29T13:34:55Z</time>
      </trkpt>
      <trkpt lat="43.79343" lon="3.5709">
        <ele>278.92</ele>
        <time>2015-03-29T13:35:01Z</time>
      </trkpt>
      <trkpt lat="43.79351" lon="3.57108">
        <ele>277.48</ele>
        <time>2015-03-29T13:35:16Z</time>
      </trkpt>
      <trkpt lat="43.79353" lon="3.57114">
        <ele>277.96</ele>
        <time>2015-03-29T13:35:22Z</time>
      </trkpt>
      <trkpt lat="43.79358" lon="3.5712">
        <ele>277.96</ele>
        <time>2015-03-29T13:35:26Z</time>
      </trkpt>
      <trkpt lat="43.79365" lon="3.57132">
        <ele>277.48</ele>
        <time>2015-03-29T13:35:34Z</time>
      </trkpt>
      <trkpt lat="43.79377" lon="3.57153">
        <ele>277</ele>
        <time>2015-03-29T13:35:48Z</time>
      </trkpt>
      <trkpt lat="43.79394" lon="3.57171">
        <ele>275.07</ele>
        <time>2015-03-29T13:36:03Z</time>
      </trkpt>
      <trkpt lat="43.79407" lon="3.57188">
        <ele>272.67</ele>
        <time>2015-03-29T13:36:17Z</time>
      </trkpt>
      <trkpt lat="43.79415" lon="3.57193">
        <ele>271.71</ele>
        <time>2015-03-29T13:36:24Z</time>
      </trkpt>
      <trkpt lat="43.79428" lon="3.572">
        <ele>270.27</ele>
        <time>2015-03-29T13:36:39Z</time>
      </trkpt>
      <trkpt lat="43.79441" lon="3.57209">
        <ele>267.38</ele>
        <time>2015-03-29T13:36:53Z</time>
      </trkpt>
      <trkpt lat="43.79457" lon="3.57222">
        <ele>267.38</ele>
        <time>2015-03-29T13:37:05Z</time>
      </trkpt>
      <trkpt lat="43.79458" lon="3.57228">
        <ele>266.42</ele>
        <time>2015-03-29T13:37:13Z</time>
      </trkpt>
      <trkpt lat="43.79462" lon="3.57233">
        <ele>266.9</ele>
        <time>2015-03-29T13:37:18Z</time>
      </trkpt>
      <trkpt lat="43.79466" lon="3.57248">
        <ele>267.38</ele>
        <time>2015-03-29T13:37:30Z</time>
      </trkpt>
      <trkpt lat="43.79477" lon="3.57267">
        <ele>264.98</ele>
        <time>2015-03-29T13:37:44Z</time>
      </trkpt>
      <trkpt lat="43.79483" lon="3.57281">
        <ele>264.5</ele>
        <time>2015-03-29T13:37:59Z</time>
      </trkpt>
      <trkpt lat="43.79489" lon="3.57293">
        <ele>263.54</ele>
        <time>2015-03-29T13:38:13Z</time>
      </trkpt>
      <trkpt lat="43.79495" lon="3.573">
        <ele>263.06</ele>
        <time>2015-03-29T13:38:17Z</time>
      </trkpt>
      <trkpt lat="43.79508" lon="3.57328">
        <ele>263.54</ele>
        <time>2015-03-29T13:38:32Z</time>
      </trkpt>
      <trkpt lat="43.79518" lon="3.57341">
        <ele>263.54</ele>
        <time>2015-03-29T13:38:44Z</time>
      </trkpt>
      <trkpt lat="43.79526" lon="3.5735">
        <ele>262.58</ele>
        <time>2015-03-29T13:38:59Z</time>
      </trkpt>
      <trkpt lat="43.79531" lon="3.57354">
        <ele>261.62</ele>
        <time>2015-03-29T13:39:07Z</time>
      </trkpt>
      <trkpt lat="43.79547" lon="3.57365">
        <ele>261.14</ele>
        <time>2015-03-29T13:39:17Z</time>
      </trkpt>
      <trkpt lat="43.79559" lon="3.57376">
        <ele>261.62</ele>
        <time>2015-03-29T13:39:24Z</time>
      </trkpt>
      <trkpt lat="43.79568" lon="3.57394">
        <ele>261.62</ele>
        <time>2015-03-29T13:39:35Z</time>
      </trkpt>
      <trkpt lat="43.79584" lon="3.5741">
        <ele>262.1</ele>
        <time>2015-03-29T13:39:50Z</time>
      </trkpt>
      <trkpt lat="43.79603" lon="3.57422">
        <ele>264.5</ele>
        <time>2015-03-29T13:40:05Z</time>
      </trkpt>
      <trkpt lat="43.79613" lon="3.57438">
        <ele>265.94</ele>
        <time>2015-03-29T13:40:17Z</time>
      </trkpt>
      <trkpt lat="43.7962" lon="3.57458">
        <ele>263.54</ele>
        <time>2015-03-29T13:40:29Z</time>
      </trkpt>
      <trkpt lat="43.79621" lon="3.5747">
        <ele>261.14</ele>
        <time>2015-03-29T13:40:38Z</time>
      </trkpt>
      <trkpt lat="43.79629" lon="3.57482">
        <ele>258.25</ele>
        <time>2015-03-29T13:40:52Z</time>
      </trkpt>
      <trkpt lat="43.79633" lon="3.57487">
        <ele>256.81</ele>
        <time>2015-03-29T13:40:58Z</time>
      </trkpt>
      <trkpt lat="43.79639" lon="3.57495">
        <ele>256.33</ele>
        <time>2015-03-29T13:41:02Z</time>
      </trkpt>
      <trkpt lat="43.79646" lon="3.57502">
        <ele>256.33</ele>
        <time>2015-03-29T13:41:08Z</time>
      </trkpt>
      <trkpt lat="43.79658" lon="3.5751">
        <ele>255.37</ele>
        <time>2015-03-29T13:41:17Z</time>
      </trkpt>
      <trkpt lat="43.79659" lon="3.57518">
        <ele>253.93</ele>
        <time>2015-03-29T13:41:25Z</time>
      </trkpt>
      <trkpt lat="43.79669" lon="3.57533">
        <ele>252</ele>
        <time>2015-03-29T13:41:35Z</time>
      </trkpt>
      <trkpt lat="43.79678" lon="3.57561">
        <ele>249.12</ele>
        <time>2015-03-29T13:41:50Z</time>
      </trkpt>
      <trkpt lat="43.79681" lon="3.5758">
        <ele>248.16</ele>
        <time>2015-03-29T13:42:01Z</time>
      </trkpt>
      <trkpt lat="43.79683" lon="3.57599">
        <ele>245.75</ele>
        <time>2015-03-29T13:42:14Z</time>
      </trkpt>
      <trkpt lat="43.79678" lon="3.57625">
        <ele>244.31</ele>
        <time>2015-03-29T13:42:27Z</time>
      </trkpt>
      <trkpt lat="43.79678" lon="3.5763">
        <ele>243.83</ele>
        <time>2015-03-29T13:42:29Z</time>
      </trkpt>
      <trkpt lat="43.79681" lon="3.57647">
        <ele>241.43</ele>
        <time>2015-03-29T13:42:40Z</time>
      </trkpt>
      <trkpt lat="43.79688" lon="3.57664">
        <ele>239.99</ele>
        <time>2015-03-29T13:42:53Z</time>
      </trkpt>
      <trkpt lat="43.79694" lon="3.57683">
        <ele>238.54</ele>
        <time>2015-03-29T13:43:05Z</time>
      </trkpt>
      <trkpt lat="43.79701" lon="3.57696">
        <ele>237.58</ele>
        <time>2015-03-29T13:43:12Z</time>
      </trkpt>
      <trkpt lat="43.79705" lon="3.57716">
        <ele>236.14</ele>
        <time>2015-03-29T13:43:23Z</time>
      </trkpt>
      <trkpt lat="43.797" lon="3.57726">
        <ele>235.66</ele>
        <time>2015-03-29T13:43:26Z</time>
      </trkpt>
      <trkpt lat="43.79695" lon="3.57734">
        <ele>235.18</ele>
        <time>2015-03-29T13:43:30Z</time>
      </trkpt>
      <trkpt lat="43.79685" lon="3.57747">
        <ele>232.3</ele>
        <time>2015-03-29T13:43:44Z</time>
      </trkpt>
      <trkpt lat="43.79684" lon="3.57758">
        <ele>231.33</ele>
        <time>2015-03-29T13:43:51Z</time>
      </trkpt>
      <trkpt lat="43.79693" lon="3.57776">
        <ele>232.3</ele>
        <time>2015-03-29T13:44:06Z</time>
      </trkpt>
      <trkpt lat="43.79693" lon="3.57777">
        <ele>232.3</ele>
        <time>2015-03-29T13:44:07Z</time>
      </trkpt>
      <trkpt lat="43.79699" lon="3.57792">
        <ele>230.85</ele>
        <time>2015-03-29T13:44:15Z</time>
      </trkpt>
      <trkpt lat="43.79702" lon="3.57809">
        <ele>227.97</ele>
        <time>2015-03-29T13:44:31Z</time>
      </trkpt>
      <trkpt lat="43.79703" lon="3.57815">
        <ele>227.01</ele>
        <time>2015-03-29T13:44:45Z</time>
      </trkpt>
      <trkpt lat="43.79705" lon="3.57819">
        <ele>227.01</ele>
        <time>2015-03-29T13:44:49Z</time>
      </trkpt>
      <trkpt lat="43.7971" lon="3.57823">
        <ele>227.01</ele>
        <time>2015-03-29T13:44:52Z</time>
      </trkpt>
      <trkpt lat="43.79722" lon="3.57838">
        <ele>227.01</ele>
        <time>2015-03-29T13:45:03Z</time>
      </trkpt>
      <trkpt lat="43.79729" lon="3.57848">
        <ele>227.49</ele>
        <time>2015-03-29T13:45:13Z</time>
      </trkpt>
      <trkpt lat="43.79744" lon="3.57867">
        <ele>227.49</ele>
        <time>2015-03-29T13:45:28Z</time>
      </trkpt>
      <trkpt lat="43.79747" lon="3.57876">
        <ele>227.01</ele>
        <time>2015-03-29T13:45:34Z</time>
      </trkpt>
      <trkpt lat="43.79757" lon="3.57888">
        <ele>226.53</ele>
        <time>2015-03-29T13:45:44Z</time>
      </trkpt>
      <trkpt lat="43.79772" lon="3.57903">
        <ele>226.05</ele>
        <time>2015-03-29T13:45:58Z</time>
      </trkpt>
      <trkpt lat="43.79789" lon="3.57917">
        <ele>226.05</ele>
        <time>2015-03-29T13:46:12Z</time>
      </trkpt>
      <trkpt lat="43.7979" lon="3.57918">
        <ele>226.05</ele>
        <time>2015-03-29T13:46:13Z</time>
      </trkpt>
      <trkpt lat="43.79798" lon="3.5794">
        <ele>225.57</ele>
        <time>2015-03-29T13:46:28Z</time>
      </trkpt>
      <trkpt lat="43.79804" lon="3.57946">
        <ele>226.05</ele>
        <time>2015-03-29T13:46:33Z</time>
      </trkpt>
      <trkpt lat="43.79828" lon="3.57965">
        <ele>226.05</ele>
        <time>2015-03-29T13:46:51Z</time>
      </trkpt>
      <trkpt lat="43.79832" lon="3.57979">
        <ele>226.05</ele>
        <time>2015-03-29T13:47:03Z</time>
      </trkpt>
      <trkpt lat="43.79846" lon="3.5801">
        <ele>226.05</ele>
        <time>2015-03-29T13:47:20Z</time>
      </trkpt>
      <trkpt lat="43.79848" lon="3.58035">
        <ele>225.09</ele>
        <time>2015-03-29T13:47:35Z</time>
      </trkpt>
      <trkpt lat="43.79851" lon="3.58039">
        <ele>225.09</ele>
        <time>2015-03-29T13:47:38Z</time>
      </trkpt>
      <trkpt lat="43.79856" lon="3.58043">
        <ele>225.09</ele>
        <time>2015-03-29T13:47:42Z</time>
      </trkpt>
      <trkpt lat="43.7987" lon="3.58063">
        <ele>226.05</ele>
        <time>2015-03-29T13:47:57Z</time>
      </trkpt>
      <trkpt lat="43.79875" lon="3.58075">
        <ele>226.05</ele>
        <time>2015-03-29T13:48:02Z</time>
      </trkpt>
      <trkpt lat="43.79875" lon="3.58081">
        <ele>226.05</ele>
        <time>2015-03-29T13:48:04Z</time>
      </trkpt>
      <trkpt lat="43.79875" lon="3.58085">
        <ele>225.57</ele>
        <time>2015-03-29T13:48:06Z</time>
      </trkpt>
      <trkpt lat="43.79874" lon="3.58101">
        <ele>224.61</ele>
        <time>2015-03-29T13:48:18Z</time>
      </trkpt>
      <trkpt lat="43.79879" lon="3.58111">
        <ele>225.57</ele>
        <time>2015-03-29T13:48:33Z</time>
      </trkpt>
      <trkpt lat="43.79894" lon="3.58116">
        <ele>226.05</ele>
        <time>2015-03-29T13:48:47Z</time>
      </trkpt>
      <trkpt lat="43.79918" lon="3.58126">
        <ele>225.09</ele>
        <time>2015-03-29T13:49:00Z</time>
      </trkpt>
      <trkpt lat="43.79927" lon="3.58131">
        <ele>224.12</ele>
        <time>2015-03-29T13:49:08Z</time>
      </trkpt>
      <trkpt lat="43.79941" lon="3.58139">
        <ele>223.64</ele>
        <time>2015-03-29T13:49:14Z</time>
      </trkpt>
      <trkpt lat="43.7996" lon="3.58165">
        <ele>221.72</ele>
        <time>2015-03-29T13:49:31Z</time>
      </trkpt>
      <trkpt lat="43.79962" lon="3.5817">
        <ele>222.2</ele>
        <time>2015-03-29T13:49:36Z</time>
      </trkpt>
      <trkpt lat="43.79967" lon="3.58178">
        <ele>222.2</ele>
        <time>2015-03-29T13:49:42Z</time>
      </trkpt>
      <trkpt lat="43.79975" lon="3.58185">
        <ele>222.68</ele>
        <time>2015-03-29T13:49:47Z</time>
      </trkpt>
      <trkpt lat="43.79991" lon="3.582">
        <ele>222.68</ele>
        <time>2015-03-29T13:50:02Z</time>
      </trkpt>
      <trkpt lat="43.79998" lon="3.58204">
        <ele>223.64</ele>
        <time>2015-03-29T13:50:16Z</time>
      </trkpt>
      <trkpt lat="43.80022" lon="3.58212">
        <ele>224.12</ele>
        <time>2015-03-29T13:50:30Z</time>
      </trkpt>
      <trkpt lat="43.80038" lon="3.58225">
        <ele>223.64</ele>
        <time>2015-03-29T13:50:42Z</time>
      </trkpt>
      <trkpt lat="43.8005" lon="3.58244">
        <ele>220.76</ele>
        <time>2015-03-29T13:50:57Z</time>
      </trkpt>
      <trkpt lat="43.80063" lon="3.5827">
        <ele>219.8</ele>
        <time>2015-03-29T13:51:14Z</time>
      </trkpt>
      <trkpt lat="43.80069" lon="3.58278">
        <ele>220.28</ele>
        <time>2015-03-29T13:51:23Z</time>
      </trkpt>
      <trkpt lat="43.80083" lon="3.58291">
        <ele>220.28</ele>
        <time>2015-03-29T13:51:29Z</time>
      </trkpt>
      <trkpt lat="43.80088" lon="3.58296">
        <ele>219.8</ele>
        <time>2015-03-29T13:51:35Z</time>
      </trkpt>
      <trkpt lat="43.80096" lon="3.58298">
        <ele>219.32</ele>
        <time>2015-03-29T13:51:40Z</time>
      </trkpt>
      <trkpt lat="43.8011" lon="3.58321">
        <ele>217.88</ele>
        <time>2015-03-29T13:51:54Z</time>
      </trkpt>
      <trkpt lat="43.80113" lon="3.58331">
        <ele>219.8</ele>
        <time>2015-03-29T13:52:08Z</time>
      </trkpt>
      <trkpt lat="43.80131" lon="3.58337">
        <ele>220.76</ele>
        <time>2015-03-29T13:52:22Z</time>
      </trkpt>
      <trkpt lat="43.80156" lon="3.58355">
        <ele>220.76</ele>
        <time>2015-03-29T13:52:39Z</time>
      </trkpt>
      <trkpt lat="43.80176" lon="3.58366">
        <ele>221.24</ele>
        <time>2015-03-29T13:52:54Z</time>
      </trkpt>
      <trkpt lat="43.80195" lon="3.5838">
        <ele>219.8</ele>
        <time>2015-03-29T13:53:09Z</time>
      </trkpt>
      <trkpt lat="43.80198" lon="3.58381">
        <ele>219.8</ele>
        <time>2015-03-29T13:53:12Z</time>
      </trkpt>
      <trkpt lat="43.80217" lon="3.58387">
        <ele>219.32</ele>
        <time>2015-03-29T13:53:29Z</time>
      </trkpt>
      <trkpt lat="43.8023" lon="3.58409">
        <ele>221.72</ele>
        <time>2015-03-29T13:53:43Z</time>
      </trkpt>
      <trkpt lat="43.8024" lon="3.58424">
        <ele>222.2</ele>
        <time>2015-03-29T13:53:56Z</time>
      </trkpt>
      <trkpt lat="43.80252" lon="3.58436">
        <ele>222.68</ele>
        <time>2015-03-29T13:54:10Z</time>
      </trkpt>
      <trkpt lat="43.8026" lon="3.58443">
        <ele>224.12</ele>
        <time>2015-03-29T13:54:22Z</time>
      </trkpt>
      <trkpt lat="43.8027" lon="3.58447">
        <ele>226.05</ele>
        <time>2015-03-29T13:54:32Z</time>
      </trkpt>
      <trkpt lat="43.80289" lon="3.58464">
        <ele>226.53</ele>
        <time>2015-03-29T13:54:47Z</time>
      </trkpt>
      <trkpt lat="43.80301" lon="3.58475">
        <ele>227.49</ele>
        <time>2015-03-29T13:55:00Z</time>
      </trkpt>
      <trkpt lat="43.80326" lon="3.58473">
        <ele>227.97</ele>
        <time>2015-03-29T13:55:18Z</time>
      </trkpt>
      <trkpt lat="43.80337" lon="3.58484">
        <ele>230.37</ele>
        <time>2015-03-29T13:55:31Z</time>
      </trkpt>
      <trkpt lat="43.80345" lon="3.58487">
        <ele>231.81</ele>
        <time>2015-03-29T13:55:43Z</time>
      </trkpt>
      <trkpt lat="43.80353" lon="3.58496">
        <ele>234.22</ele>
        <time>2015-03-29T13:55:57Z</time>
      </trkpt>
      <trkpt lat="43.80362" lon="3.585">
        <ele>237.58</ele>
        <time>2015-03-29T13:56:10Z</time>
      </trkpt>
      <trkpt lat="43.80374" lon="3.5851">
        <ele>240.47</ele>
        <time>2015-03-29T13:56:24Z</time>
      </trkpt>
      <trkpt lat="43.8038" lon="3.58516">
        <ele>242.39</ele>
        <time>2015-03-29T13:56:32Z</time>
      </trkpt>
      <trkpt lat="43.80382" lon="3.58521">
        <ele>242.87</ele>
        <time>2015-03-29T13:56:48Z</time>
      </trkpt>
      <trkpt lat="43.8039" lon="3.58528">
        <ele>245.75</ele>
        <time>2015-03-29T13:57:02Z</time>
      </trkpt>
      <trkpt lat="43.804" lon="3.58536">
        <ele>246.23</ele>
        <time>2015-03-29T13:57:15Z</time>
      </trkpt>
      <trkpt lat="43.80408" lon="3.58548">
        <ele>248.16</ele>
        <time>2015-03-29T13:57:27Z</time>
      </trkpt>
      <trkpt lat="43.80409" lon="3.5855">
        <ele>248.64</ele>
        <time>2015-03-29T13:57:29Z</time>
      </trkpt>
      <trkpt lat="43.80415" lon="3.58556">
        <ele>249.6</ele>
        <time>2015-03-29T13:57:37Z</time>
      </trkpt>
      <trkpt lat="43.80427" lon="3.58566">
        <ele>251.52</ele>
        <time>2015-03-29T13:57:50Z</time>
      </trkpt>
      <trkpt lat="43.80436" lon="3.58577">
        <ele>253.44</ele>
        <time>2015-03-29T13:58:04Z</time>
      </trkpt>
      <trkpt lat="43.80442" lon="3.58582">
        <ele>255.85</ele>
        <time>2015-03-29T13:58:17Z</time>
      </trkpt>
      <trkpt lat="43.80441" lon="3.58579">
        <ele>257.29</ele>
        <time>2015-03-29T13:58:23Z</time>
      </trkpt>
      <trkpt lat="43.80435" lon="3.58569">
        <ele>259.69</ele>
        <time>2015-03-29T13:58:36Z</time>
      </trkpt>
      <trkpt lat="43.80435" lon="3.58567">
        <ele>259.69</ele>
        <time>2015-03-29T13:58:44Z</time>
      </trkpt>
      <trkpt lat="43.8044" lon="3.58568">
        <ele>261.14</ele>
        <time>2015-03-29T13:58:56Z</time>
      </trkpt>
      <trkpt lat="43.80443" lon="3.58573">
        <ele>261.62</ele>
        <time>2015-03-29T13:59:04Z</time>
      </trkpt>
      <trkpt lat="43.80452" lon="3.58593">
        <ele>263.54</ele>
        <time>2015-03-29T13:59:18Z</time>
      </trkpt>
      <trkpt lat="43.80455" lon="3.58613">
        <ele>264.5</ele>
        <time>2015-03-29T13:59:32Z</time>
      </trkpt>
      <trkpt lat="43.80458" lon="3.58633">
        <ele>265.46</ele>
        <time>2015-03-29T13:59:44Z</time>
      </trkpt>
      <trkpt lat="43.80458" lon="3.58637">
        <ele>266.42</ele>
        <time>2015-03-29T13:59:47Z</time>
      </trkpt>
      <trkpt lat="43.80467" lon="3.58649">
        <ele>269.31</ele>
        <time>2015-03-29T14:00:00Z</time>
      </trkpt>
      <trkpt lat="43.80467" lon="3.58648">
        <ele>269.79</ele>
        <time>2015-03-29T14:00:01Z</time>
      </trkpt>
      <trkpt lat="43.80468" lon="3.58644">
        <ele>270.75</ele>
        <time>2015-03-29T14:00:05Z</time>
      </trkpt>
      <trkpt lat="43.8047" lon="3.58641">
        <ele>270.75</ele>
        <time>2015-03-29T14:00:08Z</time>
      </trkpt>
      <trkpt lat="43.80475" lon="3.58643">
        <ele>273.63</ele>
        <time>2015-03-29T14:00:19Z</time>
      </trkpt>
      <trkpt lat="43.80476" lon="3.58636">
        <ele>274.59</ele>
        <time>2015-03-29T14:00:24Z</time>
      </trkpt>
      <trkpt lat="43.80477" lon="3.58627">
        <ele>277.48</ele>
        <time>2015-03-29T14:00:32Z</time>
      </trkpt>
      <trkpt lat="43.80475" lon="3.58624">
        <ele>277.96</ele>
        <time>2015-03-29T14:00:36Z</time>
      </trkpt>
      <trkpt lat="43.80479" lon="3.58605">
        <ele>280.36</ele>
        <time>2015-03-29T14:00:49Z</time>
      </trkpt>
      <trkpt lat="43.80481" lon="3.586">
        <ele>281.8</ele>
        <time>2015-03-29T14:00:54Z</time>
      </trkpt>
      <trkpt lat="43.80487" lon="3.58603">
        <ele>282.28</ele>
        <time>2015-03-29T14:00:58Z</time>
      </trkpt>
      <trkpt lat="43.80489" lon="3.58606">
        <ele>282.77</ele>
        <time>2015-03-29T14:01:00Z</time>
      </trkpt>
      <trkpt lat="43.80508" lon="3.5863">
        <ele>283.73</ele>
        <time>2015-03-29T14:01:15Z</time>
      </trkpt>
      <trkpt lat="43.80519" lon="3.58644">
        <ele>285.65</ele>
        <time>2015-03-29T14:01:27Z</time>
      </trkpt>
      <trkpt lat="43.80519" lon="3.58645">
        <ele>285.65</ele>
        <time>2015-03-29T14:01:28Z</time>
      </trkpt>
      <trkpt lat="43.80524" lon="3.58657">
        <ele>286.61</ele>
        <time>2015-03-29T14:01:35Z</time>
      </trkpt>
      <trkpt lat="43.80536" lon="3.58669">
        <ele>286.61</ele>
        <time>2015-03-29T14:01:46Z</time>
      </trkpt>
      <trkpt lat="43.80542" lon="3.58674">
        <ele>287.09</ele>
        <time>2015-03-29T14:01:51Z</time>
      </trkpt>
      <trkpt lat="43.8055" lon="3.58685">
        <ele>285.65</ele>
        <time>2015-03-29T14:02:05Z</time>
      </trkpt>
      <trkpt lat="43.80552" lon="3.58688">
        <ele>285.65</ele>
        <time>2015-03-29T14:02:22Z</time>
      </trkpt>
      <trkpt lat="43.80552" lon="3.58688">
        <ele>285.65</ele>
        <time>2015-03-29T14:02:30Z</time>
      </trkpt>
      <trkpt lat="43.80549" lon="3.58686">
        <ele>286.13</ele>
        <time>2015-03-29T14:02:33Z</time>
      </trkpt>
      <trkpt lat="43.80543" lon="3.58681">
        <ele>285.65</ele>
        <time>2015-03-29T14:02:40Z</time>
      </trkpt>
      <trkpt lat="43.80547" lon="3.58682">
        <ele>288.53</ele>
        <time>2015-03-29T14:02:50Z</time>
      </trkpt>
      <trkpt lat="43.80552" lon="3.58684">
        <ele>289.97</ele>
        <time>2015-03-29T14:02:55Z</time>
      </trkpt>
      <trkpt lat="43.80565" lon="3.58688">
        <ele>291.9</ele>
        <time>2015-03-29T14:03:11Z</time>
      </trkpt>
      <trkpt lat="43.80563" lon="3.58694">
        <ele>294.78</ele>
        <time>2015-03-29T14:03:27Z</time>
      </trkpt>
      <trkpt lat="43.80567" lon="3.58693">
        <ele>295.26</ele>
        <time>2015-03-29T14:03:45Z</time>
      </trkpt>
      <trkpt lat="43.80572" lon="3.58691">
        <ele>295.26</ele>
        <time>2015-03-29T14:03:48Z</time>
      </trkpt>
      <trkpt lat="43.80591" lon="3.58691">
        <ele>294.3</ele>
        <time>2015-03-29T14:04:01Z</time>
      </trkpt>
      <trkpt lat="43.80593" lon="3.58694">
        <ele>293.34</ele>
        <time>2015-03-29T14:04:03Z</time>
      </trkpt>
      <trkpt lat="43.80599" lon="3.58698">
        <ele>291.42</ele>
        <time>2015-03-29T14:04:09Z</time>
      </trkpt>
      <trkpt lat="43.80614" lon="3.58706">
        <ele>289.49</ele>
        <time>2015-03-29T14:04:23Z</time>
      </trkpt>
      <trkpt lat="43.80616" lon="3.58712">
        <ele>288.05</ele>
        <time>2015-03-29T14:04:36Z</time>
      </trkpt>
      <trkpt lat="43.80618" lon="3.58711">
        <ele>286.13</ele>
        <time>2015-03-29T14:04:44Z</time>
      </trkpt>
      <trkpt lat="43.80621" lon="3.58709">
        <ele>284.69</ele>
        <time>2015-03-29T14:04:51Z</time>
      </trkpt>
      <trkpt lat="43.80624" lon="3.58724">
        <ele>283.25</ele>
        <time>2015-03-29T14:05:01Z</time>
      </trkpt>
      <trkpt lat="43.80621" lon="3.5875">
        <ele>279.88</ele>
        <time>2015-03-29T14:05:15Z</time>
      </trkpt>
      <trkpt lat="43.80623" lon="3.58762">
        <ele>277.48</ele>
        <time>2015-03-29T14:05:24Z</time>
      </trkpt>
      <trkpt lat="43.80628" lon="3.58762">
        <ele>277</ele>
        <time>2015-03-29T14:05:28Z</time>
      </trkpt>
      <trkpt lat="43.80629" lon="3.58785">
        <ele>273.15</ele>
        <time>2015-03-29T14:05:39Z</time>
      </trkpt>
      <trkpt lat="43.8063" lon="3.58786">
        <ele>272.67</ele>
        <time>2015-03-29T14:05:40Z</time>
      </trkpt>
      <trkpt lat="43.80642" lon="3.58795">
        <ele>270.27</ele>
        <time>2015-03-29T14:05:49Z</time>
      </trkpt>
      <trkpt lat="43.80653" lon="3.58799">
        <ele>267.38</ele>
        <time>2015-03-29T14:05:58Z</time>
      </trkpt>
      <trkpt lat="43.8066" lon="3.58809">
        <ele>264.02</ele>
        <time>2015-03-29T14:06:11Z</time>
      </trkpt>
      <trkpt lat="43.8066" lon="3.58808">
        <ele>264.02</ele>
        <time>2015-03-29T14:06:13Z</time>
      </trkpt>
      <trkpt lat="43.80659" lon="3.58805">
        <ele>264.02</ele>
        <time>2015-03-29T14:06:15Z</time>
      </trkpt>
      <trkpt lat="43.80663" lon="3.58791">
        <ele>263.06</ele>
        <time>2015-03-29T14:06:21Z</time>
      </trkpt>
      <trkpt lat="43.80667" lon="3.58784">
        <ele>263.06</ele>
        <time>2015-03-29T14:06:25Z</time>
      </trkpt>
      <trkpt lat="43.80667" lon="3.58775">
        <ele>262.58</ele>
        <time>2015-03-29T14:06:30Z</time>
      </trkpt>
      <trkpt lat="43.80668" lon="3.58754">
        <ele>261.14</ele>
        <time>2015-03-29T14:06:43Z</time>
      </trkpt>
      <trkpt lat="43.8067" lon="3.58748">
        <ele>260.65</ele>
        <time>2015-03-29T14:06:47Z</time>
      </trkpt>
      <trkpt lat="43.80676" lon="3.58749">
        <ele>258.73</ele>
        <time>2015-03-29T14:07:00Z</time>
      </trkpt>
      <trkpt lat="43.80677" lon="3.58758">
        <ele>256.33</ele>
        <time>2015-03-29T14:07:13Z</time>
      </trkpt>
      <trkpt lat="43.80684" lon="3.58751">
        <ele>252.96</ele>
        <time>2015-03-29T14:07:27Z</time>
      </trkpt>
      <trkpt lat="43.80692" lon="3.58748">
        <ele>252</ele>
        <time>2015-03-29T14:07:42Z</time>
      </trkpt>
      <trkpt lat="43.80696" lon="3.58749">
        <ele>252</ele>
        <time>2015-03-29T14:07:54Z</time>
      </trkpt>
      <trkpt lat="43.80694" lon="3.58749">
        <ele>251.04</ele>
        <time>2015-03-29T14:08:25Z</time>
      </trkpt>
      <trkpt lat="43.80694" lon="3.58747">
        <ele>251.52</ele>
        <time>2015-03-29T14:08:44Z</time>
      </trkpt>
      <trkpt lat="43.80699" lon="3.58744">
        <ele>250.08</ele>
        <time>2015-03-29T14:09:09Z</time>
      </trkpt>
      <trkpt lat="43.80701" lon="3.58737">
        <ele>248.16</ele>
        <time>2015-03-29T14:09:16Z</time>
      </trkpt>
      <trkpt lat="43.8071" lon="3.58725">
        <ele>244.31</ele>
        <time>2015-03-29T14:09:28Z</time>
      </trkpt>
      <trkpt lat="43.80714" lon="3.58725">
        <ele>243.35</ele>
        <time>2015-03-29T14:09:32Z</time>
      </trkpt>
      <trkpt lat="43.8073" lon="3.58725">
        <ele>240.95</ele>
        <time>2015-03-29T14:09:46Z</time>
      </trkpt>
      <trkpt lat="43.80736" lon="3.58725">
        <ele>239.51</ele>
        <time>2015-03-29T14:09:54Z</time>
      </trkpt>
      <trkpt lat="43.80739" lon="3.58726">
        <ele>239.02</ele>
        <time>2015-03-29T14:09:56Z</time>
      </trkpt>
      <trkpt lat="43.80748" lon="3.58721">
        <ele>237.58</ele>
        <time>2015-03-29T14:10:04Z</time>
      </trkpt>
      <trkpt lat="43.80765" lon="3.58712">
        <ele>235.18</ele>
        <time>2015-03-29T14:10:20Z</time>
      </trkpt>
      <trkpt lat="43.80781" lon="3.58706">
        <ele>232.78</ele>
        <time>2015-03-29T14:10:34Z</time>
      </trkpt>
      <trkpt lat="43.80793" lon="3.58703">
        <ele>229.89</ele>
        <time>2015-03-29T14:10:47Z</time>
      </trkpt>
      <trkpt lat="43.80807" lon="3.58697">
        <ele>227.01</ele>
        <time>2015-03-29T14:11:00Z</time>
      </trkpt>
      <trkpt lat="43.80815" lon="3.58692">
        <ele>225.09</ele>
        <time>2015-03-29T14:11:07Z</time>
      </trkpt>
      <trkpt lat="43.80826" lon="3.5869">
        <ele>222.68</ele>
        <time>2015-03-29T14:11:19Z</time>
      </trkpt>
      <trkpt lat="43.80832" lon="3.58692">
        <ele>221.72</ele>
        <time>2015-03-29T14:11:24Z</time>
      </trkpt>
      <trkpt lat="43.8084" lon="3.58689">
        <ele>220.76</ele>
        <time>2015-03-29T14:11:31Z</time>
      </trkpt>
      <trkpt lat="43.80849" lon="3.58686">
        <ele>220.28</ele>
        <time>2015-03-29T14:11:38Z</time>
      </trkpt>
      <trkpt lat="43.80857" lon="3.58681">
        <ele>218.84</ele>
        <time>2015-03-29T14:11:45Z</time>
      </trkpt>
      <trkpt lat="43.80874" lon="3.58674">
        <ele>216.43</ele>
        <time>2015-03-29T14:12:00Z</time>
      </trkpt>
      <trkpt lat="43.80876" lon="3.58672">
        <ele>215.95</ele>
        <time>2015-03-29T14:12:02Z</time>
      </trkpt>
      <trkpt lat="43.80892" lon="3.5866">
        <ele>214.03</ele>
        <time>2015-03-29T14:12:16Z</time>
      </trkpt>
      <trkpt lat="43.80902" lon="3.58656">
        <ele>213.07</ele>
        <time>2015-03-29T14:12:32Z</time>
      </trkpt>
      <trkpt lat="43.80903" lon="3.58654">
        <ele>212.59</ele>
        <time>2015-03-29T14:13:06Z</time>
      </trkpt>
      <trkpt lat="43.80905" lon="3.58649">
        <ele>211.15</ele>
        <time>2015-03-29T14:13:12Z</time>
      </trkpt>
      <trkpt lat="43.80912" lon="3.58635">
        <ele>207.3</ele>
        <time>2015-03-29T14:13:26Z</time>
      </trkpt>
      <trkpt lat="43.80914" lon="3.5863">
        <ele>206.82</ele>
        <time>2015-03-29T14:13:29Z</time>
      </trkpt>
      <trkpt lat="43.80925" lon="3.5862">
        <ele>204.42</ele>
        <time>2015-03-29T14:13:42Z</time>
      </trkpt>
      <trkpt lat="43.80941" lon="3.58613">
        <ele>202.49</ele>
        <time>2015-03-29T14:13:57Z</time>
      </trkpt>
      <trkpt lat="43.80942" lon="3.58613">
        <ele>202.49</ele>
        <time>2015-03-29T14:13:58Z</time>
      </trkpt>
      <trkpt lat="43.80958" lon="3.58609">
        <ele>201.05</ele>
        <time>2015-03-29T14:14:12Z</time>
      </trkpt>
      <trkpt lat="43.80962" lon="3.58606">
        <ele>199.61</ele>
        <time>2015-03-29T14:14:18Z</time>
      </trkpt>
      <trkpt lat="43.80976" lon="3.58599">
        <ele>197.21</ele>
        <time>2015-03-29T14:14:32Z</time>
      </trkpt>
      <trkpt lat="43.80977" lon="3.58598">
        <ele>196.73</ele>
        <time>2015-03-29T14:14:33Z</time>
      </trkpt>
      <trkpt lat="43.80989" lon="3.586">
        <ele>195.28</ele>
        <time>2015-03-29T14:14:45Z</time>
      </trkpt>
      <trkpt lat="43.81" lon="3.58608">
        <ele>193.84</ele>
        <time>2015-03-29T14:14:54Z</time>
      </trkpt>
      <trkpt lat="43.81007" lon="3.5861">
        <ele>193.84</ele>
        <time>2015-03-29T14:15:01Z</time>
      </trkpt>
      <trkpt lat="43.81016" lon="3.58617">
        <ele>193.36</ele>
        <time>2015-03-29T14:15:13Z</time>
      </trkpt>
      <trkpt lat="43.81032" lon="3.58622">
        <ele>193.84</ele>
        <time>2015-03-29T14:15:24Z</time>
      </trkpt>
      <trkpt lat="43.81044" lon="3.58616">
        <ele>193.36</ele>
        <time>2015-03-29T14:15:37Z</time>
      </trkpt>
      <trkpt lat="43.81053" lon="3.58612">
        <ele>193.36</ele>
        <time>2015-03-29T14:15:44Z</time>
      </trkpt>
      <trkpt lat="43.81068" lon="3.58609">
        <ele>192.88</ele>
        <time>2015-03-29T14:15:58Z</time>
      </trkpt>
      <trkpt lat="43.81079" lon="3.58607">
        <ele>194.32</ele>
        <time>2015-03-29T14:16:12Z</time>
      </trkpt>
      <trkpt lat="43.81091" lon="3.58616">
        <ele>196.73</ele>
        <time>2015-03-29T14:16:26Z</time>
      </trkpt>
      <trkpt lat="43.81097" lon="3.58622">
        <ele>199.13</ele>
        <time>2015-03-29T14:16:39Z</time>
      </trkpt>
      <trkpt lat="43.81109" lon="3.58631">
        <ele>200.09</ele>
        <time>2015-03-29T14:16:51Z</time>
      </trkpt>
      <trkpt lat="43.81113" lon="3.58633">
        <ele>201.05</ele>
        <time>2015-03-29T14:16:55Z</time>
      </trkpt>
      <trkpt lat="43.81126" lon="3.5864">
        <ele>203.46</ele>
        <time>2015-03-29T14:17:09Z</time>
      </trkpt>
      <trkpt lat="43.8114" lon="3.58635">
        <ele>205.86</ele>
        <time>2015-03-29T14:17:23Z</time>
      </trkpt>
      <trkpt lat="43.81145" lon="3.58634">
        <ele>206.34</ele>
        <time>2015-03-29T14:17:27Z</time>
      </trkpt>
      <trkpt lat="43.81163" lon="3.58636">
        <ele>207.78</ele>
        <time>2015-03-29T14:17:41Z</time>
      </trkpt>
      <trkpt lat="43.81175" lon="3.58645">
        <ele>209.7</ele>
        <time>2015-03-29T14:17:54Z</time>
      </trkpt>
      <trkpt lat="43.81176" lon="3.58648">
        <ele>209.7</ele>
        <time>2015-03-29T14:17:56Z</time>
      </trkpt>
      <trkpt lat="43.81186" lon="3.58657">
        <ele>211.15</ele>
        <time>2015-03-29T14:18:06Z</time>
      </trkpt>
      <trkpt lat="43.81199" lon="3.58671">
        <ele>213.07</ele>
        <time>2015-03-29T14:18:22Z</time>
      </trkpt>
      <trkpt lat="43.81209" lon="3.5868">
        <ele>214.51</ele>
        <time>2015-03-29T14:18:33Z</time>
      </trkpt>
      <trkpt lat="43.81223" lon="3.58687">
        <ele>216.91</ele>
        <time>2015-03-29T14:18:49Z</time>
      </trkpt>
      <trkpt lat="43.81235" lon="3.58704">
        <ele>219.32</ele>
        <time>2015-03-29T14:19:02Z</time>
      </trkpt>
      <trkpt lat="43.81249" lon="3.58715">
        <ele>221.24</ele>
        <time>2015-03-29T14:19:15Z</time>
      </trkpt>
      <trkpt lat="43.81262" lon="3.5872">
        <ele>223.16</ele>
        <time>2015-03-29T14:19:30Z</time>
      </trkpt>
      <trkpt lat="43.81263" lon="3.5872">
        <ele>223.64</ele>
        <time>2015-03-29T14:19:31Z</time>
      </trkpt>
      <trkpt lat="43.81276" lon="3.5873">
        <ele>224.12</ele>
        <time>2015-03-29T14:19:44Z</time>
      </trkpt>
      <trkpt lat="43.81289" lon="3.58744">
        <ele>226.53</ele>
        <time>2015-03-29T14:19:59Z</time>
      </trkpt>
      <trkpt lat="43.81289" lon="3.58748">
        <ele>226.05</ele>
        <time>2015-03-29T14:20:04Z</time>
      </trkpt>
      <trkpt lat="43.81284" lon="3.58766">
        <ele>224.61</ele>
        <time>2015-03-29T14:20:17Z</time>
      </trkpt>
      <trkpt lat="43.81281" lon="3.58774">
        <ele>224.61</ele>
        <time>2015-03-29T14:20:22Z</time>
      </trkpt>
      <trkpt lat="43.81281" lon="3.58778">
        <ele>224.61</ele>
        <time>2015-03-29T14:20:24Z</time>
      </trkpt>
      <trkpt lat="43.81273" lon="3.58792">
        <ele>222.2</ele>
        <time>2015-03-29T14:20:36Z</time>
      </trkpt>
      <trkpt lat="43.81268" lon="3.58811">
        <ele>219.32</ele>
        <time>2015-03-29T14:20:49Z</time>
      </trkpt>
      <trkpt lat="43.81275" lon="3.58825">
        <ele>217.88</ele>
        <time>2015-03-29T14:21:03Z</time>
      </trkpt>
      <trkpt lat="43.81272" lon="3.5884">
        <ele>215.47</ele>
        <time>2015-03-29T14:21:17Z</time>
      </trkpt>
      <trkpt lat="43.81269" lon="3.58845">
        <ele>214.99</ele>
        <time>2015-03-29T14:21:31Z</time>
      </trkpt>
      <trkpt lat="43.81265" lon="3.58859">
        <ele>213.07</ele>
        <time>2015-03-29T14:21:51Z</time>
      </trkpt>
      <trkpt lat="43.81263" lon="3.58864">
        <ele>211.63</ele>
        <time>2015-03-29T14:22:08Z</time>
      </trkpt>
      <trkpt lat="43.81263" lon="3.58879">
        <ele>208.26</ele>
        <time>2015-03-29T14:22:22Z</time>
      </trkpt>
      <trkpt lat="43.81266" lon="3.58897">
        <ele>205.86</ele>
        <time>2015-03-29T14:22:34Z</time>
      </trkpt>
      <trkpt lat="43.81262" lon="3.58911">
        <ele>203.46</ele>
        <time>2015-03-29T14:22:46Z</time>
      </trkpt>
      <trkpt lat="43.81266" lon="3.58926">
        <ele>201.53</ele>
        <time>2015-03-29T14:22:57Z</time>
      </trkpt>
      <trkpt lat="43.81272" lon="3.58942">
        <ele>200.09</ele>
        <time>2015-03-29T14:23:11Z</time>
      </trkpt>
      <trkpt lat="43.81274" lon="3.58966">
        <ele>197.21</ele>
        <time>2015-03-29T14:23:25Z</time>
      </trkpt>
      <trkpt lat="43.81274" lon="3.58988">
        <ele>195.28</ele>
        <time>2015-03-29T14:23:38Z</time>
      </trkpt>
      <trkpt lat="43.81274" lon="3.5899">
        <ele>194.32</ele>
        <time>2015-03-29T14:23:39Z</time>
      </trkpt>
      <trkpt lat="43.81277" lon="3.58999">
        <ele>193.84</ele>
        <time>2015-03-29T14:23:45Z</time>
      </trkpt>
      <trkpt lat="43.81277" lon="3.5901">
        <ele>193.84</ele>
        <time>2015-03-29T14:23:51Z</time>
      </trkpt>
      <trkpt lat="43.81276" lon="3.59013">
        <ele>192.88</ele>
        <time>2015-03-29T14:23:53Z</time>
      </trkpt>
      <trkpt lat="43.81267" lon="3.59033">
        <ele>191.44</ele>
        <time>2015-03-29T14:24:07Z</time>
      </trkpt>
      <trkpt lat="43.81259" lon="3.59039">
        <ele>190.48</ele>
        <time>2015-03-29T14:24:15Z</time>
      </trkpt>
      <trkpt lat="43.81259" lon="3.59057">
        <ele>189.52</ele>
        <time>2015-03-29T14:24:27Z</time>
      </trkpt>
      <trkpt lat="43.81259" lon="3.59076">
        <ele>188.56</ele>
        <time>2015-03-29T14:24:38Z</time>
      </trkpt>
      <trkpt lat="43.81257" lon="3.59101">
        <ele>187.11</ele>
        <time>2015-03-29T14:24:52Z</time>
      </trkpt>
      <trkpt lat="43.81255" lon="3.59108">
        <ele>187.11</ele>
        <time>2015-03-29T14:24:56Z</time>
      </trkpt>
      <trkpt lat="43.81248" lon="3.59118">
        <ele>186.63</ele>
        <time>2015-03-29T14:25:04Z</time>
      </trkpt>
      <trkpt lat="43.81226" lon="3.59127">
        <ele>186.63</ele>
        <time>2015-03-29T14:25:19Z</time>
      </trkpt>
      <trkpt lat="43.81205" lon="3.59137">
        <ele>186.15</ele>
        <time>2015-03-29T14:25:34Z</time>
      </trkpt>
      <trkpt lat="43.81194" lon="3.59142">
        <ele>186.15</ele>
        <time>2015-03-29T14:25:43Z</time>
      </trkpt>
      <trkpt lat="43.81179" lon="3.59154">
        <ele>186.15</ele>
        <time>2015-03-29T14:25:57Z</time>
      </trkpt>
      <trkpt lat="43.81178" lon="3.59158">
        <ele>185.67</ele>
        <time>2015-03-29T14:26:01Z</time>
      </trkpt>
      <trkpt lat="43.81176" lon="3.5916">
        <ele>185.19</ele>
        <time>2015-03-29T14:26:16Z</time>
      </trkpt>
      <trkpt lat="43.81175" lon="3.59161">
        <ele>184.71</ele>
        <time>2015-03-29T14:26:30Z</time>
      </trkpt>
      <trkpt lat="43.81174" lon="3.59161">
        <ele>184.71</ele>
        <time>2015-03-29T14:27:01Z</time>
      </trkpt>
      <trkpt lat="43.81175" lon="3.59162">
        <ele>184.71</ele>
        <time>2015-03-29T14:27:35Z</time>
      </trkpt>
      <trkpt lat="43.81175" lon="3.59162">
        <ele>184.23</ele>
        <time>2015-03-29T14:28:08Z</time>
      </trkpt>
      <trkpt lat="43.81176" lon="3.59163">
        <ele>184.23</ele>
        <time>2015-03-29T14:28:37Z</time>
      </trkpt>
      <trkpt lat="43.81176" lon="3.59163">
        <ele>184.71</ele>
        <time>2015-03-29T14:29:02Z</time>
      </trkpt>
      <trkpt lat="43.81176" lon="3.59161">
        <ele>184.23</ele>
        <time>2015-03-29T14:29:30Z</time>
      </trkpt>
      <trkpt lat="43.81176" lon="3.59161">
        <ele>184.23</ele>
        <time>2015-03-29T14:29:57Z</time>
      </trkpt>
    </trkseg>
  </trk>
</gpx>